GFSGL_925_rhum_000.txt.gz
RH
40 36 39 39 39 37 34 37 44 48 53 53 50 45 44 41 39 39 43 45 47 46 44 42 41 41 46 49 48 48 56 60 69 58 54 54 53 49 46 44 44 42 46
48 40 40 41 39 36 39 43 45 46 47 42 44 42 40 41 46 46 44 42 39 38 38 41 42 45 48 50 53 54 58 60 67 70 60 57 56 58 61 57 52 50 46
54 44 42 38 35 39 43 46 46 46 41 41 41 40 42 44 42 41 38 37 40 43 48 54 55 57 59 61 67 69 69 71 72 82 81 75 70 66 64 60 59 55 52
57 44 41 38 40 49 48 48 49 44 41 41 41 44 45 42 38 40 44 49 52 56 56 56 56 57 59 61 63 67 72 73 76 80 79 79 75 72 71 70 67 58 55
58 42 45 54 60 59 55 64 80 52 44 46 45 40 37 39 40 50 57 63 65 64 62 62 64 67 75 77 80 77 76 74 72 66 64 62 63 64 68 67 81 81 76
71 78 76 73 73 75 92 74 65 56 49 42 37 38 38 41 52 66 64 62 57 60 69 74 74 74 67 65 66 68 78 83 83 82 79 77 73 73 70 69 80 95 89
88 93 96 95 96 73 68 68 64 48 40 37 35 37 43 57 61 59 64 56 67 80 84 86 86 83 81 80 78 78 80 82 83 86 86 80 79 82 80 74 85 92 89
84 85 84 83 79 66 55 45 38 36 36 38 40 47 58 59 71 61 60 70 83 86 88 91 96 96 96 97 98 97 95 93 90 88 88 91 89 90 90 82 78 78 78
49 48 51 56 49 40 38 38 39 40 39 41 52 65 75 66 64 78 80 82 85 93 94 98 99 96 93 87 93 100 93 98 94 95 93 91 91 91 92 93 96 96 93
44 45 47 44 43 43 44 43 41 41 48 56 70 64 62 60 60 81 84 89 100 100 97 97 95 95 94 93 96 96 96 94 91 91 93 93 94 97 96 99 99 96 94
47 44 45 46 49 51 46 45 45 51 61 63 65 62 61 66 71 84 87 94 100 99 98 96 97 98 98 98 98 99 98 94 94 98 98 94 95 97 93 92 99 100 97
47 50 53 56 59 52 50 50 56 63 66 63 67 74 74 74 79 92 90 93 97 99 99 99 99 100 100 98 99 96 94 94 100 99 99 96 92 96 96 92 88 91 100
52 54 61 65 64 56 58 62 63 64 70 80 84 91 91 90 88 89 88 97 99 98 98 97 98 96 98 95 94 98 100 100 100 99 95 91 96 97 94 93 88 89 95
56 58 69 74 61 64 67 67 68 66 82 90 89 99 99 95 92 90 97 98 93 97 80 82 85 85 86 89 90 92 96 97 99 98 97 93 94 96 99 96 94 95 98
60 62 69 71 66 68 69 75 69 75 87 84 88 99 100 95 97 99 98 97 98 96 94 84 90 93 97 96 96 96 96 96 98 99 99 98 98 98 100 99 99 100 99
64 65 65 66 76 66 73 79 76 80 73 84 92 97 93 98 98 99 98 96 100 96 93 99 96 99 99 99 100 99 98 100 98 100 96 95 98 100 100 99 99 98 98
70 70 75 82 76 68 76 82 81 83 66 79 93 96 99 99 98 99 98 97 99 91 97 97 99 98 100 99 100 99 99 98 98 98 98 99 99 99 99 98 98 98 97
77 78 78 86 80 76 78 75 76 86 92 89 85 98 100 99 99 99 99 93 94 93 98 98 98 100 99 99 100 100 100 98 96 97 98 100 100 98 97 98 98 96 96
79 68 76 93 88 82 83 72 89 80 84 96 87 89 94 99 99 99 97 96 97 97 98 98 97 100 100 100 100 99 95 100 98 97 96 96 98 99 99 98 97 97 96
82 82 87 81 86 94 84 88 88 84 85 98 95 99 93 92 95 96 94 95 95 98 96 96 96 98 100 100 99 100 98 97 97 96 96 96 97 97 99 99 98 96 97
85 91 80 75 90 90 85 88 90 87 90 98 96 96 96 95 96 96 96 96 96 96 96 96 96 96 100 97 96 98 100 100 96 95 96 96 96 96 97 96 96 96 95
88 97 92 85 84 87 90 85 90 91 87 95 97 95 94 94 95 96 96 95 96 96 97 97 97 96 98 100 100 98 97 99 99 93 93 94 95 95 96 97 97 97 95
84 94 84 96 87 86 87 93 93 95 88 93 94 93 94 95 96 96 96 96 91 74 75 83 92 95 96 99 100 100 100 100 100 94 88 91 93 94 93 94 94 96 95
96 95 93 92 90 93 88 91 90 96 95 89 95 94 94 95 96 96 96 94 86 67 57 58 75 91 96 96 98 99 96 92 90 94 90 86 91 92 93 95 96 95 96
95 92 94 92 96 87 83 89 88 96 95 91 92 95 95 95 95 95 95 92 78 66 66 58 60 74 82 89 93 94 94 89 83 77 78 86 91 93 93 93 94 95 96
94 94 91 94 97 91 92 80 89 91 92 90 94 92 95 95 95 93 90 82 81 79 70 64 60 63 67 72 85 88 89 89 89 83 76 71 80 83 82 83 86 92 94

GFSGL_925_rhum_003.txt.gz
RH
54 58 53 46 46 46 43 43 47 52 49 41 40 40 46 54 50 52 50 50 48 44 38 37 37 37 40 43 45 51 62 68 77 63 56 55 53 50 47 47 46 48 49
61 60 55 48 49 44 44 46 48 43 41 39 39 40 40 42 43 47 44 42 42 40 41 45 47 47 54 55 54 56 58 61 80 85 77 67 65 62 60 57 54 54 54
62 62 59 50 52 45 48 48 45 43 39 38 39 40 41 45 45 39 37 40 44 47 50 55 57 59 62 64 67 69 68 66 68 79 83 82 77 75 72 69 70 63 54
67 72 61 45 44 50 50 58 69 69 54 43 41 44 45 38 36 38 40 47 55 60 61 61 60 61 63 64 66 68 67 70 76 81 82 79 78 71 72 74 73 67 63
80 78 64 60 62 65 88 79 78 77 57 51 52 43 37 36 38 45 59 66 61 56 52 52 55 59 72 77 81 83 84 84 80 76 69 64 62 66 72 64 67 66 68
87 92 94 96 98 98 93 94 81 87 92 64 41 37 36 42 58 73 65 65 59 57 63 70 76 79 73 76 80 78 79 83 83 82 79 79 78 75 69 67 72 77 84
91 91 89 93 97 98 98 93 83 57 45 39 40 44 48 60 66 69 69 64 67 71 85 92 92 91 89 88 87 88 88 88 88 90 89 84 82 78 79 85 85 85 83
79 58 59 59 58 59 52 45 42 42 43 44 46 53 63 69 68 60 67 78 82 85 84 90 97 96 99 97 95 97 92 94 97 95 93 92 91 86 88 87 86 82 77
57 62 64 48 47 44 45 45 43 43 47 53 65 71 65 59 58 68 82 85 87 90 92 96 100 100 98 93 96 98 98 93 90 95 94 98 94 89 91 98 98 98 92
68 63 49 48 51 52 50 46 48 53 59 70 63 60 60 63 64 73 88 90 99 100 100 97 96 98 96 92 95 100 96 92 90 88 93 94 93 95 94 99 99 96 93
54 50 51 54 58 56 51 52 57 61 64 60 62 62 65 68 73 76 92 92 97 100 100 97 99 100 97 97 98 98 98 95 97 96 95 98 96 96 93 97 100 100 98
48 50 54 61 64 60 58 62 61 65 64 70 82 71 68 75 78 80 94 94 98 99 100 99 96 96 95 93 96 98 98 98 100 100 99 98 99 99 97 94 93 96 92
53 54 57 66 65 61 66 66 68 66 77 88 94 94 93 92 81 76 82 98 99 98 98 91 93 96 93 90 92 100 100 100 99 97 96 94 92 94 94 95 96 95 96
57 57 61 65 62 67 62 71 77 78 83 96 90 96 100 94 91 88 99 97 90 97 96 97 83 84 90 96 94 94 96 97 98 98 98 98 97 97 98 98 99 99 100
61 64 64 62 65 72 64 72 82 78 88 88 90 97 100 96 97 98 98 96 97 97 91 87 93 95 97 97 96 96 96 98 99 100 98 98 98 98 97 97 97 98 98
63 68 73 78 81 79 70 79 75 72 81 84 91 90 93 97 98 98 98 96 96 95 92 97 97 100 100 98 100 100 96 100 98 97 100 99 98 100 100 99 98 98 97
70 78 77 74 90 84 84 82 74 73 74 67 90 91 93 97 99 98 98 96 97 90 97 97 97 100 100 99 100 100 100 98 98 99 98 97 97 98 97 97 99 100 98
78 76 68 79 85 88 87 86 76 91 86 85 79 92 100 100 99 99 99 95 93 93 96 98 98 99 100 100 99 99 100 98 98 96 96 97 98 98 97 97 97 97 97
90 88 83 83 81 88 94 85 89 89 81 94 86 80 90 100 99 100 98 95 97 97 97 97 96 97 99 100 100 99 100 100 99 98 99 99 99 99 97 97 97 96 95
90 85 87 82 79 94 79 87 87 92 86 95 92 97 93 92 94 95 95 96 96 96 96 96 96 96 96 100 100 100 100 100 98 95 97 97 98 97 98 94 95 95 96
89 92 93 89 82 84 88 86 91 94 90 96 96 95 97 96 96 96 96 96 96 96 96 96 96 96 96 98 99 100 100 100 100 96 95 96 97 97 98 98 98 96 96
85 95 91 89 89 84 87 89 96 96 92 94 93 92 95 95 95 96 96 96 96 94 93 94 97 98 98 98 99 100 100 100 100 98 93 95 95 96 95 94 94 96 95
93 96 87 89 89 91 90 88 93 96 95 92 94 94 95 95 96 96 96 96 75 61 59 71 82 91 96 98 100 100 100 100 100 99 93 93 94 95 94 96 94 94 93
97 93 90 92 93 92 85 87 90 96 98 92 94 95 96 96 95 96 95 74 60 60 54 55 70 79 86 91 95 95 93 88 82 84 91 89 90 89 91 95 98 98 97
98 93 92 86 94 95 88 88 87 89 95 90 91 96 96 94 95 95 87 82 74 61 57 53 58 61 66 81 87 90 90 88 82 75 76 84 86 87 90 92 94 96 96
94 96 98 98 99 97 94 89 81 87 94 90 93 94 95 95 94 87 84 85 84 77 68 60 57 62 55 56 65 78 80 82 85 88 82 77 74 74 78 84 88 91 94

GFSGL_925_rhum_006.txt.gz
RH
56 63 59 57 60 52 55 56 61 65 55 47 47 49 46 43 47 57 63 61 54 49 46 42 40 42 43 44 47 52 58 67 84 69 66 60 56 54 51 45 43 47 49
65 58 62 69 58 51 58 64 63 48 43 45 53 49 48 43 43 47 47 44 42 41 40 44 45 47 54 59 63 67 71 73 81 82 84 80 71 66 66 66 59 49 49
61 72 77 66 47 56 59 59 61 63 54 60 64 63 54 47 47 43 37 38 40 43 48 55 60 62 63 61 60 62 62 62 67 81 80 75 70 66 62 63 68 64 66
74 84 74 64 62 77 84 79 79 77 80 90 92 81 58 47 41 40 42 47 53 60 61 59 56 55 56 58 64 69 73 78 79 82 77 78 80 77 72 74 74 68 60
82 85 87 84 80 80 84 86 83 86 97 97 96 82 50 39 39 43 53 63 63 60 56 56 59 62 74 76 79 82 84 90 91 88 84 79 78 79 79 71 73 69 72
92 94 93 89 95 99 88 78 70 68 71 76 76 48 44 44 53 73 76 77 71 68 72 75 76 84 78 88 89 88 87 90 90 86 81 79 76 74 67 66 73 77 78
88 68 68 64 60 61 64 65 60 48 47 46 44 46 54 66 74 77 72 67 72 82 87 88 93 90 89 93 96 95 94 92 91 94 95 92 84 79 81 87 86 85 78
68 67 66 66 52 47 46 47 46 44 45 48 54 66 70 63 59 59 67 80 83 87 87 88 95 94 98 96 96 96 98 97 92 88 96 96 94 90 88 85 87 88 90
71 72 62 53 53 53 54 50 49 51 54 64 72 63 62 60 62 75 88 89 91 87 88 98 99 99 96 99 97 99 98 96 90 91 92 98 98 98 95 99 98 97 92
65 56 53 54 55 60 57 56 57 61 70 63 63 66 66 66 63 84 91 91 97 99 95 96 95 99 99 99 98 99 97 95 95 97 96 89 86 95 98 99 99 96 92
56 52 49 50 59 64 60 62 64 66 66 65 70 77 74 67 75 86 90 91 99 100 100 99 98 99 94 89 91 96 98 94 98 99 100 98 97 96 95 96 99 98 96
53 52 47 52 62 61 64 61 64 71 70 76 80 83 80 78 84 86 93 96 99 98 99 98 98 97 93 94 96 98 100 98 100 100 100 99 99 98 100 96 91 92 100
55 54 55 57 61 61 67 62 68 77 82 84 97 96 94 97 84 75 87 100 96 96 98 97 97 96 91 87 98 100 97 96 97 99 97 96 98 96 98 98 98 97 98
58 60 63 64 64 64 70 66 73 81 82 98 95 98 99 97 92 90 99 97 96 96 96 95 95 90 88 91 92 95 96 97 99 100 100 97 97 98 98 98 99 98 99
60 65 72 76 78 81 86 72 80 79 83 96 89 94 99 96 97 97 97 96 97 96 96 94 92 93 93 95 97 95 95 96 98 96 97 98 97 99 99 97 98 98 97
64 70 79 73 72 88 85 84 80 77 77 85 89 92 90 96 96 97 98 98 96 95 95 96 96 98 97 98 98 100 97 98 97 96 96 97 98 98 99 100 99 98 98
74 82 75 76 80 80 89 92 92 80 82 71 79 95 92 95 98 98 99 98 97 94 96 97 97 98 99 99 100 100 100 97 96 96 96 96 96 98 100 98 97 98 98
85 87 86 84 77 78 89 95 89 96 96 80 76 89 96 98 98 98 100 94 95 95 96 97 97 98 98 98 98 98 100 96 96 96 96 96 97 97 97 98 98 97 96
96 88 84 87 82 84 92 80 89 92 93 87 87 82 87 97 100 100 100 96 97 97 96 96 96 96 96 97 98 97 98 100 100 99 98 98 98 97 98 98 99 97 94
92 90 92 90 87 81 83 89 87 93 94 90 93 96 96 90 95 95 95 95 96 96 96 96 96 96 96 96 98 98 96 98 100 98 100 98 98 99 99 96 97 97 98
94 87 98 88 88 89 87 91 92 97 98 92 94 94 97 97 98 98 97 96 96 96 96 96 96 97 97 97 98 98 98 99 99 100 100 98 96 97 99 99 96 95 97
90 92 92 84 92 90 90 90 92 96 99 94 92 91 93 93 95 96 96 96 76 64 70 82 89 96 99 100 99 98 96 96 99 98 98 96 96 95 94 95 96 96 94
86 96 86 86 90 93 90 84 88 93 96 96 93 94 94 95 96 96 95 70 62 61 57 64 68 74 87 94 97 98 96 89 86 95 98 94 94 95 93 94 94 93 91
98 94 94 84 87 94 95 88 88 88 95 96 89 94 95 96 96 96 90 84 69 60 57 59 63 66 71 80 87 90 91 91 81 81 86 87 90 94 92 95 96 96 95
90 98 97 99 97 100 97 94 90 83 88 95 92 91 94 96 94 91 84 84 81 72 64 57 61 61 56 57 68 72 76 81 85 86 78 73 75 81 86 92 93 94 96
96 97 97 96 92 99 100 97 90 87 91 95 94 94 95 88 91 92 95 94 93 84 72 65 56 56 59 58 55 48 46 53 74 83 83 76 71 71 75 82 81 82 90

GFSGL_925_rhum_009.txt.gz
RH
66 63 58 60 60 50 57 68 73 80 66 58 64 67 76 90 76 50 52 66 70 69 70 66 64 62 58 59 55 52 51 50 48 42 44 48 52 50 48 48 51 50 50
62 68 77 64 56 60 72 72 68 65 60 68 71 88 96 81 71 68 61 48 51 50 49 52 50 50 59 63 63 65 63 59 58 53 49 51 57 55 57 59 60 60 64
78 84 76 72 66 87 95 96 94 91 86 91 99 100 100 83 66 52 43 43 44 56 62 66 68 68 64 61 62 59 58 56 55 54 51 50 52 55 54 55 57 59 61
84 87 85 87 91 96 98 96 96 91 91 97 94 94 99 88 70 56 53 61 66 66 71 70 68 67 64 61 60 58 57 58 56 56 54 52 51 51 55 57 56 58 60
91 93 95 94 99 85 65 67 70 75 79 88 94 89 58 55 59 70 72 74 74 72 70 69 68 71 77 76 71 65 65 64 62 62 61 60 60 62 66 61 60 62 62
97 78 68 67 69 71 74 76 76 68 60 47 45 47 52 66 66 76 82 77 75 71 70 70 71 73 75 84 90 90 86 78 71 69 65 60 56 55 57 60 59 60 60
74 68 70 76 65 59 57 55 55 56 57 58 63 70 74 74 61 63 78 72 72 74 73 72 70 70 79 79 82 88 92 92 92 87 84 76 71 69 68 70 72 67 62
70 76 78 67 60 60 59 58 58 58 61 63 72 73 68 65 64 74 85 79 82 81 78 76 77 79 82 90 90 84 81 84 85 88 84 79 72 70 72 80 77 73 72
70 72 63 61 61 62 61 61 63 64 65 71 67 69 68 72 79 83 89 84 83 86 85 86 83 81 86 94 94 94 89 76 73 84 90 88 86 87 89 84 90 86 80
65 62 55 54 62 62 65 64 66 68 68 72 71 72 81 84 86 93 87 84 86 84 84 83 89 94 99 99 98 94 89 76 73 90 89 83 90 95 98 97 94 89 75
63 55 51 49 58 66 64 67 65 66 80 82 88 89 91 86 88 91 88 88 90 88 85 80 89 97 96 97 96 93 91 90 90 90 85 80 85 95 88 80 94 96 86
71 55 54 56 58 60 66 66 67 71 82 89 89 84 80 89 89 88 92 95 94 96 91 96 98 98 100 98 98 98 99 100 97 95 94 88 87 89 86 82 76 82 92
61 62 63 61 66 69 68 71 72 75 82 80 77 77 74 76 81 87 97 99 92 95 98 96 95 98 98 95 98 100 100 99 96 92 89 88 94 93 97 98 97 96 98
62 66 69 73 74 77 79 83 78 84 83 81 80 80 77 76 79 85 90 87 92 97 96 98 97 96 96 95 93 96 100 100 98 95 93 94 99 97 96 96 96 95 98
65 68 76 82 81 81 85 82 84 92 89 85 79 80 86 84 88 96 96 95 98 98 97 98 97 95 84 85 87 90 94 95 95 97 96 95 94 92 91 96 93 92 90
71 77 85 83 87 82 77 78 85 83 81 86 92 91 88 91 95 96 97 99 98 95 96 95 95 95 89 88 88 88 90 95 98 97 97 96 95 95 94 96 93 89 88
84 85 84 88 87 83 86 88 85 86 78 75 79 94 92 90 96 96 99 100 98 96 96 95 95 96 94 90 90 91 91 97 100 98 98 97 98 96 96 94 94 91 88
90 94 94 90 92 92 94 91 94 92 94 91 88 91 98 95 96 98 100 98 97 98 97 95 96 96 95 93 94 95 97 98 99 100 99 100 100 96 93 92 93 93 89
88 94 88 89 90 86 87 94 96 94 93 92 90 88 98 100 99 100 100 98 96 96 97 96 98 98 98 98 99 100 100 100 100 100 100 100 100 98 93 94 95 99 95
99 90 95 97 96 96 95 95 92 93 89 94 91 96 96 92 94 96 98 98 97 97 99 98 100 100 100 100 100 100 99 100 99 98 100 100 100 99 96 97 97 92 90
90 96 94 94 94 99 99 96 96 96 95 94 96 100 99 98 96 96 96 98 94 90 97 100 100 100 100 100 100 100 100 100 100 100 100 100 100 100 100 99 97 94 90
94 94 94 92 95 100 98 98 98 99 98 97 98 99 91 100 99 97 97 96 98 97 98 100 100 100 100 100 100 100 100 100 100 100 100 100 100 100 98 96 94 94 90
95 97 94 98 89 93 100 98 97 98 98 100 100 100 100 100 100 98 98 100 98 95 76 89 99 98 93 95 93 96 100 100 97 88 96 100 100 100 100 96 94 90 90
92 96 100 100 97 99 100 100 96 87 89 100 100 100 100 100 100 100 100 100 99 88 69 61 74 74 65 62 65 69 83 88 88 81 74 84 96 99 100 98 97 100 93
96 99 100 100 99 100 99 100 99 91 91 98 100 100 100 100 100 100 100 97 96 92 77 68 60 62 66 65 55 52 56 70 74 75 72 72 69 77 87 96 100 98 99
98 100 100 100 97 98 100 100 100 98 95 98 99 98 96 96 87 87 100 100 100 98 59 60 63 57 50 52 59 61 52 44 42 49 59 66 68 73 90 91 93 93 95

GFSGL_925_rhum_012.txt.gz
RH
59 59 60 61 58 59 62 63 66 67 60 59 59 68 90 99 98 99 87 70 61 56 53 48 42 41 42 40 41 44 44 40 38 33 31 31 35 39 42 44 43 42 44
56 58 58 62 61 62 68 70 72 71 68 68 85 98 98 98 97 87 79 67 54 50 50 46 42 38 43 43 44 44 43 42 42 40 37 36 38 38 42 45 46 42 41
56 54 56 63 65 70 71 74 75 78 80 96 99 99 100 96 88 76 71 60 54 51 48 46 46 49 50 48 48 47 45 42 41 41 39 37 37 38 39 41 44 44 46
57 57 57 70 78 78 69 65 64 66 69 72 69 68 63 56 52 51 50 52 53 50 54 58 58 58 57 54 50 47 44 43 42 41 39 38 38 38 39 40 40 42 44
61 59 61 63 60 56 54 53 52 53 48 46 46 49 52 52 52 70 62 58 54 54 55 56 54 56 69 73 68 56 50 48 44 42 40 40 41 42 43 43 47 49 49
58 59 58 56 55 52 52 48 44 40 42 45 47 48 52 52 65 61 70 61 55 51 50 51 52 54 54 60 71 80 83 75 64 60 60 59 53 50 51 54 59 62 61
58 55 55 58 56 50 45 38 39 43 47 49 50 55 56 55 58 64 82 64 59 58 58 56 53 48 54 59 72 82 86 87 91 79 73 67 63 62 63 64 67 66 62
55 54 58 54 52 45 40 41 44 46 48 50 53 55 57 54 63 83 85 70 65 63 60 58 55 56 61 79 74 77 80 77 82 88 87 73 70 70 70 68 65 70 73
53 56 56 54 50 40 41 45 48 50 51 52 57 59 60 63 73 84 86 74 68 68 69 70 78 81 82 89 90 90 80 76 75 77 85 71 68 76 76 78 91 80 82
50 56 53 52 48 42 46 50 53 51 52 60 71 72 73 75 83 86 82 75 86 88 81 80 89 86 87 92 98 94 84 73 76 78 73 79 97 84 82 86 90 87 74
49 54 54 52 46 46 50 53 54 54 62 85 92 86 84 82 75 81 82 87 92 88 84 83 77 97 97 98 98 92 90 93 84 86 84 80 80 82 84 95 92 95 85
59 60 56 51 50 51 53 55 56 58 65 87 84 82 72 74 67 74 80 90 94 94 88 87 98 93 98 98 94 97 98 99 95 94 93 90 90 84 80 86 86 85 85
77 61 54 53 54 55 58 59 62 61 82 82 74 71 61 61 61 85 92 93 90 90 95 96 94 97 97 94 97 97 98 99 93 91 90 89 92 91 92 98 96 87 85
63 54 54 55 58 59 60 63 60 71 87 73 68 63 62 64 69 83 86 85 91 95 96 98 96 95 94 96 93 94 96 94 92 92 89 88 92 91 95 95 93 95 92
54 53 58 65 66 66 62 60 66 78 82 76 69 70 76 75 83 93 95 94 96 96 98 96 94 94 93 88 87 86 87 89 93 91 91 92 87 85 90 86 86 87 89
64 61 66 74 74 74 63 64 74 83 77 84 92 90 82 85 92 94 96 98 99 98 94 92 93 94 92 89 81 84 90 90 89 91 94 94 89 87 90 96 88 87 88
88 87 78 82 77 72 73 74 71 70 84 90 86 90 90 92 93 93 97 99 99 96 92 92 93 93 93 90 88 88 88 89 94 92 92 90 92 88 92 94 97 89 81
88 81 84 78 80 81 82 82 78 77 72 69 82 82 89 90 91 94 97 96 92 94 93 92 92 93 93 87 88 90 89 90 89 90 89 91 93 89 86 86 91 95 91
83 82 96 95 92 91 90 84 81 77 69 71 66 66 81 90 94 94 93 91 91 91 93 92 94 92 88 86 89 89 95 91 91 95 90 90 92 90 85 86 88 96 96
80 92 93 88 85 83 84 81 77 73 68 71 67 74 82 82 83 86 88 91 87 81 85 83 88 91 93 92 90 88 79 87 88 89 92 92 92 94 88 86 85 85 88
82 83 88 83 81 83 84 82 80 76 73 72 71 87 96 88 85 86 83 80 80 79 83 83 86 91 93 93 92 90 84 83 88 91 90 91 94 94 91 86 84 82 81
89 94 87 85 85 86 86 85 84 83 75 75 76 77 96 90 88 88 82 85 86 87 87 88 87 89 94 98 98 96 90 88 88 90 90 94 91 93 94 88 87 89 83
89 92 88 89 92 91 91 92 88 86 82 81 81 75 82 89 91 90 89 90 88 91 94 93 90 90 92 97 98 98 98 99 100 97 92 84 80 86 90 87 83 86 82
93 92 89 91 94 88 91 90 91 92 92 85 85 82 81 85 92 94 97 99 94 92 96 98 96 96 97 98 96 93 88 76 97 100 96 84 79 82 81 80 79 82 82
93 97 96 93 92 88 92 91 91 93 92 89 86 85 81 86 83 87 95 99 99 94 92 97 99 97 97 96 91 59 49 41 38 44 95 83 84 83 85 79 82 76 81
93 94 94 93 94 94 91 94 92 93 92 92 89 90 87 85 86 89 91 91 92 92 91 94 98 99 99 93 59 39 36 37 36 33 94 81 81 80 83 79 81 75 76

GFSGL_925_rhum_015.txt.gz
RH
44 46 47 49 52 51 50 53 62 64 63 64 66 77 93 94 91 96 99 96 98 80 68 63 58 53 46 39 38 42 46 45 46 39 35 32 34 35 34 37 39 42 43
45 43 41 43 47 48 57 64 66 70 66 71 89 96 88 89 92 96 95 79 75 76 74 68 59 48 42 40 41 40 38 37 37 39 35 36 36 36 36 39 40 38 39
42 40 40 41 48 61 65 58 56 56 55 55 62 71 71 67 51 44 44 50 49 52 52 50 46 45 45 44 44 44 42 39 38 37 36 35 35 35 36 36 38 40 40
39 42 41 45 50 56 56 54 48 45 42 38 36 38 40 41 42 41 50 50 49 45 45 46 46 47 48 48 48 47 45 43 40 39 38 36 35 34 34 36 38 38 39
40 42 41 45 48 53 52 47 43 39 36 35 37 38 40 42 44 59 60 57 54 50 47 46 44 45 49 53 54 54 54 53 48 44 42 39 36 35 36 36 40 42 44
39 40 41 46 56 55 48 44 33 34 36 40 41 42 43 43 53 57 63 64 57 52 49 47 46 46 47 49 54 59 61 62 59 57 53 50 48 51 51 54 55 57 62
36 37 40 53 57 50 46 35 34 36 39 41 42 43 44 46 57 59 68 71 65 59 55 52 49 45 46 47 50 67 75 86 87 76 72 66 63 62 62 65 63 64 64
36 40 50 52 53 46 42 34 36 38 40 42 42 46 52 55 66 78 86 72 65 62 58 56 54 51 51 66 70 75 79 73 80 87 86 74 67 66 65 65 70 74 75
35 33 41 52 56 46 40 38 40 40 42 41 46 58 64 70 72 92 83 73 72 70 66 70 72 70 77 83 85 84 77 73 78 90 88 81 77 73 72 74 80 92 87
38 34 40 45 47 48 41 41 42 40 41 51 65 68 80 76 88 81 84 73 81 80 75 72 76 83 86 91 98 98 94 76 74 81 82 75 82 95 78 90 81 76 76
40 41 52 70 64 48 43 43 42 42 49 78 87 83 76 82 75 79 84 82 78 92 85 84 80 97 96 96 98 97 93 95 88 86 82 83 81 76 75 86 91 87 83
61 67 87 86 61 49 45 42 44 45 57 72 85 81 70 70 72 83 88 84 93 92 89 87 97 96 97 98 97 98 97 96 94 94 96 93 95 90 82 80 84 99 95
77 88 87 62 59 45 47 43 47 53 65 81 68 70 64 64 68 70 81 89 90 93 96 97 94 95 97 95 96 90 94 98 98 93 91 91 94 93 86 84 90 96 96
68 65 62 52 52 50 45 44 48 59 76 68 63 61 64 73 63 72 86 92 90 96 96 96 97 96 94 96 96 97 98 97 94 95 94 92 93 88 95 97 91 90 96
62 55 53 51 51 54 52 53 56 69 78 71 67 71 78 74 74 87 95 94 96 97 96 98 96 95 95 95 93 95 96 92 94 96 95 93 96 90 98 95 79 86 91
72 60 61 66 67 72 57 59 67 79 82 78 75 84 81 80 87 90 91 94 98 99 97 94 94 95 95 94 94 92 90 93 89 91 94 97 93 92 97 92 84 77 76
83 77 72 72 79 71 72 78 74 78 91 96 90 84 85 84 86 88 89 90 96 96 93 93 94 95 95 94 93 92 91 91 94 96 94 95 93 96 97 91 96 91 78
81 75 88 88 85 84 86 83 80 83 78 70 90 75 79 87 85 86 87 88 88 91 92 92 93 94 81 77 79 87 92 92 91 93 97 94 95 97 93 90 95 84 82
76 80 92 97 93 91 92 86 84 83 74 66 69 63 68 80 98 97 92 90 87 87 88 91 91 82 84 84 88 89 92 93 93 94 93 97 94 95 90 89 94 94 81
63 78 82 90 93 89 88 88 84 81 74 67 71 74 72 79 83 86 88 88 79 73 75 73 77 83 88 87 88 88 89 86 89 90 93 96 96 92 98 90 90 88 87
68 84 92 84 93 87 84 90 82 85 80 72 74 95 72 86 84 88 88 83 77 77 80 80 81 84 86 86 85 88 86 88 85 84 89 93 94 93 91 90 89 90 85
82 94 98 93 90 92 92 84 91 88 87 79 77 82 84 97 84 85 87 88 85 84 85 86 85 84 86 90 89 89 85 86 88 90 88 85 84 84 92 95 86 90 87
87 94 96 94 94 94 94 95 95 93 89 87 84 80 82 76 85 86 91 95 93 89 91 90 92 91 92 96 94 91 88 94 98 96 95 88 77 77 80 76 81 78 84
90 93 94 93 95 91 92 94 95 95 93 90 91 92 86 76 78 86 97 96 97 94 92 94 93 93 94 96 96 97 95 64 84 85 98 89 80 78 77 73 76 72 72
95 93 94 93 95 94 92 93 96 95 95 93 94 93 87 81 77 78 82 87 94 94 92 93 96 95 96 97 81 53 30 29 38 38 100 85 84 82 82 74 79 72 72
93 91 94 94 93 95 96 92 96 95 95 94 94 94 90 83 79 80 82 85 85 86 89 88 93 96 97 90 79 37 27 26 26 34 95 89 86 82 86 79 80 73 71

GFSGL_925_rhum_018.txt.gz
RH
42 44 43 42 42 44 57 63 65 62 58 60 67 71 82 85 79 70 75 81 82 78 80 90 97 80 71 69 59 54 66 70 78 66 50 42 39 44 44 47 62 50 40
42 42 39 39 40 49 57 64 61 57 57 56 52 53 58 64 67 70 60 61 72 69 64 62 65 60 54 51 49 48 48 47 48 53 45 41 39 36 36 36 37 42 40
40 37 37 40 44 48 52 59 58 54 48 44 40 37 38 39 39 41 41 53 53 51 52 54 52 51 50 50 50 51 52 50 49 51 50 44 41 38 36 35 36 37 39
38 38 39 40 42 47 52 56 53 48 42 37 36 38 39 41 42 47 54 58 59 57 56 55 54 52 50 51 56 58 58 57 58 56 53 48 43 40 39 39 39 36 36
37 37 37 38 43 51 56 56 50 43 36 37 39 41 42 43 48 48 53 61 64 63 60 58 56 52 50 49 49 50 53 55 59 62 62 59 55 50 52 55 55 54 52
40 41 38 43 52 55 58 54 48 36 37 38 42 43 44 47 52 58 65 71 74 73 70 65 63 60 53 52 54 52 49 52 60 63 64 65 66 63 62 63 64 66 79
43 41 40 54 53 55 57 49 48 38 39 41 43 44 50 58 63 80 81 78 75 71 71 69 67 64 61 61 74 76 85 85 81 80 86 81 75 69 67 68 71 76 78
32 33 41 46 55 51 52 49 41 41 41 43 45 51 58 64 65 72 81 79 73 72 76 69 73 77 75 71 72 80 80 79 79 80 92 93 90 85 82 87 90 93 87
31 47 55 65 48 56 55 61 43 42 42 47 52 62 70 74 73 87 96 90 85 78 74 82 80 74 73 80 89 95 90 86 80 76 91 93 85 86 90 96 92 86 81
45 64 66 74 79 80 85 69 43 44 47 61 70 79 83 77 80 79 97 94 91 88 85 84 82 82 97 98 97 96 97 92 85 84 84 77 73 74 73 76 95 96 84
55 62 68 77 97 90 83 50 47 50 51 69 76 76 72 72 76 94 95 97 96 92 92 88 88 96 97 97 96 96 98 96 95 91 88 87 84 84 86 86 81 95 98
55 61 75 89 100 67 56 53 47 47 62 75 76 72 72 71 74 74 96 88 84 98 97 97 96 93 97 97 96 96 96 94 93 96 98 99 98 98 97 96 94 96 96
60 64 70 72 64 64 61 45 44 55 70 73 73 70 70 74 73 82 83 83 90 96 96 97 97 96 96 94 96 96 97 95 97 97 96 96 93 85 87 88 87 88 89
63 61 58 55 54 51 54 49 56 62 74 72 72 73 76 81 78 85 91 92 94 94 93 92 97 93 95 95 95 95 95 96 94 97 95 95 96 96 94 89 99 87 90
71 70 67 70 66 68 61 60 62 71 73 76 76 78 88 89 83 84 92 95 97 94 93 96 94 95 96 95 94 92 95 91 94 95 96 96 95 94 93 92 92 80 84
82 78 74 73 73 69 69 69 70 75 81 81 86 83 82 89 84 82 84 85 92 95 94 96 96 96 96 96 96 95 95 96 96 96 95 94 98 98 98 97 98 92 87
79 80 74 77 89 82 82 82 88 83 76 80 93 91 89 87 83 82 84 85 97 94 95 96 96 96 93 88 91 96 97 96 94 97 95 95 91 94 98 97 99 95 91
74 74 87 97 94 79 80 80 92 92 87 83 81 85 80 79 80 92 92 83 89 93 91 96 96 95 90 92 93 97 98 96 92 94 96 96 95 98 97 94 95 100 99
64 70 73 78 81 79 77 84 91 89 84 81 74 78 80 67 84 94 90 85 90 81 82 86 88 90 93 94 94 93 97 96 93 90 96 98 98 97 94 92 92 91 93
62 66 70 75 79 94 87 89 90 93 88 86 79 93 82 60 88 88 87 93 84 82 84 88 89 90 90 92 93 93 95 96 96 95 93 98 98 96 97 94 95 96 94
66 78 88 88 77 96 84 91 94 93 92 90 87 94 86 71 96 90 90 91 92 84 88 84 94 87 90 89 92 91 95 94 89 94 92 100 98 90 96 92 92 95 88
77 76 89 94 94 93 93 84 85 96 96 93 93 89 87 91 95 85 93 94 85 89 90 88 89 91 94 90 98 93 95 85 77 89 85 94 97 80 91 86 89 77 88
78 82 87 87 89 92 95 88 91 92 94 94 85 92 92 88 87 86 89 85 87 88 96 85 91 94 89 87 94 93 99 73 60 73 84 94 98 82 85 82 83 86 74
73 81 86 92 93 92 92 90 93 88 94 95 92 91 90 93 85 82 85 90 90 84 94 91 86 95 94 92 88 54 48 33 36 38 85 98 94 84 84 86 73 89 74
82 90 87 91 92 93 94 93 95 90 90 93 94 92 94 90 90 85 83 85 90 86 93 92 87 91 90 90 98 60 32 27 26 38 77 97 86 87 73 89 78 82 75
76 86 90 79 88 89 92 94 94 91 91 90 93 94 92 94 88 85 85 84 86 90 82 92 87 92 85 98 89 40 28 25 24 54 89 91 85 90 72 85 82 81 80

GFSGL_925_rhum_021.txt.gz
RH
43 42 42 39 38 46 52 54 51 48 56 58 53 49 40 44 44 51 48 46 56 70 67 57 59 66 73 67 64 61 64 68 87 72 61 50 44 44 44 49 56 69 79
43 41 37 37 39 47 47 50 52 56 57 49 43 38 37 39 41 42 46 56 55 55 53 50 45 48 55 53 54 53 51 50 54 64 58 51 48 43 41 38 37 45 54
41 38 39 38 40 44 48 52 56 55 52 44 37 37 40 41 42 46 51 54 54 55 57 58 56 50 56 56 53 55 58 59 58 60 62 55 52 48 43 41 39 38 33
38 38 39 44 42 47 51 54 56 54 48 38 37 38 41 42 48 48 48 53 57 63 68 68 65 63 62 64 69 61 53 53 54 53 54 60 61 57 56 60 57 55 57
42 41 45 48 48 50 55 63 58 52 45 38 38 40 43 48 50 52 59 71 74 70 63 64 70 73 73 67 69 77 70 62 57 57 64 65 64 62 64 67 67 66 59
31 35 45 51 55 61 72 64 84 49 40 40 40 42 48 53 60 65 69 70 72 70 64 57 71 76 70 74 76 83 82 94 94 72 69 72 71 69 68 68 70 73 85
32 43 51 55 58 68 77 90 91 46 41 41 42 52 53 61 67 68 71 80 88 79 71 69 65 71 77 74 74 76 77 71 69 79 90 86 82 79 80 79 79 78 78
40 58 62 64 68 69 83 99 80 54 50 46 53 60 67 71 69 68 86 94 96 92 86 80 78 82 83 86 87 92 85 81 81 76 80 81 86 87 95 93 90 98 98
56 64 66 72 80 87 95 94 90 54 56 53 57 66 68 61 66 86 87 89 90 87 80 83 85 86 87 96 100 94 90 90 93 96 93 92 90 89 90 98 98 96 87
56 59 65 69 88 90 89 69 54 60 57 62 71 69 70 74 84 85 96 98 93 92 95 94 91 92 97 96 97 95 100 91 94 91 82 76 72 69 66 71 82 95 92
57 59 64 73 72 75 80 77 62 58 67 71 66 69 68 73 71 84 96 94 95 99 98 94 96 96 97 97 97 97 98 96 97 96 90 86 87 88 89 93 94 95 98
60 62 62 62 60 64 64 58 59 59 65 68 67 69 67 67 69 87 88 84 86 97 99 97 96 98 98 97 95 96 97 97 96 96 96 96 96 97 96 95 98 98 98
65 67 65 63 64 61 56 55 59 65 71 74 72 71 73 76 71 78 87 91 94 95 97 97 98 98 98 95 96 96 96 97 97 97 97 97 96 97 98 96 90 92 97
71 73 74 74 75 68 63 61 65 71 74 76 74 76 77 77 79 94 92 88 91 96 86 95 95 94 95 96 93 94 96 95 95 96 97 96 95 92 91 96 98 97 88
71 77 80 71 72 73 73 73 75 76 77 79 81 85 82 83 86 90 87 91 94 95 89 92 93 94 96 96 96 95 94 95 96 96 97 99 98 94 95 95 100 98 97
72 78 79 74 86 84 76 72 70 72 75 82 84 89 89 87 92 84 83 86 92 94 84 98 97 96 96 95 96 97 96 96 96 97 98 98 98 96 99 93 90 97 98
74 74 73 78 96 83 81 79 82 73 77 75 85 92 95 88 83 87 88 82 84 85 94 97 97 98 99 97 99 100 100 97 95 96 96 97 97 96 100 98 94 94 96
73 73 70 74 78 83 82 80 86 88 87 80 83 85 90 86 80 87 91 78 77 79 79 93 98 96 98 99 100 100 100 98 96 93 95 97 98 98 99 99 96 98 97
77 69 71 68 72 82 83 88 82 82 88 84 83 92 93 84 66 80 88 92 85 83 81 84 96 95 90 95 94 91 98 96 90 91 93 98 99 98 96 97 96 96 89
77 71 71 68 77 80 79 92 80 91 89 75 86 95 94 83 73 82 90 90 84 84 87 78 91 96 90 87 94 92 91 74 80 83 89 94 98 97 98 98 90 97 81
80 78 75 77 71 86 89 82 88 80 80 88 90 97 92 86 88 91 88 91 86 85 88 86 80 91 90 84 97 94 94 67 55 71 88 93 95 94 90 89 94 80 86
79 78 74 75 79 85 94 94 83 79 91 94 97 81 88 93 96 94 84 82 83 83 92 95 81 89 90 82 91 86 83 60 43 49 78 95 93 92 87 84 86 86 76
76 77 73 76 74 77 89 92 94 86 95 84 87 90 92 94 96 91 85 83 82 85 84 90 88 84 90 83 89 87 56 46 40 46 83 99 95 90 85 86 84 86 77
75 73 73 69 73 85 93 94 92 94 84 85 92 97 98 97 93 92 84 86 89 90 89 91 92 82 87 82 94 94 54 30 30 40 90 98 94 86 79 85 82 81 80
94 83 80 83 76 84 91 90 86 88 97 82 87 92 96 94 92 86 84 85 82 84 83 88 89 85 86 88 95 90 35 26 26 56 87 83 86 86 73 84 81 79 78
88 89 86 88 81 76 72 85 89 84 81 81 84 94 91 86 95 97 94 94 88 84 87 82 90 87 85 85 95 69 30 27 25 68 89 93 77 68 85 75 76 76 78

GFSGL_925_rhum_024.txt.gz
RH
38 41 42 40 38 40 44 47 52 53 50 54 51 46 38 38 39 42 44 50 56 59 54 53 51 51 54 48 45 50 67 74 84 66 62 54 51 50 45 43 45 54 76
38 41 40 38 38 40 48 49 53 56 55 53 53 40 37 40 42 43 48 57 54 52 55 58 61 63 60 55 53 62 69 60 68 73 63 57 54 51 48 47 43 43 50
39 43 41 40 40 43 48 50 56 60 61 82 49 38 38 42 43 46 48 49 53 61 67 67 62 56 58 63 68 72 71 67 66 65 64 59 55 50 53 53 50 54 50
36 32 38 45 53 54 53 56 61 78 88 80 44 38 41 44 45 50 52 58 65 66 65 62 54 62 76 78 80 82 86 84 77 70 67 63 61 55 55 59 63 58 60
30 37 46 45 46 52 58 65 75 87 89 95 47 41 44 47 53 57 63 64 63 70 74 70 64 68 68 70 89 92 98 94 96 92 81 72 67 63 61 63 69 69 59
31 48 54 55 60 62 66 65 84 88 86 68 53 50 54 59 64 68 71 74 81 89 89 82 76 77 70 78 85 86 83 93 98 98 97 92 77 71 70 68 76 81 89
48 58 58 56 57 62 69 89 94 98 90 96 57 57 64 72 72 71 79 90 98 98 93 90 86 79 79 86 85 92 89 86 87 85 90 88 86 69 69 80 85 89 86
57 58 58 60 62 82 80 98 99 97 73 63 65 70 63 60 70 87 94 88 90 89 82 75 82 88 90 92 95 97 93 88 85 93 90 84 82 82 86 90 96 98 97
53 55 58 63 70 78 96 77 81 78 66 62 70 64 66 75 91 90 96 93 87 79 77 90 90 92 94 95 96 98 96 80 75 85 89 98 98 98 100 100 100 99 93
57 59 61 67 68 77 85 86 86 71 69 72 66 65 66 69 67 86 84 92 90 97 97 92 94 96 98 99 98 98 100 94 92 89 84 81 74 71 70 77 84 92 88
60 62 63 63 62 61 72 74 73 73 73 68 68 68 68 69 68 81 84 89 94 98 97 97 97 100 99 97 96 94 96 96 94 98 95 92 93 95 94 95 94 92 98
64 67 68 69 65 59 58 62 66 67 69 73 72 70 73 73 68 84 88 86 88 96 100 98 98 98 98 97 95 96 97 96 97 97 97 96 96 96 95 96 97 100 100
68 72 73 75 74 68 62 64 69 72 74 76 73 76 78 76 69 81 90 93 87 98 98 98 97 99 99 95 96 95 94 95 95 94 96 96 97 97 97 96 92 94 95
72 71 73 76 71 73 69 73 74 76 77 78 80 85 84 81 73 89 97 90 90 91 83 87 88 91 94 95 94 95 96 96 96 96 96 96 95 95 96 98 98 99 95
73 73 71 76 80 85 79 80 78 74 81 87 85 89 89 87 83 96 88 92 86 86 76 84 88 93 97 96 95 95 95 96 96 96 96 96 96 96 97 96 97 97 99
80 76 75 69 78 92 82 76 73 75 80 82 85 92 91 90 94 89 89 85 81 84 82 97 97 98 99 100 100 99 95 98 97 96 96 96 97 97 97 93 91 97 98
92 87 74 75 81 89 86 76 75 74 72 72 80 88 94 90 88 85 90 86 82 76 78 93 99 100 99 100 100 100 100 99 92 95 96 96 96 97 98 98 97 93 97
97 90 83 72 71 73 82 88 86 87 86 83 77 86 90 91 84 85 90 76 80 78 78 86 100 100 92 99 98 100 97 80 85 91 95 96 96 98 98 98 99 96 95
81 84 74 74 73 74 78 90 96 76 86 88 79 88 93 94 77 74 76 86 83 83 86 80 91 97 88 92 95 91 86 57 70 87 95 95 95 97 97 99 97 90 80
80 84 79 74 78 74 71 82 86 87 85 72 80 89 95 98 86 83 84 92 88 84 86 88 82 90 87 78 91 87 81 50 49 79 92 95 93 96 97 97 94 89 87
83 88 86 86 80 81 92 94 90 89 70 79 90 96 93 94 91 94 92 89 88 84 85 91 86 83 90 78 75 64 51 43 40 48 89 95 94 91 94 84 93 78 80
89 87 79 78 73 76 76 81 88 97 86 85 88 85 93 92 96 98 95 90 87 84 84 86 91 81 86 86 83 91 62 37 32 37 83 95 93 83 95 80 89 77 71
88 79 74 75 74 73 76 86 93 95 94 92 79 89 96 98 97 96 94 87 86 90 91 88 91 88 82 82 83 94 84 40 33 42 87 95 93 83 90 82 87 83 76
90 85 80 76 77 80 75 86 91 94 97 97 94 85 88 91 95 94 92 88 87 87 89 86 91 89 82 78 78 91 74 32 28 50 90 89 87 85 78 82 80 80 76
97 98 98 96 90 93 82 76 78 88 92 96 94 84 87 93 98 96 99 92 90 90 86 85 88 88 88 80 74 87 53 30 27 64 84 86 74 75 72 79 75 75 74
97 96 88 89 94 97 93 87 75 75 83 84 85 78 79 82 84 88 88 90 93 93 89 88 86 91 90 82 86 87 46 30 26 51 75 85 76 52 87 81 67 81 80

GFSGL_925_rhum_027.txt.gz
RH
38 39 42 44 44 43 44 44 48 54 67 62 66 65 73 47 40 41 42 43 49 56 57 54 53 60 61 59 56 55 59 65 87 78 68 60 60 54 51 49 46 45 46
42 47 47 44 42 44 52 54 60 67 67 62 73 82 85 56 43 42 42 49 56 54 56 64 64 62 56 52 59 70 74 75 82 82 76 68 60 57 54 50 44 44 48
40 34 32 34 36 39 38 40 48 54 61 66 82 86 76 51 44 45 53 54 56 66 68 65 65 59 56 59 71 80 86 92 92 91 84 74 66 60 55 50 49 52 58
29 29 35 44 47 48 53 56 58 60 67 80 92 75 70 65 51 56 56 62 67 67 70 76 74 70 68 75 70 73 96 96 98 98 96 86 72 62 62 57 58 57 49
30 38 49 52 48 47 48 50 65 81 94 100 98 84 74 62 59 61 68 72 77 83 87 87 85 86 86 79 75 79 84 90 96 96 95 95 86 74 68 64 69 65 60
33 48 52 47 52 57 64 71 82 100 100 93 95 78 68 62 67 70 88 92 90 99 100 98 94 85 83 79 85 87 88 92 94 94 92 93 90 80 79 78 79 82 90
45 52 50 59 60 62 76 89 98 92 89 86 84 70 67 62 68 76 87 86 87 93 94 82 80 83 86 91 94 92 93 98 96 98 98 96 95 87 83 82 80 87 88
52 53 58 59 60 64 85 95 98 98 88 80 75 68 64 65 85 91 94 86 83 77 75 85 94 96 96 93 97 97 85 78 87 90 90 95 98 92 91 91 92 93 95
54 57 59 61 67 70 78 88 87 88 83 77 72 64 63 66 69 85 86 86 85 80 89 89 95 94 97 98 97 96 94 89 81 92 92 92 96 97 98 98 97 98 96
57 58 62 64 63 63 66 82 88 86 75 73 66 67 69 68 70 84 85 87 86 98 86 91 98 98 99 96 96 97 97 91 93 87 83 86 88 81 73 75 87 100 94
58 61 65 66 68 64 66 78 81 78 74 68 70 70 72 73 69 87 87 86 92 95 97 97 96 98 94 99 98 96 98 98 98 98 97 96 96 96 95 93 85 83 96
63 68 70 72 72 66 59 65 71 70 70 73 74 74 78 77 69 79 95 91 89 99 97 95 98 93 97 98 96 97 98 95 95 94 94 96 96 97 97 98 98 98 98
70 73 73 73 76 74 68 69 72 72 74 77 77 84 84 82 72 81 93 97 91 90 86 94 95 96 98 96 99 99 92 95 96 96 97 97 97 96 96 97 97 96 97
78 78 78 72 72 79 75 76 75 76 78 82 86 88 90 86 76 87 98 93 83 92 75 79 80 78 82 93 92 93 94 96 97 98 98 96 96 96 96 97 97 99 99
76 88 96 79 72 87 83 84 79 78 84 91 88 91 93 90 82 96 89 89 81 87 74 77 83 87 88 97 92 94 93 92 96 96 98 96 96 96 96 96 97 97 97
87 93 97 92 74 89 95 84 76 76 82 86 82 83 89 92 89 89 89 89 84 74 73 87 92 94 94 100 100 100 96 89 92 96 96 96 96 96 96 96 97 97 98
84 94 98 96 91 79 84 96 86 73 74 79 79 82 93 96 95 88 89 84 80 78 74 88 92 94 89 100 100 100 96 68 81 94 96 96 96 96 96 96 95 96 96
92 92 97 95 96 82 74 70 87 91 81 82 80 80 87 91 92 87 87 77 78 78 84 81 92 90 86 94 98 97 79 50 74 94 94 95 96 98 97 98 96 90 81
96 88 90 92 82 85 77 75 82 95 81 86 75 79 89 96 95 83 81 81 88 83 86 88 83 91 87 75 88 76 71 46 56 87 94 94 94 95 96 98 91 91 82
99 97 89 86 83 88 94 80 75 81 89 77 69 80 95 98 93 92 91 90 89 87 85 89 90 83 86 75 67 64 47 37 37 56 93 93 90 93 95 94 94 83 80
100 97 87 90 80 76 81 90 97 98 96 84 80 84 93 100 92 96 95 96 92 88 84 85 89 86 83 82 74 78 64 42 36 39 87 92 90 83 92 88 92 75 72
100 97 93 86 78 78 76 78 80 85 92 96 90 88 88 97 98 96 96 93 91 89 89 89 90 92 83 82 74 82 75 42 32 34 72 89 89 78 90 84 87 80 74
100 98 95 80 74 73 76 76 77 90 96 94 90 90 90 90 95 97 93 92 88 87 91 92 89 93 88 79 72 82 80 41 28 35 80 86 82 80 82 83 83 81 76
99 98 97 92 86 84 83 85 81 81 85 92 94 98 97 85 89 94 95 94 89 85 88 89 87 90 91 86 75 74 76 37 28 41 82 88 76 76 76 80 75 77 72
99 99 98 96 95 96 97 93 95 91 78 77 92 93 90 82 83 86 90 90 92 88 89 90 87 90 89 89 78 80 78 38 30 42 69 80 86 57 86 73 64 79 76
100 99 99 98 98 95 96 98 95 94 90 78 75 80 85 84 81 74 79 85 89 90 89 90 88 89 87 89 85 89 74 44 32 31 56 69 74 55 81 87 75 78 86

GFSGL_925_rhum_030.txt.gz
RH
41 46 49 47 40 33 36 37 32 34 42 50 66 66 72 70 76 65 54 46 47 54 60 60 58 63 63 60 58 53 60 74 90 78 75 73 63 62 62 55 55 52 50
41 45 33 31 31 35 38 44 50 47 47 53 68 72 74 83 76 62 56 54 61 61 57 65 64 62 66 63 58 61 71 73 94 92 88 88 84 70 63 58 53 49 45
30 29 29 35 42 43 42 42 42 49 66 76 86 93 95 67 69 74 68 65 58 66 68 69 70 77 79 76 69 79 75 82 95 98 91 92 88 78 71 63 55 51 50
28 32 40 46 46 44 45 46 49 60 76 91 90 95 97 80 79 76 63 66 72 73 74 83 90 94 91 90 93 95 82 85 88 89 89 94 93 81 77 72 63 57 57
30 39 51 51 48 48 49 57 66 84 99 93 98 91 88 70 66 69 72 73 81 82 91 98 94 96 90 88 84 86 89 93 96 91 87 84 83 88 85 88 79 68 69
36 52 55 48 49 53 58 73 80 89 84 96 94 82 70 69 74 68 73 80 76 78 86 88 79 83 83 84 87 87 87 94 98 97 90 88 83 86 80 84 90 89 79
45 55 48 52 56 62 68 92 80 96 97 96 83 72 69 64 65 70 75 75 78 80 80 79 91 85 90 94 94 94 91 94 96 94 97 96 97 97 92 95 94 90 88
52 48 52 59 65 68 70 89 96 84 93 87 77 70 65 64 62 72 88 87 83 78 81 87 96 96 93 95 97 97 97 90 93 96 93 92 93 88 97 98 98 96 94
48 54 59 65 64 64 64 65 81 98 100 82 75 66 65 63 62 74 86 86 81 80 86 86 97 94 96 97 95 99 95 95 92 97 97 96 93 94 95 97 99 98 89
55 59 62 64 66 66 64 66 81 94 86 81 71 68 68 67 66 84 88 89 86 96 91 89 92 95 94 95 97 96 98 95 100 97 97 95 96 95 93 96 92 97 97
62 62 65 67 69 70 64 66 81 86 81 72 70 71 70 74 70 77 92 91 93 98 91 93 93 96 92 93 97 96 98 96 98 98 98 96 95 97 96 96 94 85 94
66 69 73 72 73 77 74 69 74 79 74 72 75 74 78 80 75 74 96 94 91 93 86 86 94 90 88 94 96 99 100 92 94 97 95 98 97 97 98 97 98 97 96
68 75 79 81 85 73 75 75 77 75 73 74 79 82 86 86 78 78 95 99 85 90 86 90 94 91 83 82 97 98 89 95 98 100 100 100 98 97 96 96 96 97 98
69 71 77 86 91 73 85 79 78 75 75 79 86 90 90 92 82 80 97 94 82 86 66 76 76 70 68 79 77 84 88 91 99 99 99 96 95 96 96 97 96 98 98
82 84 85 94 98 76 85 83 88 85 82 86 91 92 95 92 86 88 92 90 84 86 58 69 74 76 72 86 84 88 84 72 90 95 96 98 96 95 96 96 97 97 97
96 90 88 96 98 85 89 94 95 90 80 90 89 89 83 90 90 96 88 91 85 76 65 79 87 86 80 93 96 91 67 58 82 97 95 98 99 99 99 95 95 98 98
99 98 97 98 98 97 90 77 80 71 75 79 81 78 80 88 97 96 88 82 75 74 77 78 86 91 87 83 93 87 86 48 78 95 96 96 96 95 97 100 98 93 95
100 99 98 96 97 97 97 83 74 71 83 86 73 84 78 89 98 97 91 82 78 78 82 86 84 84 88 78 85 79 61 39 49 88 93 92 94 96 97 99 95 97 88
100 98 98 98 97 94 97 98 88 73 79 91 84 77 76 88 99 99 93 87 86 84 81 84 88 85 81 82 72 63 50 39 39 58 92 92 90 95 93 95 92 78 78
94 92 99 98 96 84 88 97 97 96 91 88 83 71 77 95 100 95 96 95 94 89 85 82 82 88 83 81 74 79 64 37 31 34 78 89 87 86 94 92 96 85 77
94 100 100 98 95 88 92 84 81 86 95 96 96 92 88 94 89 97 94 93 94 92 89 86 85 86 88 80 77 76 80 56 35 34 61 84 85 78 88 87 92 84 77
99 95 98 98 96 89 83 78 79 81 82 89 90 88 93 97 91 93 96 94 92 93 88 89 90 88 88 86 76 70 76 57 33 29 57 78 75 75 77 83 84 82 77
78 91 98 98 98 92 80 77 76 76 78 83 87 92 93 95 93 86 88 94 94 92 84 87 89 89 87 88 83 71 71 62 35 27 53 79 74 68 75 82 79 78 75
85 84 97 98 98 97 96 93 92 93 93 87 84 87 90 91 96 90 80 87 93 90 86 86 87 88 87 90 88 77 74 72 38 30 49 77 77 65 69 75 63 77 73
100 100 100 99 98 98 97 95 96 96 97 97 96 86 79 89 91 82 77 83 92 92 88 86 88 88 86 90 88 82 84 80 44 34 42 62 77 70 64 86 74 75 81
94 98 99 98 99 98 98 98 97 97 98 96 96 95 84 78 80 83 82 78 79 82 85 89 88 89 88 88 85 83 88 80 52 34 34 48 68 70 63 89 85 75 78

GFSGL_925_rhum_033.txt.gz
RH
44 47 45 35 30 29 33 34 35 38 40 48 73 79 88 85 93 92 86 77 71 68 71 72 68 68 69 68 67 63 60 59 57 50 50 52 59 62 62 60 58 59 55
39 33 30 28 30 34 36 38 42 47 62 76 83 88 92 97 98 84 73 75 72 72 68 70 70 70 70 68 68 66 64 63 64 59 54 56 58 63 65 66 67 60 54
30 28 28 32 37 41 44 47 50 72 82 93 97 100 98 85 85 81 74 71 72 73 76 76 74 75 73 69 70 69 67 75 73 68 67 55 53 66 74 65 63 61 60
27 28 34 44 47 49 51 52 53 70 93 97 97 100 93 93 83 77 71 76 82 82 82 82 81 78 74 70 75 78 80 81 72 69 61 59 58 59 72 68 66 60 59
30 35 50 52 50 53 54 53 58 81 91 97 99 100 87 75 74 84 86 84 79 72 71 69 69 77 85 82 76 72 75 74 79 75 68 61 55 55 59 62 72 72 72
35 41 56 50 54 54 56 68 83 93 96 97 98 82 78 80 69 66 73 79 71 66 64 64 67 73 73 84 88 91 90 83 79 74 67 75 63 64 62 67 70 72 69
38 54 52 54 54 58 73 83 84 94 92 97 93 80 78 83 63 60 62 77 73 70 69 71 72 72 82 81 81 85 95 94 95 96 90 75 66 66 64 72 77 73 60
50 52 53 56 60 70 74 74 78 93 99 100 89 79 76 68 61 61 63 74 75 73 74 77 76 79 82 86 94 82 81 80 86 97 98 89 84 88 84 75 81 92 75
52 53 58 61 72 74 73 74 77 88 100 98 89 82 71 70 63 64 74 85 84 81 83 80 82 80 91 93 89 90 79 73 87 82 91 95 96 97 94 93 83 87 72
56 63 65 70 72 76 76 75 80 97 100 94 84 75 71 69 68 66 86 87 89 84 80 77 84 90 94 94 93 91 88 81 80 82 79 81 95 97 96 99 88 76 65
67 68 71 74 74 74 76 78 76 84 92 89 76 73 75 75 81 69 83 90 88 84 80 75 75 92 88 90 93 93 97 98 94 91 87 80 80 85 91 98 99 95 75
71 69 68 80 79 82 80 76 79 85 88 84 77 80 84 78 80 78 79 96 93 87 87 81 84 89 90 91 89 93 97 97 95 92 88 84 86 89 90 96 100 99 100
68 76 68 76 82 87 81 77 78 82 83 83 82 84 82 94 94 79 78 86 97 88 92 80 90 87 83 83 91 96 97 92 94 90 89 89 96 100 99 99 97 97 97
81 82 81 82 81 94 87 80 80 83 84 82 81 82 84 91 96 92 92 96 96 89 87 75 73 78 72 84 83 84 84 86 98 96 94 95 98 98 98 99 98 99 99
88 88 89 88 92 96 91 83 84 90 93 83 80 90 95 90 91 88 92 92 90 88 76 84 76 79 69 72 75 77 70 72 89 100 96 94 93 92 92 97 98 96 95
97 93 93 97 97 99 93 86 88 88 89 85 84 91 96 86 87 93 96 91 86 80 78 83 80 85 80 70 76 74 72 68 86 98 98 96 95 94 92 89 91 92 92
100 100 100 100 100 100 100 97 87 80 67 72 78 78 82 83 86 94 97 93 88 80 82 81 91 88 84 72 71 72 67 70 76 97 100 99 100 95 91 87 87 84 81
99 98 100 100 100 100 100 99 99 95 86 79 75 80 83 81 83 98 99 95 93 90 87 84 88 92 87 74 71 72 71 73 72 77 100 100 100 98 92 90 87 86 78
88 99 100 100 100 100 100 100 100 100 97 91 90 84 78 78 80 97 99 99 95 90 90 86 90 92 90 86 89 91 95 85 63 78 92 100 100 96 92 92 93 94 84
90 95 92 100 100 100 100 100 93 97 97 93 90 86 94 77 95 100 100 100 100 99 99 95 91 93 96 96 95 96 93 89 78 72 82 98 99 98 93 95 94 90 82
90 99 100 100 100 100 100 100 95 95 91 86 86 95 89 99 96 96 100 100 98 100 100 100 100 99 97 96 95 92 92 94 90 74 79 93 98 94 92 94 92 90 83
85 90 97 100 100 100 100 100 98 91 88 89 89 94 84 96 100 100 100 96 92 93 94 96 98 99 98 96 98 97 92 94 93 80 78 88 96 90 90 90 88 86 80
100 100 100 99 100 100 100 100 100 96 93 93 92 94 97 99 100 99 99 88 82 86 94 93 86 84 85 82 84 83 85 95 89 44 42 92 96 90 90 88 83 82 82
100 100 100 100 100 100 100 100 100 99 96 98 100 100 100 98 98 99 89 90 89 81 91 94 88 82 85 86 85 84 76 75 79 47 40 59 96 94 86 90 88 92 88
93 96 98 98 99 100 100 100 100 100 99 100 100 100 100 100 98 86 86 89 87 80 89 94 90 84 84 87 86 87 80 80 81 54 40 49 72 74 84 93 97 86 92
92 98 98 98 98 97 98 99 99 99 99 98 98 99 99 99 99 95 81 83 80 80 79 89 89 84 83 86 85 87 83 82 84 60 36 43 66 94 91 96 99 91 87

GFSGL_925_rhum_036.txt.gz
RH
52 53 50 43 42 42 41 42 43 47 46 48 52 57 58 59 68 89 95 93 66 63 66 63 59 56 52 50 48 46 45 43 43 41 40 41 44 45 46 53 56 52 46
48 43 40 37 39 42 42 44 48 52 52 57 64 64 64 73 78 69 72 76 70 65 60 56 53 52 52 50 48 46 47 48 55 55 49 50 50 48 46 48 58 55 52
34 33 35 39 41 42 45 51 54 55 59 64 65 75 78 81 82 80 75 65 60 60 59 59 57 57 54 50 50 48 51 61 65 67 58 53 51 48 49 51 55 58 54
31 30 34 42 46 49 54 56 56 61 64 64 68 77 83 74 69 63 61 62 60 58 60 59 57 53 53 57 57 55 53 58 61 63 57 56 54 50 49 49 50 52 63
31 32 35 48 54 54 58 58 60 68 68 69 74 79 72 65 65 73 64 60 59 55 51 49 48 57 72 76 72 66 67 66 65 65 64 57 54 51 52 51 46 46 50
34 35 43 55 55 56 58 59 62 66 66 71 71 71 68 64 74 63 62 61 55 52 48 47 51 56 59 72 80 80 82 76 77 78 79 73 63 60 52 66 58 66 54
34 42 52 54 55 53 55 56 57 60 65 75 76 73 70 71 70 61 59 59 56 54 53 54 54 53 61 67 73 81 92 87 96 85 80 74 85 69 63 63 54 54 57
40 47 50 53 52 53 56 57 60 64 67 74 83 78 72 69 65 62 59 63 63 62 60 60 59 58 61 80 81 80 81 75 68 74 84 76 68 70 81 86 80 69 63
43 45 47 50 53 54 57 62 64 62 62 76 81 73 72 70 70 64 65 69 69 70 65 62 65 64 70 85 85 86 80 72 72 71 75 80 84 88 89 82 75 71 71
46 48 50 53 55 57 61 65 64 64 64 83 77 76 76 74 78 70 68 75 80 73 64 63 63 72 85 89 84 80 85 78 69 70 73 72 67 67 86 93 85 81 68
52 55 52 52 57 63 66 64 62 63 66 74 85 80 78 77 76 79 72 86 81 76 69 64 64 77 83 86 87 80 83 82 79 76 81 76 70 71 74 76 89 97 82
58 55 54 57 64 66 64 63 63 63 66 73 89 93 75 83 85 86 81 75 85 86 78 71 78 77 84 84 83 90 89 91 77 84 85 81 82 87 90 94 97 94 94
58 56 58 63 66 63 62 63 64 61 64 68 70 69 68 76 82 91 85 77 90 92 85 82 84 81 77 66 69 83 81 72 75 82 87 83 87 92 95 98 98 97 98
61 60 62 64 62 62 61 68 66 65 69 75 76 74 69 80 83 85 88 89 95 88 82 76 82 70 69 63 66 64 66 65 76 85 84 88 87 85 89 95 97 96 93
65 65 68 67 66 64 62 66 69 71 74 73 73 77 85 90 95 92 80 82 86 81 80 82 72 71 62 55 59 62 62 58 61 79 85 82 85 84 83 85 89 91 93
74 71 68 71 71 71 70 67 71 81 77 77 79 82 83 85 82 83 90 96 94 90 81 74 72 78 75 64 59 60 60 60 57 70 76 75 78 84 84 83 83 85 86
82 86 90 91 91 87 82 85 76 78 91 80 68 72 78 77 82 86 87 98 96 93 84 73 77 77 78 68 60 58 58 62 70 62 72 75 76 74 79 84 82 76 78
88 84 87 88 94 90 85 90 93 84 84 84 91 87 76 78 77 88 96 99 91 95 87 78 77 78 75 67 63 62 66 74 71 66 70 79 80 74 70 72 80 83 74
73 73 78 92 99 98 99 96 99 94 90 87 80 80 91 82 79 80 85 96 84 84 81 74 75 79 76 73 76 82 83 81 84 79 75 78 81 78 70 68 69 70 70
72 74 79 84 92 93 92 95 95 96 93 80 79 80 79 95 98 90 92 94 94 90 83 81 76 77 81 82 84 87 84 80 77 69 71 78 80 78 73 72 70 68 64
74 75 77 84 88 88 91 93 96 98 95 83 79 82 82 83 85 91 89 96 95 91 88 90 86 87 88 91 86 85 84 86 82 76 73 75 83 79 73 72 72 68 62
90 94 96 97 98 98 94 92 95 98 92 89 82 84 85 95 94 88 86 89 90 91 94 94 95 88 87 87 85 90 89 88 90 86 80 81 82 78 74 72 71 72 67
98 99 98 100 100 99 98 98 96 98 98 96 91 91 91 96 94 91 94 93 92 95 99 100 100 100 97 99 100 96 90 86 91 99 82 85 83 80 80 74 72 71 72
99 99 96 92 99 97 96 97 96 96 98 98 98 98 97 97 97 97 95 90 90 91 99 100 100 100 100 100 100 100 100 97 100 100 66 88 85 81 78 74 74 76 74
97 96 94 98 98 97 96 96 96 95 94 95 97 98 98 98 98 98 98 97 96 96 100 100 100 100 100 100 100 100 100 82 77 95 87 91 91 91 85 77 80 75 76
98 99 96 94 94 95 96 94 92 92 92 91 92 94 94 96 97 96 97 98 97 96 99 100 99 93 99 92 87 92 86 82 75 79 69 83 87 82 81 80 81 78 74

GFSGL_925_rhum_039.txt.gz
RH
48 49 45 42 39 38 38 39 38 41 41 40 43 49 50 48 62 72 68 65 63 67 66 64 62 59 56 47 43 41 40 39 42 40 40 42 46 50 49 48 48 48 46
45 47 48 38 34 36 38 37 39 44 43 44 48 52 54 61 64 67 71 76 69 67 59 52 44 43 45 43 42 39 40 39 40 43 48 52 55 53 50 48 48 48 50
47 40 33 33 36 35 34 39 44 45 45 49 50 53 60 65 69 72 67 67 58 53 48 47 47 47 47 45 46 48 46 44 44 52 59 57 54 52 50 49 47 47 49
37 29 26 32 36 36 38 44 47 47 52 52 52 56 62 65 59 58 50 55 52 44 47 48 48 46 47 56 55 55 51 52 54 58 59 57 52 54 53 53 53 53 50
31 27 28 33 39 40 46 50 48 51 56 54 53 57 64 58 53 66 58 55 50 46 46 46 43 46 51 59 64 62 65 64 65 64 60 66 68 66 62 55 62 50 58
29 31 31 34 41 43 47 49 47 49 51 50 55 61 65 58 63 63 60 62 55 47 46 46 46 46 47 54 64 78 78 72 76 90 80 72 60 57 77 79 75 61 59
31 31 32 40 42 42 42 44 45 48 53 55 65 72 65 68 81 71 61 65 58 52 53 52 50 46 52 57 63 62 71 76 85 83 88 82 88 75 66 71 61 76 72
32 31 34 40 41 40 41 44 48 53 56 52 64 76 72 68 82 69 64 69 57 56 57 54 52 53 58 74 71 73 71 68 66 69 78 71 70 66 68 68 78 73 67
33 32 34 36 39 40 42 44 53 53 53 55 65 73 73 74 77 72 68 68 65 63 62 56 58 58 62 67 74 78 67 58 62 56 59 68 77 75 77 82 90 71 74
30 37 35 38 40 41 44 48 54 53 51 54 65 74 81 75 78 80 74 74 75 71 62 58 58 66 71 83 81 78 74 66 58 60 67 68 73 71 76 92 94 94 81
40 41 42 41 41 46 51 55 55 52 55 64 74 80 77 82 79 90 79 80 78 75 70 63 60 73 76 79 83 80 86 81 76 78 82 76 80 77 80 79 83 89 91
45 47 44 44 48 52 54 55 53 52 56 65 76 89 79 80 84 83 80 78 78 85 81 72 76 74 80 82 77 69 69 85 72 69 84 80 80 80 88 88 97 97 98
51 51 48 48 50 53 54 51 51 57 59 67 72 80 78 70 71 93 87 83 76 94 83 80 79 83 77 70 59 62 72 66 65 66 77 77 81 87 83 91 90 94 93
54 52 51 52 53 55 55 49 51 63 70 74 75 76 75 69 69 80 98 96 94 95 95 89 82 74 69 62 64 60 63 64 61 63 69 77 81 84 83 86 91 90 93
53 54 58 62 61 57 53 51 56 64 72 75 81 84 82 82 77 88 95 89 92 95 86 83 75 70 70 65 61 60 61 60 58 60 67 66 62 68 84 83 87 87 90
64 65 66 69 66 63 60 64 69 70 72 73 73 72 67 80 79 82 77 76 80 93 88 77 72 79 77 76 65 62 63 64 64 67 64 65 66 65 65 81 80 79 82
74 72 72 76 80 83 86 80 81 77 83 85 84 80 69 65 75 84 87 87 96 98 93 77 75 78 78 72 64 61 61 65 78 69 69 72 72 70 68 66 77 80 76
72 73 76 70 71 77 84 83 82 82 87 88 90 94 92 85 72 73 84 95 94 98 85 75 73 77 77 68 62 63 68 75 76 74 75 77 78 73 69 63 62 65 65
70 68 68 74 82 85 90 99 96 91 87 89 84 85 90 90 85 80 83 89 84 94 90 90 88 77 72 73 73 84 90 84 84 86 79 78 81 77 70 66 68 66 64
58 61 65 72 80 84 91 90 87 86 86 92 94 84 85 86 99 99 91 88 91 87 90 89 88 78 77 79 86 91 93 94 89 81 75 78 81 79 72 69 69 67 60
61 67 74 86 99 90 90 97 94 86 85 89 93 91 88 88 86 87 92 93 97 92 87 88 92 90 92 93 89 86 88 87 88 87 81 79 83 87 76 70 67 66 63
73 78 88 99 99 99 99 94 99 95 90 86 89 91 96 94 89 88 87 86 86 92 94 91 91 93 94 93 87 90 89 90 94 94 90 84 83 84 86 76 70 69 66
79 89 97 99 98 96 95 91 98 99 96 93 93 92 97 98 98 95 92 90 86 94 93 92 91 90 94 93 93 92 92 88 90 94 92 86 83 82 84 83 76 70 70
86 94 100 97 99 98 92 94 98 98 98 95 95 94 97 98 98 98 97 98 98 97 96 97 97 93 92 96 97 95 96 94 96 94 99 90 86 81 80 74 73 76 74
100 98 99 100 99 95 90 93 94 95 96 97 95 94 94 93 95 96 96 99 99 99 98 97 97 97 92 94 97 92 96 96 96 96 100 96 91 90 88 79 77 76 73
100 100 100 99 98 94 96 97 97 97 97 97 96 96 90 84 84 85 84 88 93 98 99 98 98 96 94 98 98 96 97 97 86 72 86 91 88 86 83 80 77 79 71

GFSGL_925_rhum_042.txt.gz
RH
48 52 46 45 45 46 40 38 41 40 43 43 42 45 49 52 60 62 65 65 66 68 69 65 61 56 53 53 50 49 48 48 54 49 45 46 50 53 57 58 55 52 51
48 48 46 46 44 39 37 39 38 43 45 44 45 48 51 56 62 66 68 72 71 69 62 55 52 50 48 49 48 53 56 54 52 54 52 56 58 56 55 55 55 54 52
44 48 47 44 35 35 36 36 40 45 46 47 50 51 53 59 61 66 65 66 64 57 52 49 49 48 48 49 56 54 57 58 58 61 61 62 60 58 56 60 60 59 59
46 46 40 35 34 36 36 39 44 48 48 51 53 52 56 60 63 59 59 58 55 50 48 47 47 46 48 48 52 57 60 64 67 69 68 66 64 67 70 67 67 65 64
43 35 32 31 37 39 40 46 49 48 50 54 53 51 56 64 61 60 57 55 60 57 51 48 46 47 46 48 52 59 71 76 72 72 74 77 79 68 64 75 90 84 71
36 32 31 32 36 40 42 46 48 46 47 50 52 57 63 64 64 62 58 58 61 61 55 52 51 50 46 53 66 66 68 69 78 91 90 88 80 85 90 76 76 76 73
34 34 32 34 40 41 42 41 41 44 49 54 56 59 69 63 71 73 73 63 61 60 57 56 56 52 54 56 60 63 58 71 72 70 84 97 87 71 72 74 75 76 80
36 33 32 36 40 41 39 40 42 46 54 54 54 63 76 73 70 78 75 66 67 64 61 61 58 56 58 62 64 61 73 75 66 60 68 65 64 65 74 83 86 89 89
37 39 32 36 39 43 42 41 44 49 53 53 54 58 72 74 83 89 78 72 69 70 69 66 61 58 61 64 69 67 81 77 72 64 63 69 73 76 74 92 99 97 90
32 41 44 45 41 41 43 46 51 54 55 53 57 66 74 83 93 85 78 78 74 76 74 69 64 64 69 77 72 78 86 87 80 65 79 82 75 86 83 84 92 97 95
49 46 44 44 45 45 47 50 54 55 55 55 61 70 78 79 89 93 86 78 74 81 82 75 72 79 77 66 78 77 82 78 67 86 80 78 89 84 78 71 84 97 98
54 61 56 55 55 53 52 54 55 56 56 58 65 74 82 80 70 80 82 81 75 76 78 83 81 81 72 83 71 67 65 67 80 70 71 77 82 89 88 83 86 87 88
66 75 72 62 55 51 52 55 56 54 56 64 70 76 84 81 76 83 96 85 82 80 73 78 85 79 86 80 70 61 64 71 72 65 70 73 74 76 80 86 79 79 77
67 63 60 54 54 55 57 57 57 54 60 70 79 80 78 78 70 71 87 94 92 86 81 91 95 74 76 76 70 64 63 64 64 64 64 69 72 70 70 77 89 90 89
64 58 57 64 66 68 64 58 56 60 66 68 73 77 91 94 88 80 76 97 98 98 99 89 78 77 80 72 72 68 65 66 66 68 69 70 72 75 77 74 91 86 88
60 65 68 69 73 75 74 74 66 70 70 72 73 73 71 78 78 76 78 79 80 75 86 90 88 82 85 82 76 73 66 66 70 67 77 74 83 80 78 80 75 83 83
71 74 72 73 73 76 75 78 86 84 81 79 82 86 87 77 76 70 70 81 89 92 100 93 83 88 85 82 76 69 64 65 71 79 76 79 81 84 81 79 76 76 74
63 70 71 72 74 79 75 73 78 88 89 85 79 86 98 88 85 83 75 76 97 100 99 99 92 87 78 79 73 68 69 78 75 91 76 84 83 82 86 78 72 79 78
62 68 71 72 72 74 80 84 84 94 100 96 89 87 94 83 82 92 95 93 98 93 92 100 90 85 88 85 72 74 84 82 80 78 82 88 80 89 80 82 73 70 72
61 61 61 65 74 74 82 91 100 99 96 93 88 88 92 97 94 92 93 98 100 96 88 86 92 82 80 90 86 84 88 82 86 94 94 81 83 83 84 84 76 71 69
72 74 73 70 76 87 98 100 100 100 99 98 89 84 88 99 98 98 98 98 100 99 96 92 90 90 80 77 87 84 83 88 80 83 86 78 88 76 89 86 80 74 71
90 87 86 84 82 84 99 97 99 91 88 97 99 98 87 97 99 99 97 96 96 97 97 98 97 94 84 87 89 90 80 88 83 90 86 91 84 86 89 85 88 76 72
84 90 95 89 86 88 98 99 98 99 97 94 99 98 95 97 99 98 97 97 97 96 95 96 97 98 96 94 88 88 85 91 81 86 89 90 84 88 93 78 83 84 76
79 82 88 98 99 99 99 98 96 93 92 96 97 98 99 97 96 94 97 98 98 98 98 98 97 97 98 97 95 90 94 83 89 95 91 86 86 89 90 86 77 81 77
88 93 97 95 99 99 98 98 97 95 96 97 98 98 98 98 92 86 86 87 86 90 99 99 99 98 97 97 96 95 95 91 87 96 84 86 80 93 88 76 81 79 78
98 98 98 99 99 98 97 96 95 94 97 96 96 96 97 97 97 97 98 90 87 92 96 99 99 99 98 97 97 97 98 95 88 91 89 91 89 92 88 92 85 79 80

GFSGL_925_rhum_045.txt.gz
RH
52 49 49 47 43 43 44 44 43 45 42 43 44 44 46 52 55 56 56 63 71 62 65 63 58 52 52 49 49 50 53 54 63 63 61 62 59 59 57 54 56 55 57
51 50 48 46 46 45 43 42 48 42 43 45 45 47 50 54 57 59 55 61 70 68 60 56 52 50 49 49 50 52 52 50 60 70 68 67 67 62 61 59 61 63 63
51 48 47 46 46 44 42 52 41 42 46 47 48 51 52 56 59 53 63 65 70 57 51 48 49 48 49 49 48 47 48 54 61 68 73 71 70 67 70 73 67 66 71
47 46 46 46 45 41 44 39 42 46 48 49 51 54 54 56 58 56 63 64 58 55 51 47 50 49 48 48 48 49 57 65 69 73 76 76 79 80 78 74 86 79 80
44 46 44 44 41 39 41 44 46 49 49 47 50 53 57 59 62 61 61 59 53 54 54 49 53 52 51 49 53 64 70 70 72 78 84 88 87 87 92 93 80 76 71
45 43 35 36 41 57 58 45 47 49 45 48 52 54 57 63 64 62 64 60 59 60 53 58 57 56 52 56 63 64 67 66 68 80 85 88 86 98 84 74 77 81 81
37 34 35 42 55 46 43 47 44 43 44 48 53 53 56 66 66 66 70 71 68 61 60 61 61 59 57 58 58 58 60 51 67 75 74 82 86 71 67 79 84 90 92
38 37 42 46 46 44 42 46 45 48 50 54 53 53 59 69 74 75 76 78 76 67 64 69 66 64 62 62 61 65 66 34 54 76 78 69 73 82 85 88 93 97 97
45 43 47 51 48 46 49 56 59 53 53 55 54 54 64 72 71 78 86 93 91 70 67 68 70 66 63 66 67 72 54 38 59 77 71 71 75 88 89 97 95 96 90
49 52 57 54 56 54 49 58 57 56 56 56 57 58 60 65 72 82 90 92 82 77 69 73 75 70 70 74 78 70 62 59 73 70 72 63 72 81 74 78 84 98 96
66 69 62 55 45 57 60 58 55 54 55 55 58 63 65 69 73 78 82 85 84 79 71 72 74 80 89 84 73 70 61 72 73 76 74 64 72 70 72 74 78 94 98
67 71 58 60 64 69 62 56 54 54 55 58 58 63 73 76 74 77 78 81 84 81 73 71 68 82 80 69 72 66 66 68 67 78 70 66 69 72 72 73 72 75 82
69 62 71 62 61 60 56 56 57 57 58 58 61 64 69 75 79 78 80 90 96 97 84 77 73 84 78 72 71 73 75 71 68 75 67 66 66 71 70 66 70 79 75
60 61 62 63 60 61 58 62 65 63 61 63 65 70 72 78 79 79 77 78 84 92 91 89 82 90 83 70 79 72 70 64 66 68 68 67 73 80 71 69 84 92 89
60 62 61 62 63 68 72 73 72 71 70 71 70 71 73 78 78 76 86 88 88 92 98 98 97 93 74 72 87 74 70 69 67 70 69 77 76 83 76 75 84 91 87
59 59 59 62 70 72 72 69 68 69 70 74 76 76 79 79 76 92 86 87 89 96 99 96 91 85 78 78 91 81 67 72 68 70 76 80 80 83 80 83 74 82 88
52 53 56 59 64 68 72 75 76 65 68 71 70 70 67 74 84 94 94 92 76 77 99 96 93 85 74 74 92 82 71 70 68 73 79 81 80 86 84 86 79 78 83
57 58 61 63 66 70 72 77 80 84 79 78 74 73 74 75 79 94 94 99 98 93 100 100 95 88 83 79 83 80 74 71 74 71 69 72 86 85 88 82 84 78 76
74 71 67 66 70 73 81 90 96 100 91 92 94 81 75 80 80 88 92 99 98 98 91 100 100 95 89 81 78 83 78 74 78 73 72 81 93 83 85 80 85 78 72
94 92 91 93 95 93 93 98 100 100 99 99 100 99 90 90 94 95 96 98 98 97 97 96 94 90 91 93 83 91 94 82 81 72 83 96 86 86 80 86 91 86 74
81 85 86 89 89 92 96 98 98 100 100 99 97 82 85 97 98 98 98 97 97 97 97 97 96 89 86 93 87 83 91 87 81 78 87 88 82 82 75 93 89 90 76
95 92 86 83 80 82 85 88 96 99 97 99 92 89 87 94 94 99 100 100 98 96 96 98 98 94 91 91 90 89 87 86 80 77 77 82 84 87 80 97 86 87 86
69 88 95 94 94 92 98 96 97 97 98 98 93 95 97 96 100 99 98 100 100 97 97 98 98 97 94 97 96 96 94 87 80 75 78 83 86 87 84 94 84 80 85
99 99 99 97 98 92 92 95 93 99 98 98 97 100 99 98 99 98 94 92 88 93 97 98 98 98 97 97 97 97 96 89 87 83 83 84 89 82 84 92 88 80 83
99 100 99 100 98 97 98 98 97 96 96 95 94 94 90 92 89 95 96 97 98 97 99 100 100 100 100 98 98 96 96 97 97 93 90 90 89 83 86 94 78 78 80
97 100 99 100 100 99 98 98 97 96 96 99 97 94 98 99 99 95 98 87 82 80 94 98 97 97 100 99 99 98 98 97 97 97 94 91 78 73 82 80 87 89 78

GFSGL_925_rhum_048.txt.gz
RH
56 56 52 51 48 48 48 48 50 55 64 60 45 43 44 46 52 54 56 52 58 70 65 63 60 55 52 50 50 50 51 52 60 57 56 56 56 52 56 56 60 61 65
56 52 48 45 49 51 56 58 55 61 60 49 45 45 47 50 54 56 57 51 60 68 65 54 49 49 49 49 52 51 49 50 57 66 65 65 62 56 64 68 66 65 73
53 50 49 53 56 68 58 50 62 59 47 46 47 48 49 54 55 58 56 57 66 69 58 52 49 49 52 52 48 48 50 54 58 67 74 69 71 73 77 79 80 80 61
54 54 56 58 60 48 48 55 50 46 46 48 50 49 51 54 59 60 58 58 65 66 58 51 53 50 50 51 52 53 55 61 67 70 76 79 84 78 84 88 92 78 69
58 56 55 52 46 46 48 52 59 50 50 51 48 50 53 53 58 60 61 61 61 58 55 57 51 55 57 54 53 56 62 66 69 69 81 87 88 85 90 94 81 75 76
54 50 51 50 46 55 55 52 50 49 46 46 48 48 53 54 59 63 64 63 63 60 62 56 56 59 58 57 57 60 62 66 72 72 90 92 88 94 81 77 80 89 85
50 53 49 53 54 50 47 49 52 53 53 47 49 52 54 54 55 64 67 69 69 68 66 63 61 64 63 62 61 62 63 67 58 45 79 82 84 73 88 95 97 100 96
44 46 48 49 52 57 64 61 68 63 53 54 53 55 56 54 59 69 72 74 74 74 75 90 70 70 68 66 66 66 68 70 40 60 84 80 83 94 96 100 98 97 94
57 55 59 68 64 62 77 75 60 61 57 56 56 57 58 56 65 69 72 77 80 89 95 83 70 71 70 68 69 74 76 57 52 64 76 70 74 78 86 91 91 100 90
62 67 68 71 83 86 68 65 60 57 55 54 55 56 60 61 61 65 71 80 86 89 85 80 72 77 74 73 80 82 74 56 64 68 71 70 62 63 67 73 84 99 97
74 82 86 86 71 64 62 60 57 56 57 55 56 56 58 63 65 69 74 81 85 87 83 83 73 74 71 82 86 84 70 65 66 72 72 75 69 62 69 69 68 82 100
74 74 72 64 61 62 57 58 59 59 60 60 59 59 60 61 67 70 74 80 80 88 87 85 85 72 69 93 88 72 74 80 80 74 71 74 69 69 76 69 64 77 85
63 63 60 56 55 59 62 63 63 62 64 65 65 62 62 65 66 70 77 80 82 90 88 88 91 78 70 79 77 72 76 76 76 80 68 71 69 74 76 71 70 75 74
56 56 55 58 59 61 63 62 69 72 68 65 68 68 68 69 71 74 76 79 83 87 93 96 93 91 83 84 88 71 76 74 71 66 71 71 73 75 74 76 79 75 89
55 55 55 56 57 57 54 65 70 70 70 73 69 66 76 78 71 67 77 80 91 88 93 99 98 100 95 91 86 74 83 81 75 70 72 72 77 78 78 77 82 78 90
54 52 52 54 55 54 56 59 58 63 67 68 66 67 65 65 64 75 75 83 92 98 99 98 100 98 95 92 85 77 73 88 74 74 73 76 80 80 85 80 81 80 85
68 69 69 68 67 66 66 73 83 69 70 69 71 70 86 71 71 76 77 90 93 99 99 99 99 94 89 87 86 78 78 87 75 74 71 75 75 82 86 82 84 82 79
83 81 84 89 92 94 97 98 98 97 94 93 87 88 94 90 84 80 80 91 100 99 100 97 100 98 94 90 85 82 74 83 82 72 76 73 73 85 87 81 86 88 82
71 80 85 92 94 94 96 97 95 93 94 95 95 99 86 85 89 91 85 100 100 98 100 100 97 100 94 87 83 82 80 81 85 77 80 73 79 86 87 80 89 90 83
93 89 84 90 89 88 84 84 83 83 87 94 98 99 94 94 91 92 98 100 100 98 99 97 97 97 96 93 86 84 88 85 94 92 85 75 84 88 87 79 92 95 83
70 79 86 96 97 97 95 93 92 93 94 89 88 98 96 97 97 100 100 100 98 100 100 98 97 97 97 96 95 90 89 90 95 92 87 81 84 90 83 81 92 94 87
94 98 100 99 97 97 97 99 98 97 97 94 96 96 99 99 100 100 100 100 100 100 100 99 98 97 96 96 96 95 91 94 95 90 90 82 80 87 86 81 90 87 87
94 100 100 97 100 99 98 97 97 97 98 98 98 98 100 99 98 96 98 99 98 98 99 100 98 98 96 96 97 97 98 95 90 90 88 83 82 85 87 80 90 84 84
93 100 95 100 100 100 100 100 98 98 98 97 96 96 96 100 97 100 100 92 91 92 97 99 99 99 98 98 98 98 97 97 97 95 96 86 82 86 89 83 90 85 84
92 100 91 99 100 100 100 100 100 100 100 100 99 97 96 97 98 92 98 90 88 91 94 94 97 99 100 100 100 99 97 98 97 97 97 96 89 89 91 84 91 87 81
85 100 96 94 100 100 100 100 100 100 100 100 100 99 96 98 95 96 100 92 93 92 90 88 94 97 99 99 93 98 98 98 98 97 96 96 96 96 87 84 84 81 85

GFSGL_925_rhum_051.txt.gz
RH
84 81 80 73 64 62 61 60 63 75 76 79 66 66 50 46 48 54 56 57 54 50 56 64 62 60 55 52 52 52 53 55 62 54 54 56 60 61 44 56 61 65 72
77 77 66 55 54 52 55 58 58 80 78 64 72 51 48 46 47 53 54 56 55 55 58 67 58 51 51 50 52 54 53 51 55 63 62 65 65 52 60 63 61 69 75
75 65 60 58 54 54 55 57 85 69 70 68 52 47 44 46 53 54 56 59 58 60 64 66 57 51 51 54 54 52 51 53 57 67 76 70 66 51 70 74 75 77 67
70 67 62 59 60 59 76 75 64 63 56 49 51 46 46 52 51 54 59 60 60 61 66 62 56 64 64 50 51 53 54 55 61 70 71 73 70 65 82 87 91 85 74
66 67 66 63 66 72 57 59 51 57 60 50 47 48 48 50 51 51 57 60 63 62 62 61 59 64 55 56 59 56 54 64 69 71 77 74 82 86 92 88 87 84 84
75 71 69 67 60 55 56 58 63 54 51 58 56 48 51 51 52 56 59 63 65 64 64 62 63 58 59 60 58 59 61 65 69 78 67 78 87 89 85 87 95 97 85
72 68 63 54 56 60 57 54 58 67 76 75 57 54 54 55 56 56 57 66 67 68 68 67 67 67 82 64 65 65 65 68 73 66 52 66 87 81 90 98 99 99 97
66 64 59 56 56 57 64 79 87 90 82 63 56 53 58 59 57 56 61 70 73 73 72 74 73 91 73 71 72 68 69 71 74 50 57 71 82 88 90 97 99 93 94
68 62 57 56 72 80 84 91 85 70 62 56 56 55 56 57 57 58 65 72 74 74 78 80 92 87 74 72 74 74 74 78 61 56 71 79 77 73 71 83 80 99 90
62 60 74 84 92 91 84 68 63 59 60 59 57 56 56 57 57 60 66 70 75 75 80 85 93 82 74 74 76 75 87 77 61 62 66 67 70 72 65 67 77 99 98
81 85 86 84 72 63 64 63 62 58 59 59 58 57 58 58 58 60 67 72 73 77 82 82 85 84 79 74 79 88 88 78 71 71 73 74 71 72 68 72 73 75 99
72 69 69 66 65 63 58 55 59 61 62 61 61 61 60 61 61 62 65 72 70 81 86 83 82 84 96 82 81 86 92 87 91 89 82 77 72 71 72 74 70 72 77
58 59 58 56 56 58 61 60 64 64 65 66 71 69 64 62 63 63 66 71 77 88 85 83 87 97 97 88 75 87 85 84 82 88 81 72 70 72 73 72 72 67 63
56 55 54 55 53 51 53 56 60 62 69 74 73 72 71 70 69 64 70 72 75 80 85 89 91 95 98 96 91 86 85 82 78 81 76 70 72 73 74 74 78 78 78
62 63 64 66 68 69 68 68 66 61 61 69 76 74 80 71 60 60 65 73 73 76 85 94 98 100 98 96 96 94 89 80 83 86 79 74 74 76 76 77 78 83 86
84 86 84 81 74 75 81 78 76 82 81 82 83 84 83 79 75 74 88 90 79 80 98 100 98 99 98 97 98 96 90 83 77 86 83 78 74 80 78 81 79 84 85
68 71 74 76 86 97 99 100 98 91 91 89 87 85 83 84 90 99 99 98 95 89 100 100 100 98 96 96 96 94 87 80 73 94 85 77 75 81 81 83 82 87 86
59 61 68 72 85 94 94 94 89 85 83 80 70 79 84 94 97 99 100 99 99 100 100 100 98 96 97 96 96 94 89 83 76 82 88 76 82 78 80 82 84 95 93
60 69 81 86 93 98 99 99 98 96 93 89 86 82 81 82 86 97 99 99 100 98 94 99 100 100 96 96 96 96 89 83 81 80 88 82 87 80 83 83 85 92 92
81 85 89 96 100 96 93 92 92 95 97 95 93 90 90 96 100 98 98 96 97 98 96 99 98 97 98 97 96 97 92 85 88 89 87 91 94 84 88 83 84 94 91
96 98 95 98 97 97 100 100 99 98 98 97 98 98 99 99 98 97 99 100 100 100 100 98 98 100 98 97 97 97 97 91 87 89 88 95 97 92 88 86 85 91 91
82 99 91 89 99 100 100 100 100 100 99 98 98 99 95 95 97 97 98 98 98 98 100 98 98 98 97 97 97 97 96 95 88 88 91 95 97 94 90 88 85 89 87
87 98 81 81 90 95 100 96 100 100 100 100 100 100 98 97 97 96 97 97 89 88 92 96 100 99 97 97 97 97 97 95 92 96 95 96 97 94 89 90 82 88 86
86 99 85 85 92 98 98 100 100 100 100 100 100 100 100 97 97 96 96 92 90 90 89 95 96 97 98 98 98 97 97 97 97 97 97 96 96 91 90 92 83 86 83
78 81 88 92 96 98 95 100 100 100 100 100 100 100 100 99 99 97 97 94 85 90 94 95 92 94 95 97 99 96 96 97 97 97 97 97 96 91 91 90 84 90 85
85 83 83 96 92 87 90 100 99 99 100 100 100 100 100 100 100 99 98 93 84 87 93 97 97 96 94 95 94 99 99 98 98 97 97 97 96 96 96 93 90 91 81

GFSGL_925_rhum_054.txt.gz
RH
96 94 96 89 89 89 81 76 75 67 65 81 84 89 65 58 70 51 54 57 58 56 56 59 61 62 60 56 55 53 54 61 68 58 54 54 58 60 54 41 53 58 62
96 96 96 92 92 88 80 77 74 70 78 84 82 67 71 69 53 58 56 61 61 61 57 60 62 64 59 56 52 54 56 57 59 62 58 63 65 59 54 49 57 64 66
99 96 92 90 88 85 82 78 72 73 85 73 72 70 61 66 55 50 57 60 62 61 60 64 65 61 54 52 64 65 58 56 55 62 68 74 69 62 52 56 74 74 71
94 91 89 86 83 75 69 66 71 79 76 76 66 67 70 55 57 55 56 58 60 61 64 64 66 63 57 62 67 52 53 55 58 61 71 74 71 66 62 82 84 80 78
91 88 89 80 70 63 63 74 74 79 75 64 68 64 64 59 54 53 52 54 59 61 64 64 64 63 60 62 59 56 59 61 60 71 76 76 78 69 78 88 90 89 93
84 87 83 73 69 71 83 72 76 63 61 55 75 73 87 65 54 54 58 58 60 64 66 65 65 64 63 62 63 68 65 59 65 73 72 81 74 61 80 88 97 92 77
84 81 77 76 73 67 72 65 58 61 80 93 86 93 60 56 57 57 58 59 61 64 67 68 69 68 66 67 79 72 68 68 70 70 77 79 68 65 85 96 96 95 92
76 75 70 64 59 62 74 81 86 91 93 87 68 60 55 52 55 57 58 60 63 67 70 72 73 73 73 79 87 72 74 72 70 73 77 56 66 80 93 87 88 86 92
65 58 57 72 82 89 92 94 92 86 68 65 60 56 57 54 54 54 56 59 63 69 72 73 75 78 80 93 81 78 76 74 73 79 64 75 90 92 86 88 71 94 91
66 78 89 88 88 88 85 70 65 64 61 61 62 61 59 59 58 58 59 63 70 74 75 73 73 80 85 92 84 74 80 77 76 79 60 65 70 71 71 71 72 97 94
81 83 84 84 79 70 66 65 65 62 61 62 62 58 57 58 59 61 62 65 68 72 75 72 70 78 83 90 96 83 74 72 83 84 74 74 76 74 70 71 72 78 96
66 67 69 67 64 61 58 55 58 61 64 63 62 60 56 57 60 62 63 62 64 75 77 73 74 78 82 89 94 94 84 82 94 96 94 95 87 75 70 72 73 70 75
55 57 57 56 58 60 62 62 64 64 66 65 68 72 66 61 61 60 64 69 69 77 76 77 79 82 87 96 98 97 95 91 100 100 99 92 81 73 73 75 73 70 72
62 68 72 74 75 75 76 76 79 78 82 88 90 91 89 88 86 80 77 70 62 70 73 76 80 84 91 97 98 98 97 94 96 97 92 79 80 75 74 77 79 75 81
73 72 68 63 57 52 48 57 66 68 83 93 97 98 99 96 94 89 92 98 93 97 94 87 94 100 100 98 97 97 97 97 98 95 92 88 88 79 76 79 80 81 89
61 60 56 49 51 64 86 86 72 70 73 77 77 78 82 85 85 90 94 98 97 99 100 98 99 100 100 100 98 97 97 97 96 96 93 83 94 82 78 80 82 83 89
50 57 58 65 83 97 98 100 100 93 94 95 92 89 88 87 87 86 90 84 92 100 99 98 100 100 100 100 99 97 96 90 93 96 84 80 94 82 81 80 83 84 87
50 67 71 76 90 97 98 99 94 90 91 94 85 89 92 92 97 93 90 91 99 99 99 99 99 100 96 98 100 97 96 96 96 92 82 88 93 82 84 80 84 86 91
71 91 80 84 96 93 91 94 99 98 97 98 95 90 93 83 93 99 97 100 100 98 98 98 99 94 92 100 97 97 96 96 95 90 83 80 90 81 86 81 86 85 93
90 94 77 83 88 96 94 100 100 99 98 99 98 100 100 99 96 96 99 99 98 97 95 98 99 98 95 98 97 97 96 97 96 90 86 82 88 85 91 84 88 83 90
81 100 74 73 82 88 92 100 100 100 100 100 100 100 99 100 100 100 98 98 98 98 96 97 99 94 95 97 98 98 96 96 96 89 86 89 89 91 94 90 90 83 94
80 82 75 81 82 90 95 92 100 97 100 100 100 100 100 100 100 100 99 97 96 95 96 96 96 96 98 98 97 97 96 96 96 96 87 90 90 94 96 95 92 85 93
75 81 73 77 82 88 85 87 100 96 100 100 96 100 100 100 100 100 100 100 97 96 95 98 98 95 94 96 99 97 97 96 96 97 96 90 93 97 96 94 90 88 90
69 72 78 83 86 83 81 88 99 89 96 98 97 100 100 100 100 100 100 100 98 96 96 95 98 99 95 94 95 96 98 97 97 97 97 97 96 97 96 93 89 85 84
75 77 76 89 90 86 80 80 86 86 90 95 97 99 100 100 100 100 99 100 100 97 95 96 91 99 95 94 94 96 97 100 98 97 97 97 97 96 95 89 90 86 86
83 82 76 87 96 93 88 83 82 84 90 93 95 96 97 99 100 100 100 100 100 98 98 89 80 92 95 95 98 97 95 96 99 98 97 97 97 96 96 93 93 86 86

GFSGL_925_rhum_057.txt.gz
RH
98 100 100 100 100 100 95 89 78 74 79 67 64 76 98 83 61 71 59 54 60 66 58 56 68 72 68 69 69 65 61 58 58 50 49 52 60 58 59 59 56 52 55
100 100 100 100 100 100 99 93 87 84 88 67 75 96 80 78 75 71 73 58 66 69 60 72 72 71 76 73 69 64 58 62 64 50 48 52 59 63 64 63 53 54 61
99 100 100 100 100 100 100 96 94 96 81 82 96 85 89 79 83 69 58 61 58 60 71 73 71 75 73 67 67 61 62 70 58 57 53 54 62 63 60 53 48 58 57
100 100 100 100 100 100 98 96 95 94 85 96 86 86 84 78 70 62 61 55 63 69 64 71 74 76 70 64 64 63 68 65 58 58 57 54 58 58 62 48 47 51 52
99 100 100 98 96 96 100 99 87 85 83 86 89 79 77 72 76 76 61 68 70 72 67 65 67 67 64 66 65 64 65 64 61 63 56 56 56 55 53 47 56 54 57
96 100 97 92 94 89 85 85 81 86 91 78 70 74 75 88 89 77 67 73 70 69 69 70 65 66 66 65 64 63 73 73 79 65 60 60 58 60 58 55 61 60 54
91 90 90 83 83 84 85 80 75 77 84 80 92 98 95 97 67 59 60 65 74 71 70 70 71 68 68 72 70 66 70 82 74 71 73 69 71 67 53 61 62 62 62
80 79 78 76 75 80 82 92 93 91 96 98 98 95 73 60 56 55 54 59 73 72 70 71 74 73 75 75 77 80 84 79 82 81 77 75 74 63 65 74 78 80 68
70 75 82 89 90 88 88 89 92 92 82 74 72 66 64 60 58 57 58 64 69 69 65 64 74 76 76 72 83 94 86 76 74 72 73 76 77 63 88 78 74 68 68
88 91 85 81 87 91 85 71 71 70 66 66 62 58 59 62 58 58 60 70 79 76 75 77 70 75 76 72 80 100 98 83 73 75 77 75 68 74 83 82 74 74 69
86 84 84 79 74 68 66 64 65 71 65 62 62 58 54 52 54 54 56 65 79 79 81 81 84 69 74 71 81 99 96 91 89 79 75 70 67 70 74 73 72 74 75
64 63 66 60 58 58 60 69 71 76 78 80 80 81 82 78 73 68 71 73 74 90 89 83 83 74 72 73 80 86 88 93 98 94 87 84 82 80 76 72 75 80 79
58 68 70 69 70 71 76 76 74 74 75 76 77 79 73 78 77 83 84 77 79 89 99 98 85 75 76 82 84 90 94 100 99 98 91 82 82 81 82 83 84 85 83
78 77 73 68 61 61 57 59 59 65 68 71 72 72 75 75 74 76 84 87 88 96 96 99 97 98 98 98 99 99 100 100 99 97 90 85 88 93 92 83 86 84 80
71 64 59 59 60 56 61 68 69 73 84 83 81 84 90 91 90 97 97 96 95 91 93 99 100 99 100 100 98 100 100 100 99 99 98 96 96 92 92 86 88 84 79
54 57 68 68 71 71 69 68 81 91 93 93 95 91 89 96 96 93 92 97 95 95 98 95 95 96 98 99 98 97 100 100 100 100 99 99 96 92 87 88 88 86 76
62 68 69 75 75 79 79 74 71 74 84 90 92 91 91 95 96 96 94 99 93 91 98 90 92 96 97 99 98 97 96 99 100 100 100 100 99 89 95 88 87 85 77
77 73 79 82 85 82 79 80 82 81 81 79 82 89 92 96 94 95 100 89 91 94 95 94 95 98 99 98 98 97 96 99 100 99 100 100 98 90 95 88 85 84 79
76 79 85 90 88 89 88 88 84 83 84 81 80 78 90 97 93 95 98 100 96 94 96 99 97 98 98 96 99 100 99 98 99 100 100 100 99 98 95 86 85 85 86
81 93 85 85 86 87 88 88 85 87 84 84 84 88 93 94 93 94 96 100 100 98 99 98 97 98 98 99 99 99 99 100 100 100 100 100 100 99 96 92 93 89 81
84 83 80 84 87 90 92 89 89 91 89 88 88 96 100 100 97 95 96 98 100 100 100 100 100 100 100 98 98 99 100 100 99 100 100 100 100 99 100 97 97 94 84
93 85 88 90 91 96 92 91 96 95 91 92 93 94 100 100 97 98 97 100 100 100 100 100 100 100 100 99 100 97 99 99 100 99 99 99 100 100 100 100 100 96 89
80 73 92 92 96 95 95 94 97 97 94 97 98 98 99 100 100 100 100 100 100 100 100 100 100 100 100 100 100 100 100 100 98 97 98 99 100 100 100 100 100 98 92
74 86 92 96 100 96 98 97 99 96 98 98 100 100 100 100 100 100 100 100 100 100 100 100 100 100 100 100 100 100 100 97 95 98 97 97 99 100 100 100 100 98 94
78 86 96 99 100 100 100 100 99 100 100 100 100 100 100 100 100 100 100 100 100 100 100 100 100 100 100 96 99 100 100 95 96 96 98 97 98 97 98 99 100 98 95
95 88 91 90 100 100 100 100 100 100 100 100 100 100 100 100 100 100 100 100 100 100 100 100 100 100 99 99 100 99 98 95 95 96 99 98 97 98 98 98 97 100 95

GFSGL_925_rhum_060.txt.gz
RH
68 77 94 98 100 100 100 100 98 96 90 88 79 78 83 85 94 88 74 71 79 73 63 60 57 57 57 52 52 52 49 46 43 38 40 38 43 50 52 48 50 48 38
68 77 91 96 99 100 100 100 100 95 90 92 94 90 90 86 91 84 80 92 79 65 60 59 58 56 56 57 55 52 49 46 45 43 44 42 41 44 50 51 50 43 38
79 94 99 100 100 100 100 99 98 99 98 97 100 100 99 90 85 83 92 81 66 62 56 57 58 58 56 54 53 50 48 46 45 47 45 42 43 45 47 46 45 39 38
100 100 100 100 99 100 100 100 100 100 100 100 100 98 89 89 95 90 83 72 65 58 59 60 60 58 55 54 52 49 48 48 46 46 44 43 43 43 46 42 40 33 34
100 100 100 100 100 100 100 100 100 100 100 98 94 90 93 90 90 94 82 79 65 60 59 62 60 60 61 60 54 48 48 48 47 48 47 48 49 44 40 39 43 36 38
99 99 100 100 100 99 100 100 99 100 98 91 87 86 90 91 92 90 91 86 69 61 58 56 53 60 69 70 66 64 62 57 53 58 61 69 57 46 42 46 42 38 40
86 88 86 85 88 88 88 89 92 88 80 80 88 91 96 99 99 96 82 70 64 59 56 53 51 48 54 65 66 69 70 67 68 68 68 73 61 49 49 49 42 42 45
75 76 78 79 81 84 88 91 82 80 85 96 98 95 92 74 72 66 60 65 58 54 53 55 54 52 51 58 64 60 61 64 73 90 76 64 56 55 55 52 52 59 58
71 75 78 80 85 89 93 92 89 92 94 92 71 67 65 62 65 65 58 62 60 58 56 55 54 54 53 59 68 70 65 67 74 78 68 66 65 67 70 65 62 56 58
73 76 78 80 85 92 86 82 73 65 61 61 59 57 61 61 60 62 62 71 70 66 62 60 59 62 66 68 73 82 82 73 75 80 75 74 75 78 80 78 66 61 56
78 77 78 76 69 65 62 60 56 53 58 64 68 68 69 70 74 81 83 87 82 85 82 77 71 69 71 74 78 88 92 80 81 79 72 74 71 61 53 64 69 62 58
67 63 59 57 52 54 55 57 57 57 62 62 66 62 59 60 63 65 68 70 81 81 76 74 80 90 93 97 87 93 91 88 95 99 88 77 72 67 63 61 66 65 60
58 58 60 58 56 54 51 51 45 43 44 48 49 55 53 60 58 62 71 74 74 85 80 80 79 91 92 94 95 98 100 100 99 99 94 88 85 75 76 76 72 69 67
56 56 52 46 42 38 34 36 37 48 54 53 55 61 63 64 61 74 76 75 75 84 83 83 82 72 67 83 99 100 99 98 99 98 89 83 91 90 84 81 83 83 79
48 43 41 43 39 36 39 49 54 64 75 72 69 70 74 74 75 90 90 88 91 96 100 98 85 77 66 67 83 98 99 98 98 99 98 99 98 92 91 87 89 80 73
37 40 52 49 50 44 42 42 61 63 72 95 93 86 83 87 93 92 90 92 96 91 94 92 89 86 82 67 70 86 99 98 97 99 94 97 96 94 91 93 84 85 74
41 46 50 54 52 54 53 52 51 60 71 84 80 85 87 92 94 91 90 92 84 83 86 87 91 96 97 80 76 89 99 97 95 96 94 98 96 95 97 93 90 77 79
59 58 54 57 57 61 60 63 62 64 67 64 68 76 82 89 92 88 88 81 73 75 80 84 92 94 96 98 99 99 98 96 99 99 99 99 98 96 95 87 83 84 77
52 54 65 72 73 74 72 70 68 67 68 66 64 64 74 86 86 83 83 81 82 78 81 83 87 93 95 96 97 98 94 98 98 98 98 96 96 97 91 88 82 81 80
63 68 72 65 67 68 69 71 66 69 68 68 69 74 82 83 80 79 80 83 85 83 85 87 89 92 96 96 96 97 97 98 98 99 97 95 97 98 93 88 86 90 80
56 62 68 65 68 71 74 72 71 73 74 72 73 82 97 94 84 82 82 82 87 89 90 91 93 95 97 96 96 95 97 100 98 98 98 98 97 97 94 90 88 88 80
69 66 70 73 73 81 81 75 78 79 77 77 79 80 87 84 83 83 82 86 92 92 93 94 96 96 98 98 98 97 95 96 98 98 98 98 98 98 97 90 90 92 80
77 81 77 75 83 85 84 83 84 85 82 84 84 83 84 85 87 86 88 90 92 93 96 97 98 99 100 100 100 100 97 96 98 100 98 98 98 98 98 95 91 93 84
84 86 78 81 88 86 88 90 89 88 88 86 88 88 87 89 91 91 92 94 95 96 98 100 100 100 100 100 100 100 100 100 100 100 99 96 98 98 98 97 94 88 85
92 90 88 88 90 91 92 90 90 91 90 91 91 91 90 93 91 92 95 97 98 98 99 100 100 100 100 100 100 100 100 100 100 100 100 97 98 98 98 98 97 94 92
88 88 88 92 91 93 93 93 92 92 92 94 95 96 97 97 95 97 98 99 99 100 100 100 100 100 100 100 100 100 99 100 100 100 100 98 96 98 99 98 98 96 92

GFSGL_925_rhum_063.txt.gz
RH
55 64 78 90 96 91 94 93 94 98 100 100 99 99 89 78 86 100 96 89 82 77 83 86 67 59 53 52 49 46 46 44 43 38 35 34 36 39 40 44 48 47 46
53 57 84 94 98 99 98 100 99 100 100 99 93 92 88 90 99 98 90 88 88 94 95 76 62 56 54 54 53 51 48 45 44 43 39 38 38 38 39 41 47 41 42
53 62 91 99 100 100 100 99 99 99 98 93 95 100 100 100 98 92 88 89 94 94 80 64 58 56 57 54 52 49 46 43 42 42 41 38 38 37 38 41 45 44 41
91 99 99 100 100 100 100 100 100 100 100 100 100 100 98 94 91 89 88 95 96 87 75 67 58 58 54 53 51 49 47 46 44 42 42 41 38 36 38 41 47 42 40
100 100 100 100 99 100 100 100 100 100 100 99 99 97 95 89 91 92 89 93 92 85 72 65 60 57 56 55 55 54 51 47 43 41 41 40 38 42 42 46 51 45 40
100 100 99 99 100 100 100 100 99 100 99 100 95 87 87 92 92 91 95 95 95 81 68 57 53 51 51 53 55 56 60 64 62 52 50 49 47 52 57 60 59 48 45
91 91 91 91 92 94 95 96 97 97 89 84 84 89 90 92 97 97 95 93 72 61 57 54 52 46 44 44 45 50 61 60 64 68 68 64 63 62 62 72 57 50 48
72 73 76 75 74 74 77 80 87 82 81 86 93 98 97 92 78 69 68 69 62 57 53 50 49 48 48 47 49 52 57 69 74 77 76 70 69 67 66 62 63 56 50
64 66 70 74 77 78 82 87 90 95 96 94 85 70 60 57 61 60 64 60 58 57 54 52 52 53 53 53 55 60 61 64 64 69 76 72 78 77 70 68 72 65 66
66 69 72 72 74 81 92 91 88 74 58 53 52 50 52 53 62 71 76 79 78 74 70 68 70 71 74 74 79 80 73 70 70 69 92 93 80 74 68 68 69 71 65
68 70 72 77 74 66 59 56 50 47 49 59 64 66 64 63 65 64 63 68 73 81 74 70 68 64 64 68 76 90 98 96 83 80 89 98 96 80 72 75 74 68 69
64 62 59 52 46 48 48 48 47 48 54 54 55 51 54 57 58 62 63 69 69 72 70 74 72 75 73 66 64 72 84 90 99 99 100 99 96 86 78 67 70 76 72
55 52 51 47 43 42 41 42 34 35 41 46 46 52 50 57 55 59 68 68 70 74 73 77 78 80 86 86 83 71 83 99 100 100 99 99 97 82 73 74 72 72 77
50 48 44 40 35 31 28 28 32 46 50 47 49 57 59 63 58 78 74 73 72 75 77 85 80 87 83 79 77 79 87 94 100 99 99 99 94 82 82 92 87 92 86
41 37 36 36 31 30 34 40 49 74 61 66 67 66 73 76 77 90 88 82 84 86 91 89 84 84 85 81 84 75 68 88 100 100 100 99 98 94 98 97 96 92 94
35 38 47 45 43 33 32 52 54 52 51 62 74 66 81 88 91 92 90 87 89 83 79 71 86 89 88 90 91 93 83 73 97 99 98 94 87 89 96 99 95 98 90
39 45 49 47 43 44 43 44 43 77 66 72 72 69 77 88 88 90 87 84 83 69 63 65 79 88 88 91 96 96 97 79 97 98 98 89 86 90 96 94 96 95 91
49 45 45 48 48 51 51 55 54 57 64 64 68 67 66 80 86 88 82 81 67 64 64 64 69 82 88 88 94 96 97 98 99 98 91 91 94 94 94 98 96 96 92
44 48 58 66 68 64 65 64 62 62 62 62 60 58 63 78 81 82 80 76 76 71 68 68 70 76 86 94 94 98 98 97 98 98 95 93 98 99 97 98 98 92 88
55 53 56 58 60 61 62 64 59 62 62 62 63 64 72 80 80 75 74 77 78 76 75 76 78 85 91 92 95 96 97 97 97 98 98 96 94 97 98 98 97 93 78
47 60 53 56 60 64 68 68 65 67 68 66 65 74 87 82 83 76 73 73 76 78 82 85 87 91 91 92 93 93 96 97 97 97 97 98 98 98 98 98 98 91 92
62 60 63 68 66 75 77 70 71 72 70 69 71 73 80 82 77 76 74 78 86 85 88 87 90 91 91 92 94 94 95 96 96 97 96 96 100 98 97 98 98 96 81
73 77 72 66 78 78 78 76 76 78 76 77 77 77 78 78 81 80 82 86 88 91 91 93 92 93 90 93 95 94 97 96 96 97 97 96 96 97 98 98 98 97 91
81 83 74 72 78 83 81 83 82 82 80 79 82 82 80 81 82 84 86 89 91 92 92 94 95 95 94 96 94 95 95 97 96 97 96 98 99 98 97 98 98 97 92
85 85 81 81 82 82 83 81 82 83 84 84 84 83 82 83 82 84 88 92 93 92 96 96 94 97 97 98 98 100 99 100 97 97 98 100 99 100 96 98 97 98 96
82 80 82 83 82 84 84 84 84 85 85 85 86 85 86 86 87 89 91 92 92 96 99 98 99 100 100 98 99 98 99 100 98 97 97 100 100 97 96 98 96 98 97

GFSGL_925_rhum_066.txt.gz
RH
54 57 63 68 74 83 87 94 90 94 95 92 94 98 94 92 98 99 94 93 89 90 86 82 85 85 79 68 56 53 51 49 56 51 46 43 39 38 38 39 43 43 47
51 54 61 69 90 93 90 96 96 98 100 99 99 100 100 99 98 94 95 92 89 85 86 92 89 86 76 64 58 56 56 53 52 57 51 47 44 41 38 40 38 41 45
55 59 76 99 100 98 98 99 99 100 100 100 100 100 96 99 100 99 92 89 87 87 90 92 91 78 69 62 58 59 55 54 53 52 55 48 45 43 41 41 41 43 46
93 99 100 100 100 99 100 100 100 100 100 100 99 100 100 99 96 94 91 91 92 93 93 89 85 76 66 62 60 58 57 57 55 55 57 54 49 44 43 43 44 44 50
100 100 100 100 100 100 100 100 99 100 100 100 99 100 100 95 94 91 91 96 94 94 92 85 77 70 64 61 60 58 57 57 58 56 55 53 50 48 48 48 52 57 60
99 100 100 99 99 100 100 100 99 100 99 99 99 95 95 91 92 96 96 95 95 90 79 81 73 61 57 55 53 54 54 58 62 67 67 65 59 56 56 62 65 69 76
98 99 99 99 99 100 99 99 99 99 100 97 94 89 91 89 88 89 90 91 88 84 69 62 59 57 54 52 51 52 54 54 56 63 73 78 72 65 64 62 66 74 70
89 91 92 93 94 92 90 92 98 99 93 88 86 85 92 90 86 84 88 71 70 63 60 58 58 59 61 64 66 68 72 71 65 64 66 72 78 76 79 70 67 71 69
75 76 73 73 75 78 86 89 90 85 87 88 81 81 84 69 63 63 64 69 73 77 76 72 70 66 63 62 63 72 77 80 86 80 72 71 72 81 84 74 67 68 82
66 70 73 74 76 81 86 91 88 85 84 78 60 52 51 64 71 69 67 66 69 74 65 58 58 62 68 69 72 91 96 90 85 84 77 73 84 92 100 96 90 78 82
68 69 70 75 80 84 80 76 71 53 52 58 60 67 63 64 67 62 60 61 68 66 72 72 72 75 77 63 53 78 79 67 73 82 91 88 91 100 98 96 81 69 78
69 70 70 65 59 56 51 47 44 51 58 59 57 53 55 60 61 61 65 66 58 62 78 78 80 80 59 70 87 86 88 85 97 97 94 95 94 99 99 94 70 67 66
61 55 49 46 46 46 48 44 42 40 42 51 47 53 54 60 60 73 71 52 43 76 78 82 79 68 84 87 90 84 88 99 90 95 94 88 90 99 100 98 96 91 80
53 50 46 40 36 32 29 30 44 52 50 48 51 59 68 70 69 73 56 46 78 83 79 69 75 86 79 81 83 85 88 90 98 98 92 91 94 99 99 98 96 75 77
48 41 36 33 31 31 39 46 56 53 43 64 77 72 79 83 91 90 86 87 88 88 84 83 85 77 83 83 82 86 91 92 98 99 97 96 96 100 100 98 98 95 97
39 43 45 40 33 32 46 45 45 48 52 45 44 49 61 80 80 87 88 88 85 86 80 79 72 75 84 84 83 86 92 96 99 100 99 99 100 98 98 98 96 98 98
48 52 49 45 44 44 43 46 82 70 68 71 72 67 66 65 78 88 87 84 79 85 71 70 73 77 82 83 86 88 93 97 98 95 99 98 99 99 96 100 100 98 99
46 46 49 50 53 51 55 57 56 60 68 79 86 70 68 71 80 80 87 81 80 76 76 76 78 82 84 89 90 91 95 97 100 98 98 98 98 97 98 96 97 99 100
52 62 69 74 73 64 66 66 65 64 64 65 64 63 73 86 79 70 84 86 85 83 82 82 79 84 91 93 95 97 97 97 100 98 98 98 99 98 97 96 96 99 98
56 70 78 80 78 71 66 67 64 65 66 66 68 71 80 78 76 71 87 82 81 88 87 89 87 92 91 94 96 97 98 96 98 100 97 97 97 99 97 97 98 98 97
92 66 60 65 66 70 74 72 69 70 72 70 69 73 86 79 74 91 89 82 90 96 87 94 100 96 95 95 98 98 99 99 98 100 99 97 97 99 98 99 98 97 97
86 80 81 81 75 80 82 76 75 77 77 76 79 79 78 81 92 92 86 91 92 84 93 96 92 97 97 99 100 95 100 100 100 100 100 99 98 98 98 96 99 97 97
89 87 78 70 84 80 80 83 82 84 88 81 82 87 88 88 93 90 92 87 90 96 91 92 89 99 98 87 86 99 100 100 100 98 100 100 99 98 98 98 98 98 98
89 87 80 75 82 80 86 95 81 88 88 90 92 88 91 94 94 92 93 98 94 96 80 92 100 85 90 100 100 100 100 95 90 98 100 98 100 98 98 98 96 98 97
90 88 84 87 88 90 87 89 92 90 94 94 91 95 92 90 94 96 91 93 92 82 100 94 86 100 100 96 92 91 99 100 100 97 93 96 97 97 99 100 98 95 98
89 87 90 87 90 92 93 93 91 92 93 93 96 89 91 98 95 92 97 87 97 100 88 96 100 100 99 97 100 96 91 90 94 97 98 99 100 100 100 99 98 96 98

GFSGL_925_rhum_069.txt.gz
RH
55 54 54 62 64 66 75 82 86 89 95 95 95 95 96 96 96 94 97 96 98 94 89 86 83 82 85 87 85 70 66 59 68 58 52 49 48 46 43 41 40 41 42
58 59 56 65 70 72 92 85 88 99 100 96 93 95 96 96 97 96 98 100 98 92 89 85 82 87 89 87 79 73 70 59 59 63 56 54 50 49 48 46 44 42 40
65 84 82 85 80 85 89 98 98 100 100 99 98 99 100 100 100 100 100 98 92 89 86 90 88 88 87 84 77 73 64 60 60 59 62 57 56 53 51 48 46 58 56
80 98 100 100 99 100 100 100 100 100 100 100 100 100 100 100 100 99 96 93 89 91 90 92 91 90 88 83 76 68 64 63 62 62 68 67 63 55 53 52 50 53 55
100 100 100 100 100 100 99 100 100 100 100 100 100 100 100 100 99 94 89 90 92 94 94 87 84 84 80 76 73 70 67 65 68 74 75 71 67 62 55 50 53 54 54
100 99 100 100 100 100 100 100 100 100 100 100 100 99 100 96 93 92 89 94 93 93 87 80 80 73 61 59 62 66 69 74 79 80 80 78 74 73 68 64 63 81 82
99 100 100 100 100 100 100 99 100 100 99 100 100 97 95 92 92 91 92 94 91 81 84 69 66 68 68 67 65 64 63 63 64 74 85 87 84 80 81 89 83 97 90
100 100 100 100 99 99 99 100 100 99 98 96 94 91 88 86 85 85 88 85 74 77 74 72 72 70 67 60 59 52 50 46 60 71 82 86 93 96 96 90 90 95 99
94 96 96 94 94 95 99 98 99 96 93 86 83 87 98 90 94 100 77 72 73 70 69 62 49 40 41 51 56 57 56 46 40 56 64 70 72 56 53 85 99 100 97
84 86 83 83 89 90 92 95 87 81 81 81 90 90 79 64 65 67 67 64 58 54 52 45 40 52 55 64 75 82 97 89 92 93 92 92 92 82 89 78 97 99 96
74 75 77 79 80 84 84 84 82 84 83 68 69 70 69 69 66 62 60 58 59 54 40 40 39 43 69 78 87 89 94 95 98 100 100 94 89 83 87 97 100 100 98
75 78 77 78 82 84 82 82 75 62 60 64 63 66 68 65 66 63 63 65 47 38 56 54 40 40 69 83 80 84 85 79 96 97 98 97 96 92 86 87 96 100 100
74 74 76 76 70 56 47 51 59 60 60 54 53 64 76 77 77 72 68 55 24 34 53 51 45 68 84 81 77 83 85 94 97 99 95 96 99 89 77 86 97 99 99
67 54 48 50 51 45 42 43 46 49 50 48 54 70 74 78 76 70 57 25 29 42 56 57 66 79 76 74 79 84 87 93 98 99 98 99 100 100 99 100 100 100 99
51 46 40 34 34 39 47 50 50 54 51 57 66 68 71 76 77 71 60 67 78 85 82 73 75 75 76 85 86 88 89 92 98 98 100 99 98 100 98 98 100 98 97
42 38 38 38 38 40 46 53 43 42 42 33 42 39 48 53 57 56 73 86 87 86 84 82 78 79 82 89 95 95 91 92 97 100 99 99 97 98 98 98 99 98 99
47 45 44 42 48 52 46 50 70 73 70 73 71 66 64 65 65 72 77 88 84 78 73 80 80 80 82 95 95 97 96 95 98 100 100 99 97 100 98 99 99 100 100
51 49 52 54 54 55 58 65 78 85 86 86 87 78 81 82 87 82 82 85 88 78 76 86 87 82 88 92 95 98 99 100 100 100 100 100 97 97 100 98 99 99 100
66 73 77 82 80 82 88 91 83 73 69 67 66 82 89 88 82 68 56 93 86 85 94 90 79 84 99 97 95 92 98 100 99 100 100 100 100 97 97 99 98 99 99
89 95 94 93 93 93 90 87 77 72 72 71 70 80 85 81 72 61 79 97 88 95 90 85 91 96 88 90 92 99 100 93 99 100 100 100 100 98 97 97 99 98 98
94 95 95 95 95 94 91 88 80 79 78 74 76 80 82 81 81 87 98 90 94 89 90 95 94 88 80 87 99 100 89 86 100 99 100 100 100 99 97 97 98 100 100
95 95 95 93 93 92 88 74 80 79 84 90 86 82 85 87 96 96 95 93 89 92 99 97 87 82 89 100 88 89 99 100 100 100 100 100 100 100 98 99 99 100 100
94 94 91 89 88 83 76 95 92 82 87 84 85 89 90 94 97 96 96 98 97 97 94 83 84 98 94 84 95 99 100 100 100 98 99 100 100 100 100 100 99 100 96
89 89 86 87 89 88 91 93 84 93 97 96 93 93 98 94 90 99 100 96 93 88 84 93 100 87 89 100 97 94 95 97 99 100 100 98 100 100 100 100 100 99 98
93 87 87 84 90 94 97 97 95 91 90 93 96 96 86 88 94 94 93 91 84 95 99 93 83 83 88 90 92 92 97 99 100 99 100 100 100 100 100 99 98 98 98
94 94 93 95 97 96 93 94 93 83 85 95 92 87 97 99 95 90 84 90 100 97 88 81 85 88 93 95 98 100 100 100 100 100 100 100 100 100 100 99 98 98 98

GFSGL_925_rhum_072.txt.gz
RH
59 62 61 60 59 64 71 69 72 86 93 82 79 92 95 98 93 93 94 95 99 100 100 96 92 83 83 86 89 89 90 87 87 77 69 59 54 52 50 50 48 46 44
62 62 65 71 80 80 88 85 86 88 68 91 100 100 99 97 99 97 98 100 100 100 99 92 88 92 86 86 89 88 86 77 80 82 72 63 59 58 57 55 53 51 50
67 68 74 76 92 90 94 86 87 77 64 100 100 100 100 100 100 100 100 100 100 99 92 93 88 90 90 88 84 88 83 66 63 74 75 70 68 64 62 59 58 57 54
67 72 92 95 98 98 97 95 90 87 98 100 100 100 100 100 100 100 100 100 99 95 91 90 92 91 86 88 88 82 77 78 76 78 82 82 79 77 77 69 65 60 64
68 90 99 100 99 100 100 100 100 100 100 100 99 100 100 100 100 99 99 96 94 94 94 93 89 88 89 89 87 81 72 69 72 82 88 88 89 86 81 75 69 67 60
100 100 99 99 100 100 100 100 100 100 100 100 100 100 100 100 100 99 95 93 94 93 91 87 84 74 72 70 69 68 67 67 67 75 81 86 86 82 84 88 88 93 87
99 100 100 99 99 100 100 100 100 100 100 100 100 100 100 100 98 95 95 96 95 93 89 80 73 72 70 67 64 62 55 38 38 45 74 82 89 91 90 98 99 100 97
100 100 100 100 100 100 100 100 100 100 100 100 100 99 95 95 95 94 94 92 86 80 76 73 70 66 56 48 39 25 17 16 31 58 73 76 77 74 81 89 89 90 92
100 100 100 100 100 100 100 100 100 100 100 98 96 94 92 95 95 91 91 83 76 74 69 58 47 34 29 30 27 50 72 70 76 80 84 81 76 86 89 98 98 98 88
99 99 100 99 100 100 100 99 99 95 93 95 92 92 90 93 100 91 80 73 69 57 50 37 26 25 21 34 86 94 95 98 98 94 97 98 98 96 91 93 90 99 91
94 94 94 94 92 89 95 99 96 92 90 94 98 91 78 74 68 66 63 59 55 50 35 28 29 26 55 82 91 81 92 87 84 94 90 96 93 93 96 95 90 89 98
85 85 85 86 88 92 94 91 91 92 88 84 82 78 78 77 73 67 63 61 53 35 32 35 35 56 81 88 80 86 84 78 77 95 98 92 98 99 98 95 99 97 91
81 83 83 83 85 85 89 93 89 74 70 82 81 84 86 84 80 73 67 57 34 24 41 50 58 74 78 70 74 83 79 74 90 99 95 96 100 100 100 100 100 100 99
80 82 84 84 82 78 81 75 73 70 68 79 88 92 88 83 77 73 61 38 39 50 59 62 70 78 75 75 77 86 84 86 93 100 100 100 100 100 100 98 100 100 99
66 62 61 57 55 58 57 58 57 57 53 60 73 76 84 86 82 59 54 65 80 84 75 79 80 80 78 83 92 92 92 93 96 98 100 100 100 100 99 97 91 100 99
49 45 48 52 56 52 45 44 40 38 40 51 65 57 48 50 55 62 74 76 87 85 81 81 82 80 78 91 94 95 95 95 96 99 100 100 100 100 98 95 97 100 99
53 54 48 48 50 48 49 54 69 71 73 72 81 87 72 65 68 81 84 87 88 84 70 85 87 82 85 96 96 98 100 99 95 100 100 100 100 100 99 98 96 98 97
62 55 57 62 67 75 83 85 85 91 95 94 91 85 82 79 87 92 90 80 84 82 87 92 87 82 96 99 99 99 96 97 95 88 100 98 100 100 100 97 97 97 97
78 89 85 85 92 95 94 95 96 95 90 86 89 96 93 93 92 78 69 90 90 94 94 88 82 87 89 84 78 78 94 100 87 84 100 97 100 100 100 99 97 97 97
96 96 96 96 96 96 96 96 95 96 96 95 95 95 95 92 80 72 77 91 90 92 88 88 92 91 85 78 79 94 100 87 93 98 100 100 98 96 100 100 98 97 98
96 96 96 95 95 95 95 95 96 95 95 95 94 92 92 90 93 96 97 96 96 93 94 97 97 89 81 86 99 92 89 95 90 100 100 100 100 100 100 100 99 98 98
94 95 95 95 95 95 95 95 95 95 95 95 94 93 94 94 98 98 98 98 98 99 99 97 89 85 94 100 90 92 100 97 100 97 100 100 100 100 100 100 100 99 98
95 95 95 95 95 95 90 95 92 88 95 97 97 96 95 96 94 96 98 97 96 97 90 87 93 98 93 80 82 99 100 100 98 100 100 100 100 100 100 100 100 98 98
90 88 87 92 92 94 97 97 97 96 95 94 94 96 95 93 94 96 94 91 88 84 92 98 95 86 76 78 86 88 94 99 100 100 100 100 100 100 100 100 100 99 99
93 95 94 96 99 100 98 98 98 96 95 96 98 97 97 96 93 91 86 82 89 98 95 87 77 75 83 86 87 89 94 100 100 100 100 100 100 100 100 100 100 100 98
89 87 90 92 93 94 95 95 96 96 96 96 97 100 100 99 95 88 89 98 97 90 82 79 79 85 86 87 89 93 97 97 100 100 100 100 100 100 100 100 100 100 99

GFSGL_925_rhum_078.txt.gz
RH
65 66 67 67 67 62 59 51 45 51 58 64 63 62 64 77 83 88 98 100 100 100 100 100 100 100 99 100 100 94 90 92 96 92 88 83 72 66 63 65 66 68 67
66 64 59 55 51 49 57 58 68 73 66 70 73 77 79 78 88 96 90 96 97 100 100 100 100 99 100 100 96 89 89 91 97 99 90 82 72 66 66 70 70 68 71
73 70 72 72 70 69 75 76 79 78 82 79 76 84 98 96 99 98 100 100 100 100 100 100 100 100 100 95 91 90 92 95 96 100 97 89 84 72 71 65 63 61 60
75 77 75 79 75 81 84 80 78 75 77 77 85 93 99 100 100 99 100 100 100 100 100 100 100 100 95 92 93 94 96 99 97 94 89 79 71 68 64 60 51 36 31
82 84 80 78 82 84 83 84 85 86 88 92 100 100 99 100 100 100 100 100 100 100 100 100 100 99 99 97 98 98 94 86 75 72 70 72 64 49 46 51 69 70 66
84 86 85 87 90 90 93 97 98 100 100 100 100 100 100 100 100 100 100 100 100 100 100 100 98 100 97 95 89 81 73 67 63 58 55 50 42 51 62 76 82 92 78
84 86 94 100 100 100 100 100 100 100 100 100 100 100 100 100 100 100 100 100 100 100 99 99 95 89 86 80 77 69 60 46 32 38 49 57 74 66 87 96 98 100 96
100 100 100 100 100 100 100 100 100 100 100 100 100 100 100 100 100 100 100 100 100 100 98 93 87 81 74 66 58 43 30 31 42 57 69 70 75 71 89 97 98 98 96
100 100 99 99 99 100 100 100 100 100 100 100 100 100 100 100 100 100 100 99 97 91 84 78 70 61 51 34 24 26 41 56 62 57 44 39 36 45 82 99 100 99 91
100 100 100 100 100 100 100 100 100 100 100 100 100 100 100 100 100 100 98 92 82 74 66 53 42 33 21 30 42 58 61 73 58 44 33 27 29 39 56 80 99 100 98
100 100 100 100 100 100 100 100 100 100 100 100 99 100 100 100 100 99 90 76 69 63 53 41 31 26 46 71 80 70 78 70 53 45 43 41 48 44 41 45 64 93 100
100 100 100 100 100 100 100 100 100 100 100 100 100 100 100 98 92 84 74 65 59 50 44 34 32 52 83 88 73 70 69 58 51 49 59 85 85 83 74 52 58 74 98
100 100 100 100 100 100 100 100 100 100 99 98 96 94 90 86 82 72 63 57 50 42 34 32 35 59 79 73 70 71 66 63 69 82 95 90 92 93 87 84 87 86 95
99 100 100 99 100 100 100 100 99 99 97 95 93 93 91 81 74 68 61 54 49 40 39 54 69 78 78 75 75 78 74 82 85 97 95 95 94 96 94 92 96 95 100
95 96 97 98 97 96 94 94 97 99 96 96 97 96 95 96 95 90 69 54 52 67 76 83 84 79 78 83 88 87 92 93 96 98 98 96 92 94 95 95 97 95 100
91 90 89 88 86 86 94 100 98 98 98 98 98 97 96 96 91 79 73 70 78 73 76 78 80 78 78 90 98 97 97 96 94 96 98 95 90 96 98 97 97 95 100
89 96 100 100 100 98 97 97 97 96 76 68 68 63 61 68 91 93 92 92 96 92 93 93 92 92 90 98 98 98 98 98 97 99 100 95 99 100 100 100 97 96 96
99 96 94 93 96 97 97 98 97 96 98 98 97 95 96 96 95 95 95 95 95 94 95 95 95 95 95 96 96 97 96 88 86 98 91 88 89 99 100 100 99 100 100
97 98 97 97 97 97 96 96 96 96 97 97 98 98 100 98 95 95 94 94 95 96 96 96 95 96 96 98 90 82 86 93 92 89 90 93 93 100 100 100 100 100 100
97 96 96 96 96 95 95 95 95 95 95 96 96 96 96 95 94 95 95 96 96 96 96 99 98 99 97 92 90 92 97 94 90 92 97 97 97 100 100 100 100 100 100
96 96 95 94 94 94 95 99 97 96 96 96 97 96 95 94 96 96 97 97 98 98 98 98 97 97 97 98 99 100 93 86 85 93 98 98 100 100 97 100 100 100 100
95 96 95 97 98 94 95 93 94 95 97 97 99 95 90 87 88 92 94 95 96 96 95 93 95 100 100 100 94 88 86 90 92 96 100 100 100 100 100 100 100 100 100
94 95 99 100 96 93 94 95 95 93 93 94 94 92 91 94 96 96 95 91 86 82 86 94 97 95 90 83 78 84 100 100 100 100 100 100 100 100 100 100 100 100 100
83 89 92 93 92 93 92 92 92 94 95 92 91 96 100 100 100 99 96 92 90 87 85 83 82 82 84 84 83 84 92 96 100 100 100 100 100 100 100 100 100 100 100
81 83 85 86 87 88 86 84 81 81 82 88 95 99 100 98 93 91 90 86 83 82 83 84 85 82 79 79 80 89 93 98 100 100 100 100 100 100 100 100 100 100 100
80 82 85 85 83 80 77 76 82 87 94 99 99 97 94 89 87 86 86 87 89 90 87 84 80 79 77 79 87 92 98 100 100 100 100 100 100 100 100 100 100 100 100

GFSGL_925_rhum_081.txt.gz
RH
83 86 86 86 86 82 76 69 64 62 61 58 56 58 60 68 67 69 80 89 91 98 99 100 100 100 100 100 100 99 100 93 87 87 79 78 80 79 71 64 63 65 68
82 83 83 81 79 75 66 58 65 72 71 66 65 62 73 73 71 77 91 100 100 100 100 100 96 100 99 99 99 99 98 96 89 91 89 89 78 72 69 69 71 72 75
78 77 76 76 80 77 59 71 74 75 74 72 68 74 75 81 76 78 85 94 98 99 98 100 99 100 100 100 99 100 96 92 92 94 93 89 84 78 83 73 66 70 67
74 74 73 72 67 55 67 73 77 81 82 81 74 70 80 90 90 92 95 100 98 100 100 100 100 100 99 99 100 97 97 100 99 100 100 95 86 82 75 68 56 51 47
73 73 70 69 67 60 68 79 80 77 77 79 82 87 94 98 96 96 98 100 100 100 100 100 100 100 100 100 98 100 98 99 98 93 82 78 74 64 55 47 52 52 56
71 73 72 70 71 73 79 91 94 89 86 90 95 96 98 99 99 100 100 100 100 100 100 100 100 100 100 99 100 99 96 89 81 78 72 64 55 47 53 59 59 55 42
74 74 76 78 77 79 91 100 100 99 97 100 100 100 100 100 100 100 100 100 100 100 100 100 100 100 100 97 91 86 87 87 80 55 54 50 53 58 70 67 63 65 62
79 81 87 94 96 98 99 99 99 100 100 100 100 100 100 100 100 100 100 100 100 100 100 100 96 95 89 86 77 61 46 38 35 40 57 74 79 79 83 78 75 74 69
95 100 100 100 99 99 100 100 100 100 100 100 100 100 100 100 100 100 100 100 100 100 97 94 86 79 91 77 42 33 47 61 56 55 50 42 37 33 50 76 72 64 64
100 99 99 100 100 100 100 100 100 100 100 100 100 100 100 100 100 100 100 98 94 87 80 84 73 50 32 19 28 51 67 72 75 66 63 62 53 70 41 76 76 73 62
100 100 100 100 100 100 100 100 100 100 100 100 100 100 100 100 100 100 96 90 83 70 60 49 38 29 44 49 53 75 75 71 68 68 67 65 70 72 68 69 68 69 71
100 100 100 100 100 100 99 100 100 100 100 100 100 100 100 100 96 88 77 69 63 56 52 44 52 69 90 75 78 68 59 58 75 75 73 71 69 68 68 66 69 74 74
100 100 100 100 100 100 100 100 100 100 100 100 100 100 100 96 87 74 63 52 51 67 54 35 45 95 90 78 74 69 67 86 86 82 78 73 70 72 71 76 75 76 76
100 100 100 99 100 100 100 100 99 100 100 100 99 98 94 90 79 80 95 96 93 71 57 64 80 86 79 79 83 85 91 90 87 82 81 78 79 77 74 75 77 75 73
100 100 100 100 100 100 100 100 100 100 95 96 98 97 98 99 98 97 97 96 90 68 76 93 88 84 81 81 85 86 86 85 84 83 86 85 81 75 75 79 81 79 77
94 96 96 97 100 99 99 100 99 98 98 98 98 95 97 96 97 91 88 89 77 69 84 86 91 92 86 84 86 88 89 92 90 91 88 84 81 78 77 78 80 79 77
98 100 100 100 100 100 98 95 97 98 92 81 85 93 95 93 99 100 100 100 99 91 91 91 94 98 95 88 87 88 88 90 97 91 86 84 86 83 85 81 79 79 76
100 99 100 100 99 98 98 99 96 94 97 100 100 100 100 100 100 100 94 93 91 92 89 90 92 92 91 89 89 89 88 88 89 89 87 88 91 90 87 82 79 80 80
98 98 97 97 97 97 99 99 97 95 95 99 99 100 100 100 99 97 86 96 91 88 90 88 90 89 89 90 92 95 97 96 98 98 94 94 95 95 90 86 86 88 90
97 96 96 97 98 100 98 95 94 95 96 96 95 98 100 95 97 100 100 100 98 96 98 92 92 94 96 96 96 95 93 91 91 90 90 93 96 97 94 92 91 89 84
96 96 97 99 98 98 97 95 95 94 94 97 100 100 84 95 97 99 100 100 100 100 100 100 100 100 98 96 95 95 95 97 96 96 95 96 99 98 97 96 93 90 88
97 98 98 100 100 99 97 97 97 95 94 95 100 99 85 100 99 99 100 100 100 100 100 100 100 100 99 100 100 100 100 100 100 100 100 100 100 100 98 95 94 92 90
99 99 97 97 98 100 98 98 99 99 99 100 98 99 100 100 100 100 100 100 100 100 98 94 100 100 100 100 100 100 100 100 100 100 100 100 100 100 98 96 94 92 90
99 98 96 100 100 99 100 100 100 98 100 100 100 100 100 100 100 100 98 88 81 99 95 100 100 99 100 96 100 100 100 100 100 100 100 100 100 100 100 98 96 95 95
98 98 99 98 98 98 97 97 99 100 100 100 100 100 100 100 100 100 100 96 87 98 93 89 98 96 93 79 74 79 90 96 100 100 100 100 100 100 100 100 100 99 97
94 96 97 95 94 94 96 98 100 100 100 100 100 100 100 100 100 100 100 100 100 100 100 100 94 78 73 79 92 97 99 99 100 100 100 100 100 100 100 100 100 100 98

GFSGL_925_rhum_084.txt.gz
RH
70 75 76 78 76 73 74 74 72 72 72 72 73 71 71 67 68 72 78 81 83 84 97 100 99 100 97 99 99 100 100 100 97 97 87 78 75 69 68 68 77 74 66
67 69 73 75 76 78 77 76 76 74 73 70 68 66 67 65 66 70 74 84 92 97 88 100 98 100 100 100 100 100 100 99 99 95 84 87 82 81 79 82 74 66 65
66 70 73 75 76 78 79 77 73 71 67 66 65 67 67 66 65 70 75 84 91 78 100 100 98 100 100 100 100 100 100 100 100 96 98 95 93 83 82 81 79 72 68
65 67 72 73 76 78 78 77 74 69 66 65 66 68 67 65 64 68 80 93 99 100 100 100 100 100 100 100 100 100 100 100 99 98 98 96 93 90 86 75 66 60 50
64 64 64 71 71 70 70 74 74 71 68 68 68 69 74 79 83 82 90 99 100 100 100 100 100 100 100 100 100 100 100 100 100 99 98 94 86 80 80 59 48 42 35
60 60 59 61 64 63 63 64 68 73 72 73 78 79 82 85 92 93 97 98 100 100 100 100 100 100 100 100 100 100 100 98 100 96 89 96 95 69 56 47 40 36 33
59 59 59 60 59 58 61 61 65 79 85 89 89 88 95 99 98 100 100 100 100 100 100 100 100 100 100 100 100 100 97 93 92 96 98 84 58 48 45 45 41 42 42
57 58 59 61 62 60 60 60 75 94 99 99 100 100 100 100 100 100 100 100 100 100 100 100 100 100 99 96 92 92 88 77 66 54 44 55 56 56 57 53 52 55 56
57 57 58 62 65 71 88 100 100 99 100 100 100 100 100 100 100 100 100 100 100 100 100 100 98 95 96 89 66 54 49 47 34 27 29 36 34 24 25 57 57 52 56
59 62 74 87 97 99 99 100 100 100 100 100 100 100 100 99 100 100 100 99 99 99 98 99 83 76 76 48 37 53 54 56 59 54 54 56 54 58 56 52 51 54 50
90 96 99 100 100 100 100 100 100 100 100 100 99 100 100 100 100 100 100 98 92 88 80 73 57 51 25 22 44 64 61 59 60 53 49 45 48 51 52 51 54 53 53
100 100 100 100 100 100 99 100 100 100 100 100 100 100 100 100 99 97 92 84 75 62 62 67 53 62 49 50 73 47 47 51 73 68 61 56 52 56 58 61 57 56 56
100 100 100 100 100 100 100 100 100 100 100 100 100 100 100 94 83 76 68 61 64 78 84 77 70 86 72 73 72 65 63 76 78 75 70 64 64 62 61 61 63 67 66
100 100 100 100 100 100 100 100 100 100 100 100 99 99 98 95 88 95 97 97 96 96 92 91 93 86 83 79 76 79 78 79 79 72 69 68 69 72 72 69 70 69 65
99 99 100 100 100 100 100 100 100 100 98 99 100 97 98 99 98 97 98 99 98 85 89 83 75 71 69 71 75 78 76 78 80 84 84 84 81 80 79 74 72 70 68
96 99 99 99 98 99 99 100 100 99 98 97 98 96 98 99 97 93 91 75 68 80 84 84 88 88 83 78 78 81 81 86 83 83 83 83 81 81 73 68 66 65 64
97 99 100 99 100 99 98 96 95 98 96 96 97 98 99 100 100 100 100 99 77 84 80 82 88 86 82 76 78 79 80 83 85 80 79 77 81 80 79 74 70 68 65
97 98 99 98 98 98 98 98 97 95 95 97 97 99 100 100 100 97 91 83 79 81 78 79 83 83 82 81 79 81 82 86 85 87 85 86 87 86 83 78 72 73 69
98 98 98 98 98 98 99 99 98 93 92 94 95 98 99 99 98 95 92 86 81 80 77 74 80 80 81 80 84 87 87 87 88 87 86 87 88 87 81 75 74 77 78
97 96 97 98 98 98 95 92 92 91 89 88 89 91 88 88 89 90 91 91 85 82 83 76 75 77 82 81 82 83 82 79 79 80 81 84 84 86 83 83 83 82 77
97 97 96 97 94 95 96 95 94 89 88 90 96 97 90 84 86 86 84 86 84 82 85 83 82 83 82 82 80 82 83 85 83 83 83 82 82 85 84 86 86 85 84
97 97 96 95 94 92 88 86 85 82 82 84 88 90 89 85 81 80 83 92 94 91 90 91 91 88 87 88 90 92 90 88 87 86 86 86 86 87 88 87 87 85 85
94 90 85 85 85 87 86 85 86 84 82 82 80 81 84 88 89 87 91 97 95 96 98 99 99 96 94 98 100 99 96 92 93 96 97 95 92 89 89 88 86 84 83
88 86 84 89 86 84 85 86 87 85 83 85 88 88 89 90 92 94 97 100 100 100 100 100 100 100 100 100 100 100 100 100 100 100 100 100 98 94 92 90 88 88 87
87 87 86 85 85 86 85 85 88 88 89 90 90 91 88 92 90 97 100 100 100 100 100 100 100 100 100 100 100 100 100 100 100 100 100 100 100 100 98 95 92 90 87
83 84 85 85 86 86 87 87 90 90 91 93 95 96 98 96 95 100 100 100 100 100 100 100 100 100 100 100 100 100 100 98 98 98 100 100 100 100 99 95 93 91 88

GFSGL_925_rhum_087.txt.gz
RH
85 85 85 84 83 82 79 78 71 69 59 59 59 64 73 72 72 72 76 74 71 74 77 82 82 84 91 94 92 100 100 100 98 92 95 88 95 89 80 75 72 71 75
69 77 82 82 82 78 77 76 76 71 65 66 64 66 69 69 68 68 70 69 69 71 73 77 84 88 92 95 100 100 100 100 100 97 100 100 94 84 72 73 78 78 73
56 64 73 76 76 77 75 74 72 71 67 66 65 66 68 67 65 66 66 66 68 70 72 75 82 94 100 100 100 100 100 100 100 100 100 97 89 81 90 91 87 82 81
53 58 63 68 72 73 74 74 73 73 71 70 68 68 68 64 60 61 60 62 67 71 75 87 96 100 100 100 100 100 100 100 100 100 100 99 98 99 96 92 93 87 79
52 55 59 66 66 66 70 72 73 75 74 72 69 67 63 62 64 64 62 61 64 72 86 96 100 100 100 100 100 100 100 100 100 100 100 99 98 97 97 88 87 83 66
53 55 56 62 63 65 68 69 70 72 72 67 64 63 64 64 65 68 71 79 84 91 100 100 100 100 100 100 100 100 100 100 100 99 98 93 93 94 97 95 96 71 50
53 54 55 57 61 61 64 65 66 71 71 69 66 65 66 72 76 84 89 95 100 100 100 100 100 100 100 100 100 100 100 100 100 96 96 98 99 100 89 63 62 51 44
51 52 53 55 56 57 58 58 59 64 70 73 76 81 88 97 98 96 99 100 100 100 100 100 100 100 100 99 99 97 97 97 96 98 97 86 69 63 58 54 52 54 54
49 50 50 52 53 54 54 56 58 76 97 98 99 100 100 100 100 100 100 100 100 100 100 100 100 100 99 95 86 92 94 74 52 51 42 50 56 51 39 30 48 55 62
46 46 48 51 53 55 58 92 100 100 100 100 100 100 100 100 100 100 100 100 99 99 100 100 100 99 95 90 60 43 50 59 57 54 55 51 43 46 52 50 56 53 53
46 48 51 56 65 93 99 100 100 100 100 100 100 100 100 100 100 100 100 100 98 97 95 93 92 66 32 38 53 63 59 58 58 51 50 44 42 45 48 52 52 53 57
97 99 99 100 99 99 99 100 100 100 100 100 100 100 100 100 100 100 98 95 89 74 67 64 68 38 39 45 34 42 40 54 74 73 70 64 58 57 57 60 64 66 62
100 100 100 100 100 100 100 100 100 100 100 100 100 100 100 100 96 84 76 69 65 77 85 80 86 85 84 78 55 48 68 78 78 76 71 65 61 60 61 63 70 73 75
100 100 100 100 100 100 100 99 99 100 100 100 98 98 99 100 95 96 97 96 95 92 95 97 95 87 80 72 78 79 78 80 78 80 83 82 76 76 77 78 84 82 77
100 100 100 100 100 100 100 100 100 99 99 100 100 100 99 100 99 98 98 97 96 94 91 88 80 75 80 79 83 89 85 86 82 88 88 78 77 74 76 80 81 82 80
99 99 100 100 100 99 99 100 100 99 97 97 97 95 96 96 96 95 82 71 82 90 86 88 93 90 86 76 81 81 82 86 92 78 78 79 80 83 85 79 78 81 86
100 100 99 97 97 95 94 93 95 99 96 96 97 96 97 96 96 96 71 70 82 82 84 89 88 92 81 75 81 81 84 89 83 82 80 83 78 78 84 85 84 86 85
100 99 99 98 98 98 97 97 97 95 95 97 96 96 97 96 94 94 92 96 82 77 75 82 82 82 76 72 68 72 72 75 76 80 77 83 84 83 83 81 80 86 83
99 98 99 99 98 99 98 98 97 96 96 97 97 96 95 95 93 92 91 88 82 77 72 68 68 67 68 68 75 78 80 78 79 79 79 81 85 82 82 81 80 84 87
98 97 98 98 98 98 98 97 97 96 96 96 97 98 97 91 90 90 88 85 77 73 73 67 69 72 77 76 77 78 77 75 76 76 80 82 84 86 84 82 81 83 80
98 98 96 97 97 96 95 94 95 94 93 91 93 94 89 82 78 76 78 82 81 80 83 81 80 80 78 77 75 80 82 84 81 81 82 83 88 84 82 85 88 87 83
97 97 96 96 97 96 95 91 85 81 80 81 82 81 82 81 77 77 82 90 90 87 86 87 88 86 84 87 88 89 86 86 85 86 87 87 86 85 87 86 87 90 89
94 91 89 87 85 84 81 80 78 75 76 76 76 79 81 84 84 84 88 92 91 93 95 95 96 94 93 96 99 97 93 90 91 95 95 94 92 89 91 90 90 92 89
81 79 77 81 79 79 80 81 80 78 79 82 83 83 83 86 87 88 92 96 97 99 100 100 100 100 99 100 100 100 100 100 100 100 100 100 99 95 93 92 91 91 93
80 80 80 80 80 81 81 80 82 82 83 84 85 86 84 85 84 91 95 98 100 100 100 100 100 100 100 100 100 100 100 100 100 100 100 100 100 100 99 98 96 93 92
79 80 81 81 82 82 82 82 84 84 85 86 87 89 90 88 90 96 97 97 100 100 100 100 100 100 100 100 100 100 100 100 100 100 100 100 100 100 99 97 95 97 94

GFSGL_925_rhum_093.txt.gz
RH
95 98 96 93 88 87 83 74 75 73 70 71 62 59 55 51 55 66 69 69 72 71 73 70 72 66 69 70 69 70 71 80 93 80 77 76 82 84 85 84 85 85 85
92 92 97 99 96 90 84 82 75 78 74 72 63 64 60 54 58 69 70 70 72 73 72 72 70 70 67 70 72 70 75 80 90 89 88 89 90 91 92 92 90 89 94
81 89 93 97 99 97 91 87 82 78 75 68 69 68 70 68 70 64 63 66 72 70 74 75 71 70 71 73 72 80 85 88 94 100 98 99 100 100 100 100 100 100 100
87 88 87 92 95 97 94 89 92 86 78 75 70 68 66 65 66 65 67 68 67 66 66 70 71 72 71 74 81 81 86 97 100 100 100 100 100 100 99 100 100 100 100
86 88 85 81 83 89 95 95 90 91 89 86 79 71 68 64 62 66 70 71 71 70 70 73 78 80 78 78 82 86 99 100 100 100 100 100 100 100 100 99 100 100 98
80 86 85 86 86 91 94 96 95 93 91 86 85 80 74 69 63 58 60 69 70 76 79 77 82 85 90 98 100 100 100 100 100 100 100 99 100 99 100 99 99 99 98
69 83 84 86 88 88 91 90 94 95 94 90 85 85 82 75 70 69 67 69 75 81 83 86 96 100 100 100 100 99 100 98 98 97 98 99 99 99 100 100 100 100 99
66 66 74 84 87 86 88 87 84 85 87 91 90 86 84 84 79 76 75 76 84 95 100 100 100 100 99 98 100 100 100 100 99 97 96 100 98 98 94 91 74 57 45
66 64 63 70 80 84 86 85 85 87 87 88 89 87 89 94 97 86 81 91 100 100 100 100 100 99 100 100 97 94 88 75 76 64 55 44 40 42 44 44 48 51 59
66 62 64 65 68 75 77 79 80 85 96 100 99 98 100 99 100 100 100 100 100 100 100 100 100 99 99 96 91 87 90 81 83 76 57 58 60 62 63 68 70 74 78
98 71 67 64 66 67 74 80 89 98 100 100 100 100 100 100 100 100 100 100 100 100 100 100 99 98 98 93 93 93 94 85 86 84 77 70 67 69 71 71 74 79 85
99 100 100 98 92 82 84 99 99 100 100 100 100 100 100 100 100 100 100 100 97 95 100 97 97 87 84 94 92 93 95 93 90 88 86 83 78 74 71 68 67 67 74
100 99 100 100 100 100 100 100 99 100 100 100 100 100 100 100 100 100 100 99 95 94 94 97 96 96 96 97 95 95 93 92 91 89 83 75 74 76 71 68 66 66 62
100 100 100 100 100 100 100 100 100 99 99 99 98 99 100 100 99 100 99 96 99 97 99 96 96 96 96 96 96 96 92 86 85 86 85 86 83 73 79 70 77 81 80
99 100 100 100 100 100 100 100 100 100 97 98 98 98 97 100 99 96 98 99 96 97 96 97 97 98 98 98 97 97 87 78 83 81 85 88 85 76 85 74 84 83 88
98 99 99 97 98 98 98 99 100 100 96 97 96 93 99 99 97 96 94 97 98 96 96 98 100 99 99 99 98 97 87 90 88 80 79 86 82 83 87 83 84 90 93
100 100 100 98 97 96 95 94 94 98 97 97 98 97 95 96 96 97 96 96 95 94 97 99 99 96 97 96 92 87 91 79 69 77 86 84 78 72 81 90 89 85 87
100 100 98 98 97 96 96 96 96 95 95 97 97 96 97 98 98 96 95 94 95 95 95 95 93 90 86 85 80 81 83 81 79 82 82 74 75 84 88 92 93 95 96
100 100 100 98 97 98 98 98 97 96 96 97 96 95 97 99 97 98 94 93 93 92 92 85 81 84 81 83 84 83 81 83 82 79 81 93 95 82 76 84 88 88 94
99 98 98 100 100 98 97 97 97 98 97 97 97 97 96 86 90 90 84 84 89 95 96 92 87 84 83 86 85 81 79 78 84 90 95 92 81 78 86 88 89 98 100
100 97 96 99 99 99 98 98 98 98 98 98 100 94 85 93 100 99 94 92 90 88 91 92 89 87 86 84 84 81 83 93 99 95 91 86 80 81 80 85 93 92 100
100 98 97 97 97 97 97 95 94 94 97 100 100 94 87 88 94 95 96 97 95 90 90 92 94 94 93 91 86 84 95 99 95 92 88 83 79 81 89 92 90 97 100
96 96 97 98 98 98 98 99 100 100 98 97 93 87 89 93 92 93 96 97 96 94 93 88 90 95 95 86 86 95 97 98 96 90 82 82 86 89 91 97 100 100 100
94 96 97 97 96 97 99 100 99 92 89 91 92 95 98 94 93 92 91 89 92 94 87 99 100 100 95 91 85 86 91 89 90 95 94 91 88 90 98 100 100 100 100
96 95 94 97 96 95 88 88 92 93 94 96 96 99 100 100 100 100 98 95 78 88 100 100 100 97 92 86 99 97 99 100 98 93 94 93 94 97 100 100 100 100 100
97 98 99 97 94 93 95 98 99 98 98 99 100 100 96 92 100 100 99 86 77 93 94 90 92 93 97 98 100 100 99 95 94 99 99 99 99 99 100 100 100 100 100

GFSGL_925_rhum_096.txt.gz
RH
98 95 88 88 90 88 83 78 76 72 72 75 74 78 81 88 79 66 64 63 63 63 70 76 71 62 63 67 67 67 72 78 95 79 76 71 72 72 72 74 80 88 89
98 96 91 87 87 89 85 77 75 74 68 69 72 70 75 77 71 68 67 66 68 76 77 79 72 65 61 67 69 74 72 71 93 90 84 81 79 80 84 92 94 100 99
95 97 97 94 89 88 87 82 75 74 69 70 66 69 64 59 62 65 67 67 70 71 70 71 65 68 71 69 71 80 78 76 86 97 93 93 95 97 99 99 100 100 100
88 92 94 98 95 92 90 86 82 76 77 73 78 76 74 66 60 59 67 72 73 70 69 70 70 70 70 68 76 78 80 88 94 100 100 100 100 100 100 100 100 100 99
93 85 82 87 97 98 95 91 88 85 84 82 78 76 73 71 72 72 70 69 72 73 73 69 68 70 72 75 84 89 93 98 100 100 100 100 100 100 100 100 100 100 100
85 81 82 84 89 97 98 98 95 95 91 86 86 80 76 72 68 67 69 76 78 77 75 72 79 84 91 93 94 96 100 100 100 100 100 100 100 100 100 99 100 98 99
88 90 90 86 84 87 96 99 97 95 97 98 93 89 83 78 72 68 64 66 70 72 78 85 89 98 100 100 100 100 100 100 99 98 99 99 99 99 98 99 97 96 95
86 89 91 92 89 85 85 87 94 96 96 96 97 94 93 89 83 78 71 66 69 72 81 88 94 100 100 100 100 100 100 100 99 100 97 97 96 74 66 57 45 40 36
80 82 91 93 92 91 92 94 94 94 97 98 97 98 94 92 90 86 81 79 91 99 100 100 100 100 100 100 99 99 96 92 82 72 59 56 56 56 55 52 61 58 66
99 96 88 88 93 94 93 94 96 96 97 100 100 100 97 95 96 91 91 93 100 100 100 100 100 99 99 100 95 96 99 99 96 94 94 90 87 78 64 64 67 76 76
100 100 100 96 90 92 94 94 95 97 100 100 100 100 100 100 100 100 100 100 100 100 100 100 100 100 97 96 95 93 95 96 96 96 96 94 83 72 71 70 70 73 90
100 100 100 100 100 100 99 100 100 100 100 100 100 100 100 100 99 99 99 99 99 100 100 100 98 99 100 98 95 97 96 96 96 96 95 96 90 86 77 72 63 61 62
98 100 100 99 100 100 100 100 100 100 100 100 100 100 100 100 100 97 97 98 97 93 93 95 97 96 95 95 96 95 94 95 95 94 95 96 88 89 72 62 65 66 58
100 100 100 100 100 99 100 100 100 100 98 99 98 99 100 100 100 100 100 100 97 98 97 96 96 95 94 95 95 95 95 94 91 96 96 84 73 76 75 65 68 70 77
97 99 100 100 100 100 100 100 100 99 99 99 99 98 96 99 99 98 100 100 98 97 97 99 98 98 97 96 96 96 97 90 91 90 87 83 77 68 81 68 79 79 88
99 99 98 98 99 99 98 100 98 96 94 99 98 97 100 98 97 97 96 97 96 96 97 98 98 98 98 100 99 98 87 82 81 76 78 74 72 75 88 86 81 84 90
100 100 100 99 99 98 96 92 95 99 98 98 98 96 97 98 98 97 96 97 96 93 96 97 97 97 99 97 95 87 84 79 74 75 72 71 71 78 80 87 87 88 91
100 100 100 99 99 98 97 98 96 94 95 98 97 96 96 97 97 97 96 94 95 95 95 97 97 93 89 89 88 86 82 80 80 79 82 86 83 74 78 86 86 89 92
100 100 100 100 100 100 99 97 98 97 97 97 96 95 97 98 96 96 94 92 97 97 93 92 89 85 84 84 84 83 80 80 80 81 90 84 76 75 81 82 85 84 92
98 97 98 99 98 100 99 98 98 98 97 97 97 96 95 81 84 90 88 90 94 96 90 86 86 86 86 85 83 78 78 82 86 90 88 82 79 78 79 84 86 88 96
97 96 96 96 98 99 99 100 99 98 99 100 100 95 83 82 97 95 90 90 90 88 88 88 88 87 86 84 81 80 84 92 94 89 83 79 76 76 81 82 84 88 94
96 98 96 97 97 98 99 99 99 99 100 100 99 85 77 84 90 91 91 91 92 94 92 88 90 91 89 84 82 83 88 89 88 84 80 80 81 82 82 84 86 89 93
95 95 97 97 97 96 97 97 98 99 99 98 92 88 86 90 93 96 97 95 93 90 90 90 90 90 86 79 80 87 90 90 87 88 89 82 80 82 84 87 91 92 95
95 95 96 97 97 98 96 93 90 87 85 85 87 88 88 87 88 91 91 90 85 85 92 91 88 88 86 84 88 93 93 94 98 97 90 85 87 85 83 87 92 95 98
96 96 94 96 95 94 91 90 91 94 94 92 95 96 96 94 95 96 94 81 79 91 94 97 99 99 96 96 99 99 100 100 97 95 95 91 81 78 88 94 95 98 98
90 91 92 90 91 92 94 95 96 96 97 98 99 100 97 97 99 97 94 78 83 90 92 92 96 99 100 100 100 100 99 97 97 99 94 80 79 86 94 95 97 100 100

GFSGL_925_rhum_099.txt.gz
RH
99 100 96 96 93 91 92 89 89 87 89 96 98 98 100 100 97 90 85 78 58 66 58 66 61 67 73 70 68 68 83 85 93 80 72 64 66 64 66 69 73 76 80
93 100 94 97 93 92 89 87 82 82 82 83 91 94 93 92 91 94 88 79 76 63 63 64 67 63 72 75 84 81 75 73 90 89 81 75 74 75 81 84 84 88 93
90 98 94 94 96 92 89 83 82 78 77 81 81 83 87 90 90 90 87 78 73 69 71 67 66 69 74 74 73 81 75 80 90 99 92 89 89 91 91 92 95 100 100
94 94 96 92 92 93 88 83 80 80 78 74 80 81 82 85 86 86 88 87 82 79 73 63 64 81 74 70 72 72 72 89 94 100 100 99 97 98 100 100 100 100 100
98 96 93 96 91 90 90 88 82 81 82 77 74 76 75 74 81 86 89 89 86 82 78 75 76 77 76 74 78 76 81 93 99 99 98 100 100 100 100 100 99 99 99
95 98 96 97 97 94 92 91 90 87 84 84 81 78 76 74 73 69 68 72 72 73 75 73 80 80 76 74 84 89 89 100 100 100 98 100 99 98 99 100 100 100 100
97 97 94 93 97 98 98 96 94 93 92 89 88 84 83 79 76 74 70 71 74 73 77 80 77 79 89 96 100 100 100 100 100 100 100 100 99 100 100 100 100 100 100
96 95 92 88 90 91 94 98 97 96 96 98 94 90 90 86 80 75 72 72 72 75 78 82 83 84 93 100 100 100 100 100 100 100 100 100 99 100 97 89 61 50 72
96 96 96 95 94 92 94 95 99 99 99 99 100 100 98 95 89 84 79 75 76 80 83 90 99 100 100 100 100 100 100 100 99 97 96 92 89 79 80 91 95 96 97
100 99 99 100 99 96 93 93 92 94 98 100 99 100 100 100 99 96 95 90 89 94 99 100 100 100 100 100 99 100 100 100 99 97 95 95 96 96 96 95 95 95 97
100 100 99 100 100 100 99 98 98 99 98 100 100 100 100 100 100 99 100 100 100 100 100 100 100 100 100 98 95 93 95 96 96 95 96 96 96 96 94 93 89 84 92
100 100 100 100 100 100 100 100 100 100 100 100 99 100 100 99 100 100 100 100 100 98 100 100 100 100 99 98 95 95 95 96 95 95 94 96 96 95 95 87 78 72 80
100 100 100 100 100 100 100 100 99 99 99 100 100 98 97 99 100 99 98 98 100 100 100 99 97 96 95 96 96 96 96 96 95 96 96 96 98 95 88 82 64 62 66
99 100 100 100 100 100 99 100 99 100 100 99 100 100 99 98 98 99 100 99 97 99 100 98 97 97 96 96 95 95 95 95 94 96 97 95 91 88 87 86 76 53 58
98 99 100 100 100 100 100 100 100 100 92 94 96 94 95 98 99 97 99 99 100 100 100 97 96 95 96 97 96 95 95 92 92 89 85 84 84 88 86 72 78 80 84
99 100 100 98 98 99 98 100 100 100 100 100 99 100 100 98 97 99 97 95 94 96 97 97 97 96 96 97 98 97 93 91 86 80 81 93 97 97 96 80 64 65 73
100 100 100 99 98 97 94 91 94 100 96 97 98 97 97 97 97 98 97 96 96 94 95 97 97 96 98 96 94 94 96 88 81 77 74 76 73 70 70 76 73 71 74
100 100 100 100 100 100 100 100 97 95 97 100 100 99 98 96 96 96 96 95 95 96 96 98 100 96 95 91 85 84 82 75 74 77 76 74 70 70 74 79 80 80 82
100 100 100 100 100 100 100 100 99 98 98 97 96 94 96 96 96 96 96 93 99 100 95 91 85 82 82 79 79 78 75 76 77 78 79 75 73 72 74 79 76 73 78
100 99 100 100 100 100 100 100 100 100 99 98 96 96 95 94 89 88 85 85 88 90 86 84 83 81 81 81 78 76 82 87 86 84 82 77 74 74 74 76 77 81 86
96 96 95 96 100 100 99 100 100 99 99 99 99 94 77 76 92 89 84 81 80 80 82 84 85 83 82 80 80 81 83 88 88 84 77 75 76 75 79 82 84 83 84
97 98 96 97 96 96 99 97 97 98 99 97 94 83 72 75 82 87 89 90 90 88 85 81 81 81 80 78 79 83 89 89 87 80 79 80 80 81 79 78 80 84 88
95 95 96 97 96 95 94 95 94 92 91 86 80 78 77 82 85 86 87 85 83 85 88 87 85 83 80 76 81 88 90 90 87 88 86 82 78 76 77 79 88 89 88
94 94 94 95 93 92 91 92 89 86 84 83 82 85 86 88 90 90 87 83 83 93 95 91 88 88 84 82 88 96 97 98 96 92 84 80 80 80 81 89 92 92 94
90 88 88 88 87 87 85 86 85 84 84 84 87 88 90 90 90 88 81 82 91 94 94 93 92 92 90 96 100 99 97 95 94 94 91 87 80 79 86 95 96 95 94
84 85 86 84 85 85 87 90 92 91 92 93 93 94 92 93 95 93 84 75 77 78 78 82 90 96 98 95 91 91 94 96 97 98 94 84 80 87 95 97 95 96 96

GFSGL_925_rhum_102.txt.gz
RH
99 99 100 98 97 92 94 96 97 99 99 100 100 100 99 100 100 99 95 84 80 89 74 71 62 62 60 52 62 73 75 84 96 83 79 71 68 64 63 64 69 72 76
98 98 100 97 96 95 96 95 92 91 100 99 99 100 100 100 100 94 86 91 90 91 83 66 68 63 52 58 68 80 82 80 85 90 80 72 68 70 72 75 79 83 85
91 97 100 100 98 96 94 95 91 88 89 95 100 98 98 100 100 99 99 97 97 92 79 74 65 63 66 69 73 80 79 84 90 98 93 86 83 84 86 88 91 97 100
89 94 99 100 99 98 94 92 89 86 85 85 87 93 95 95 96 96 96 97 93 87 83 84 77 74 70 68 69 76 71 85 97 100 100 99 98 96 100 99 100 100 100
91 94 96 98 98 96 94 91 88 87 82 78 82 88 92 96 98 99 97 94 91 87 80 76 73 69 61 64 76 78 84 93 99 100 99 99 100 100 100 100 100 100 100
94 96 94 97 96 97 95 92 88 86 85 83 84 85 88 89 89 88 88 92 91 91 88 83 68 65 70 78 93 94 96 100 98 99 97 100 99 100 100 99 99 99 99
100 99 94 94 98 95 93 93 93 89 86 89 88 85 86 86 82 78 81 84 86 85 88 90 85 82 85 91 94 99 100 100 100 100 100 100 100 100 100 100 100 99 98
100 100 99 97 97 100 99 95 93 94 91 89 90 89 87 85 78 78 77 80 82 80 78 77 75 72 71 81 98 100 100 100 99 99 100 100 100 100 99 96 97 96 96
100 100 100 100 98 99 100 100 96 96 96 96 93 91 92 90 84 78 77 78 79 81 80 79 80 82 83 93 100 100 100 100 100 100 99 98 97 97 97 97 99 96 97
100 100 100 100 100 100 98 97 99 98 97 97 98 100 99 96 91 87 88 86 91 88 92 94 98 100 100 100 100 100 100 100 100 100 100 97 96 98 97 96 96 96 98
100 100 99 99 100 100 100 100 98 100 100 100 100 100 100 100 100 100 100 96 97 100 100 100 100 100 100 100 100 100 100 97 97 96 95 95 95 95 95 95 94 94 98
99 99 99 99 100 100 100 100 100 100 100 100 100 99 99 99 97 96 96 98 98 98 100 100 100 100 100 98 97 97 97 95 96 96 96 96 95 96 94 86 90 88 94
100 100 100 99 100 100 99 100 99 99 99 100 100 100 100 100 100 100 100 96 94 92 92 98 98 100 100 100 100 97 96 96 96 95 96 96 96 95 92 87 100 94 82
99 100 100 100 100 100 100 100 100 100 100 99 98 98 100 99 99 98 99 99 99 95 96 96 97 96 95 96 95 96 95 95 94 96 97 99 97 94 86 66 59 76 58
99 99 100 100 100 100 100 100 100 100 100 100 100 100 98 99 98 97 99 99 99 98 98 96 95 95 95 95 96 95 95 94 94 94 92 95 98 97 83 55 52 53 79
99 100 100 98 97 98 97 99 100 100 100 99 100 100 100 98 100 99 97 96 96 96 95 96 97 96 96 97 98 99 97 98 98 97 93 95 95 94 82 58 55 59 78
100 100 100 100 100 100 97 93 94 100 98 99 99 100 100 100 100 100 98 95 96 94 95 97 96 96 97 97 97 97 97 88 73 68 67 66 64 64 63 70 59 61 76
99 98 100 100 100 97 99 100 99 97 98 98 99 100 100 100 99 97 95 89 94 94 94 96 99 97 94 96 96 88 79 69 66 65 64 63 61 60 61 67 69 67 71
100 100 99 99 99 99 100 100 100 100 100 99 98 96 100 100 100 100 85 88 97 97 89 86 79 74 73 72 72 71 70 72 72 66 64 60 62 62 66 67 68 71 75
97 97 96 97 96 96 96 97 98 100 100 100 100 100 96 83 83 87 84 83 84 86 81 78 77 74 72 71 70 71 75 76 73 68 67 66 67 67 68 71 73 75 78
96 95 95 95 96 96 97 98 98 98 100 100 100 89 73 71 85 82 79 78 78 78 77 77 78 77 78 77 76 74 75 78 76 71 69 70 68 67 72 74 76 80 85
94 95 95 95 95 95 96 96 96 95 98 98 95 82 70 73 83 87 87 85 83 80 76 72 73 73 73 73 77 80 85 84 78 73 71 69 70 72 73 75 81 87 88
94 94 95 95 96 94 86 82 82 84 87 86 80 77 75 79 82 85 87 86 84 82 80 73 68 65 66 69 77 82 83 79 75 77 74 75 77 77 77 81 90 88 87
95 95 95 94 88 83 81 82 79 75 75 76 78 80 81 80 78 79 81 83 81 82 81 79 76 75 73 74 82 87 87 90 90 86 82 82 83 81 80 83 90 91 94
88 82 81 82 82 83 81 80 78 77 76 74 77 78 80 80 78 79 84 85 86 84 80 78 75 75 82 88 92 95 96 94 94 96 94 88 82 79 81 86 95 95 95
80 79 81 81 82 81 82 84 86 85 85 86 85 85 83 82 84 79 71 68 65 62 62 63 68 75 82 88 92 92 93 96 98 98 95 89 82 83 89 90 92 96 96

GFSGL_925_rhum_105.txt.gz
RH
100 99 100 100 100 100 100 100 100 97 98 99 99 100 100 100 100 100 96 88 89 90 88 82 88 68 66 62 58 61 73 63 74 65 60 68 76 62 64 65 66 67 70
97 100 100 100 100 100 100 100 100 94 98 99 100 100 100 100 100 100 99 94 93 95 84 86 88 82 69 54 64 68 64 61 67 69 73 63 64 69 75 75 74 78 86
98 100 99 100 100 100 100 100 100 100 99 100 100 100 100 100 100 100 98 89 88 89 77 97 87 81 80 72 74 76 63 65 72 80 81 83 80 80 67 72 83 94 100
99 99 100 100 100 100 100 100 99 99 100 100 99 99 100 100 100 100 99 97 87 87 92 93 84 82 73 79 78 68 71 82 99 100 97 99 97 96 93 98 100 100 100
98 97 99 99 99 100 100 99 98 98 96 100 100 100 100 100 99 100 99 100 100 98 97 92 93 79 70 76 82 82 83 84 98 100 99 98 99 100 98 98 100 100 100
95 98 98 100 100 100 100 98 98 96 94 97 98 98 100 100 99 98 99 100 100 99 97 95 90 86 83 84 83 81 80 88 100 100 99 99 97 95 99 100 100 100 99
99 99 97 95 99 100 100 98 95 94 93 92 95 97 96 95 91 92 93 95 95 95 95 94 91 88 86 86 89 93 96 100 100 100 100 100 100 100 100 100 100 100 100
100 100 98 98 97 97 98 98 98 94 95 94 94 88 89 86 83 83 84 94 97 97 96 94 93 92 89 82 95 100 100 100 99 99 100 100 100 100 100 100 99 98 96
100 100 100 100 100 100 100 98 96 98 98 95 94 91 91 90 84 82 85 92 98 96 94 94 95 95 91 90 100 100 100 100 100 100 100 100 99 98 98 99 100 97 97
100 100 100 100 100 99 100 100 99 99 98 98 100 100 99 100 99 97 91 91 94 98 100 100 98 100 99 95 100 100 100 100 100 100 100 99 99 99 97 93 97 97 97
100 100 100 100 100 100 100 100 100 100 100 100 100 100 100 100 100 99 100 100 100 100 100 100 100 99 100 100 100 100 100 100 99 98 97 96 96 97 95 95 94 97 97
100 100 100 100 100 100 100 100 100 100 100 100 100 99 100 99 97 92 94 100 100 99 98 99 100 98 96 95 96 97 96 95 96 95 95 96 96 95 97 96 92 79 83
100 100 100 100 100 100 100 100 100 99 99 100 100 100 100 100 100 100 100 100 100 99 100 99 99 100 100 98 96 96 96 95 95 94 96 96 95 100 98 100 99 95 89
98 99 100 100 100 100 100 100 100 100 100 100 100 100 100 100 100 100 100 100 100 99 100 98 96 96 95 96 96 96 96 96 95 96 96 100 99 99 98 98 97 91 74
94 95 98 98 98 100 100 100 100 100 100 100 100 100 99 100 100 99 100 100 100 100 99 98 99 98 98 97 96 95 95 96 98 98 99 99 98 97 95 91 78 73 65
94 97 98 94 94 95 95 99 100 100 100 99 100 99 98 97 98 100 100 100 98 87 92 98 100 99 98 100 99 95 96 97 96 95 96 93 89 84 81 80 79 72 69
100 100 99 98 97 95 93 91 94 100 99 99 100 100 100 100 100 100 100 100 93 86 98 99 100 100 98 89 88 88 92 95 96 91 89 91 88 85 80 79 78 73 72
100 100 100 100 100 100 100 100 98 95 96 98 98 97 99 100 100 100 99 88 96 98 96 97 94 88 83 83 82 79 83 87 85 84 88 90 90 85 82 79 82 84 75
100 100 100 100 100 100 100 100 99 98 99 99 100 98 100 100 100 94 92 98 94 91 88 88 88 84 83 86 94 95 95 92 89 90 89 90 95 83 83 84 83 86 82
100 100 100 100 100 100 99 98 98 99 99 100 100 100 100 90 91 97 99 98 92 88 86 86 89 91 92 94 97 96 94 94 93 90 97 84 96 94 92 91 93 88 83
100 100 100 100 100 100 100 99 100 99 99 99 100 100 85 90 94 95 97 99 96 97 98 95 98 100 100 100 96 97 95 96 94 95 96 85 90 97 96 96 95 93 88
100 100 100 100 100 100 100 99 98 94 91 92 98 88 80 97 97 98 100 100 100 99 98 96 97 96 99 96 97 97 93 98 98 97 85 85 99 94 95 96 100 100 96
100 100 100 100 100 99 96 93 95 94 95 95 94 96 99 100 100 100 100 100 90 74 69 64 61 60 60 64 85 100 99 100 87 80 89 99 100 100 95 100 100 100 100
100 100 100 100 97 93 95 97 97 97 96 99 100 100 100 100 100 100 100 92 81 75 69 64 63 66 66 72 97 100 90 86 86 81 77 78 99 96 96 100 100 100 100
100 100 100 100 98 98 97 96 97 98 98 98 99 100 99 98 98 99 83 77 74 70 68 68 72 76 79 81 83 85 89 88 84 87 81 79 78 75 77 95 97 100 100
92 97 100 99 100 99 98 98 99 99 100 100 100 100 100 87 83 81 72 67 64 64 66 66 69 70 73 80 80 81 87 90 90 90 84 80 80 98 100 100 97 100 100

GFSGL_925_rhum_108.txt.gz
RH
95 100 99 88 80 78 81 94 96 87 85 90 96 100 100 100 100 100 100 100 99 100 100 96 92 86 68 51 54 49 57 56 57 56 59 71 66 68 73 81 84 83 86
97 99 94 89 82 82 87 96 99 91 90 92 98 99 100 100 100 100 100 99 99 98 98 96 93 95 86 77 71 69 64 64 64 75 68 70 64 66 68 77 82 94 97
98 99 99 98 86 88 90 93 96 92 89 96 97 98 100 100 100 100 100 100 99 92 96 89 89 97 95 77 79 77 80 73 70 80 76 73 81 73 70 78 94 96 97
99 99 99 100 92 92 90 92 94 96 96 98 96 98 100 99 100 100 100 100 100 99 97 95 90 93 92 89 91 81 69 69 78 86 90 91 84 88 88 95 100 100 100
99 99 100 100 92 86 87 90 90 91 96 97 99 100 100 100 100 100 100 100 97 95 97 96 82 86 90 86 83 85 79 82 90 95 98 97 95 99 98 94 100 100 100
99 99 99 99 94 90 88 88 92 92 89 96 100 100 100 100 99 99 100 100 95 90 89 95 92 93 91 89 84 83 93 96 98 100 95 96 94 100 97 100 100 100 100
100 99 95 92 95 94 90 88 89 90 87 88 88 98 99 99 98 99 100 100 100 97 94 97 99 93 91 90 93 90 91 92 94 96 99 97 98 97 97 100 100 99 99
100 100 100 98 95 90 92 90 87 84 84 84 89 92 94 97 97 99 100 100 100 99 99 98 98 96 94 94 95 96 100 100 100 100 100 100 100 99 100 100 100 100 100
99 100 99 100 100 100 97 93 90 89 87 86 87 91 96 98 91 87 96 100 98 98 97 97 94 95 90 94 98 100 100 100 100 100 100 100 100 100 99 100 100 97 98
100 100 99 100 100 100 100 100 100 95 95 98 99 100 99 100 97 96 97 100 100 98 92 96 94 93 96 98 100 100 100 100 100 100 100 100 100 100 100 100 100 96 95
98 100 100 100 100 100 100 100 100 100 100 100 100 100 100 100 100 100 99 100 100 100 100 100 100 100 100 100 100 100 99 99 97 97 96 96 94 93 94 95 96 95 97
98 100 100 100 100 100 100 100 100 100 100 100 100 100 100 100 100 99 100 100 100 100 100 100 99 99 100 100 99 98 97 97 96 96 96 96 95 95 96 94 84 66 76
96 99 100 100 100 100 100 100 100 100 100 100 100 100 100 100 100 100 100 100 100 99 100 100 100 100 99 99 99 100 96 96 96 96 97 99 98 98 98 97 94 90 86
89 93 98 100 100 100 100 100 100 100 100 100 100 100 100 100 100 100 100 100 100 95 95 97 96 97 96 97 96 96 96 98 99 100 98 99 99 100 100 100 98 98 95
84 86 90 96 98 100 100 100 100 100 100 100 100 100 100 100 100 100 100 100 100 100 99 99 98 99 99 98 100 100 99 97 94 90 85 82 83 85 89 91 83 79 62
86 89 88 87 92 94 95 99 99 99 97 98 100 100 100 99 97 98 100 100 97 98 96 95 96 94 92 91 88 84 80 76 75 74 71 67 68 69 70 71 68 63 60
99 98 95 93 90 90 90 90 94 100 100 100 100 100 100 100 100 100 100 100 97 94 94 95 95 93 86 80 76 73 75 76 75 72 73 74 72 70 67 68 68 63 60
100 100 99 99 98 96 95 95 94 92 93 98 100 100 100 100 100 100 96 89 90 89 88 87 83 76 67 65 65 64 67 72 72 73 78 79 76 71 68 65 70 70 60
100 100 100 100 98 96 94 94 92 92 92 95 97 100 100 100 100 99 94 84 77 73 71 73 73 70 71 76 84 85 85 84 83 84 83 83 82 73 70 70 74 74 68
99 98 96 96 94 93 92 90 91 91 92 94 95 94 93 92 92 90 88 83 75 71 68 70 73 78 80 84 88 87 84 84 85 82 91 90 88 80 80 79 81 74 66
98 98 96 94 93 93 93 91 92 92 91 92 98 99 89 81 82 82 82 84 81 81 82 80 84 87 86 85 82 84 83 85 84 85 84 89 92 84 83 83 83 78 74
96 95 95 94 94 94 92 91 87 79 76 79 84 91 91 85 83 85 89 96 96 92 90 90 87 87 86 86 88 91 91 91 90 90 92 91 87 89 87 86 87 87 82
97 96 93 94 94 94 88 84 84 81 82 81 81 84 87 90 89 90 95 98 97 100 98 97 96 96 100 100 98 94 89 93 99 99 96 94 89 90 93 89 88 85 86
99 98 93 96 90 85 86 87 85 84 84 86 88 89 90 94 96 98 100 100 100 100 100 100 100 99 100 100 100 100 100 100 100 100 100 100 95 91 94 90 87 92 91
100 97 93 89 86 86 85 84 86 87 87 88 89 89 91 93 95 100 100 100 100 100 100 100 100 100 92 90 100 100 86 82 98 92 100 100 100 100 100 95 97 92 92
87 87 88 86 87 86 86 86 87 88 90 91 93 94 94 94 96 99 100 100 100 100 100 100 100 87 100 100 100 77 81 84 96 83 84 100 100 100 98 98 98 96 89

GFSGL_925_rhum_114.txt.gz
RH
83 89 74 80 79 87 86 77 69 72 73 95 99 99 100 94 100 99 99 100 100 100 100 100 98 91 96 88 84 90 74 70 64 60 58 64 65 70 74 78 83 83 86
90 86 81 83 80 89 87 78 72 73 77 85 92 93 95 100 99 100 100 100 100 100 100 100 100 100 100 95 92 88 84 71 63 63 62 68 69 71 80 76 83 83 72
95 98 91 92 83 93 94 80 75 76 78 79 94 99 96 99 99 100 99 99 100 100 100 100 100 100 100 100 98 92 88 74 66 59 63 68 72 72 74 83 96 95 92
96 100 98 94 92 94 96 82 79 76 76 76 82 93 100 99 99 100 100 100 100 100 100 100 100 99 99 99 100 96 89 86 89 76 77 76 76 81 79 82 99 100 99
100 100 100 95 98 97 94 84 78 85 79 82 87 90 91 98 99 99 100 100 100 100 100 100 100 100 100 97 98 99 91 91 93 90 90 90 93 90 88 84 97 100 100
100 100 99 100 100 100 92 87 83 87 86 85 88 89 94 96 96 97 99 99 100 100 100 100 100 100 100 98 97 96 93 91 97 98 95 95 93 91 88 90 99 100 100
100 100 100 100 100 100 92 93 92 89 89 87 89 89 92 88 93 96 99 98 99 99 99 99 100 100 100 100 100 100 99 91 89 91 95 96 94 94 92 93 99 100 100
100 100 100 100 100 100 97 96 94 90 88 92 88 84 89 88 94 99 98 100 97 100 99 99 99 97 98 100 100 100 100 100 100 100 100 99 100 99 100 100 100 100 100
100 100 100 100 100 100 98 95 94 94 92 91 95 92 94 99 100 100 98 99 100 100 100 100 100 99 95 100 100 100 100 100 100 100 100 100 100 100 100 100 100 100 98
100 100 100 100 100 100 98 96 95 98 100 100 100 100 100 100 100 100 100 100 99 100 100 100 98 99 100 98 100 99 100 100 100 100 100 100 100 100 99 100 100 99 95
100 99 100 99 100 100 100 100 100 100 100 100 100 100 100 100 100 100 100 100 100 100 100 100 100 100 100 100 100 100 100 100 100 99 99 99 98 97 98 98 99 98 96
100 100 100 99 99 100 100 100 100 100 100 100 100 100 100 100 100 100 100 100 100 99 100 100 100 100 100 100 100 100 99 98 98 97 97 98 97 96 97 96 96 97 97
99 100 98 96 98 97 100 99 99 100 100 100 100 100 100 100 100 100 100 100 100 99 100 100 100 100 99 99 98 99 98 98 97 95 97 96 96 96 95 89 81 83 73
98 99 98 98 99 97 97 97 97 98 100 100 100 100 100 100 100 99 100 100 98 94 97 98 97 97 98 99 98 97 97 95 94 97 97 96 96 92 78 65 59 47 37
98 98 97 98 99 98 99 98 99 100 98 100 100 100 99 99 100 100 100 100 100 100 100 100 100 100 100 100 99 96 97 97 96 95 93 86 76 72 71 66 60 55 56
96 98 99 96 95 97 96 99 100 100 97 98 100 100 100 100 99 99 100 100 100 98 97 98 98 96 94 91 88 83 78 76 73 68 69 72 73 71 68 65 60 55 53
99 99 100 99 99 97 95 92 94 100 100 99 98 97 98 97 94 95 95 95 94 90 95 95 94 91 86 84 82 80 75 73 73 74 71 68 68 68 69 66 62 55 51
96 97 98 98 98 96 96 96 95 94 95 98 100 100 98 98 97 93 88 85 88 87 86 82 78 74 73 75 77 79 79 79 81 81 80 75 71 69 69 74 71 60 51
99 98 98 98 98 97 97 98 99 99 99 99 98 96 97 92 85 83 78 78 79 79 80 82 84 90 97 96 93 91 90 88 86 85 84 79 74 70 68 58 56 59 59
97 97 98 99 98 97 95 94 94 94 96 97 99 99 96 90 92 92 88 84 82 82 84 87 87 84 84 84 84 84 84 87 89 90 93 89 82 78 79 79 78 71 64
96 94 95 97 99 98 96 96 94 94 95 96 96 88 89 94 96 99 100 100 97 92 88 87 85 83 85 85 82 86 86 87 87 90 89 90 87 83 81 79 78 72 67
93 93 95 99 98 98 98 91 83 83 85 87 89 87 88 93 96 97 98 99 98 94 95 94 96 98 98 90 88 88 93 95 93 84 86 88 85 84 83 77 84 83 79
95 95 95 96 97 98 98 94 90 87 88 90 93 96 96 97 93 91 90 88 93 97 96 94 91 87 91 95 97 98 96 92 94 97 95 89 90 90 88 88 82 84 83
93 93 95 95 93 87 82 84 86 90 94 93 91 88 87 88 93 97 99 100 99 91 86 92 95 99 100 97 91 91 94 97 87 86 91 95 99 91 95 90 90 94 91
93 94 95 96 91 88 88 90 92 91 90 91 93 92 92 93 93 95 96 98 95 95 100 100 88 82 80 71 74 48 72 73 75 75 85 100 96 81 94 80 88 85 83
95 96 95 93 93 91 91 93 95 94 94 93 93 93 93 94 94 95 95 90 94 96 91 79 88 100 100 67 45 44 45 46 48 46 56 90 100 99 97 97 96 96 91

GFSGL_925_rhum_117.txt.gz
RH
81 86 89 88 94 91 76 66 74 88 92 89 83 94 100 100 100 92 100 100 100 100 100 100 100 99 100 100 97 92 82 86 83 70 63 55 56 57 62 72 70 73 74
86 89 91 91 97 86 76 69 81 85 84 80 82 94 97 100 99 100 100 100 99 100 100 100 100 100 100 100 99 94 88 93 81 75 60 64 60 63 68 76 83 87 85
93 94 94 91 100 86 77 78 83 87 86 84 84 95 100 100 100 96 100 95 99 100 100 100 100 100 100 100 98 96 93 88 87 83 80 76 72 74 86 91 82 85 88
95 97 97 93 100 87 82 83 91 84 84 83 83 82 90 97 97 100 100 100 100 100 100 100 100 100 100 100 100 100 100 97 90 90 84 91 91 98 86 93 100 100 98
96 97 98 97 100 95 89 90 93 89 83 78 82 95 96 92 100 100 100 100 100 100 100 100 100 99 99 99 100 100 100 97 96 97 94 95 90 95 92 96 96 99 100
96 96 98 100 100 99 95 92 100 88 78 82 90 97 99 96 95 100 100 100 100 100 100 100 100 100 100 100 99 99 94 99 98 96 97 97 96 94 94 95 98 100 100
97 96 97 99 100 100 100 99 100 93 83 85 90 92 89 91 91 100 100 100 100 99 99 99 99 100 100 100 100 100 100 100 96 93 94 93 92 90 93 97 99 100 100
96 99 100 100 100 99 100 100 100 95 92 90 93 90 90 90 91 95 97 94 99 99 100 100 99 99 100 99 100 100 100 100 100 100 94 89 95 97 99 100 100 100 100
97 100 100 100 100 100 100 100 100 100 99 98 98 95 96 92 98 95 96 97 100 100 100 100 100 100 100 100 100 100 100 100 100 100 100 100 100 100 100 100 100 100 98
100 100 100 100 100 100 100 100 100 100 100 100 100 100 100 100 100 100 100 100 100 100 100 100 100 100 99 98 100 99 99 100 100 100 100 100 100 100 98 99 100 99 96
100 99 100 100 100 100 100 100 100 100 100 100 100 100 100 100 100 100 100 100 99 100 100 100 100 100 100 100 100 100 100 99 100 100 100 99 99 97 97 99 100 100 96
99 98 98 100 99 96 100 100 100 100 100 100 100 100 100 100 100 100 100 100 100 98 100 100 100 100 100 100 100 100 100 100 99 98 96 98 97 96 97 97 98 98 98
99 98 98 98 98 100 96 99 99 99 100 100 100 100 100 100 100 100 100 100 100 99 100 100 100 100 100 100 100 100 100 99 98 96 98 97 96 97 97 96 95 93 90
98 98 97 97 98 99 98 99 98 100 99 100 99 100 100 100 100 100 100 100 99 98 99 100 100 100 100 99 99 99 99 98 96 96 97 96 95 68 40 37 32 30 32
98 98 98 97 97 97 98 99 100 100 98 98 99 98 99 100 100 100 100 100 100 98 98 97 97 100 100 100 100 100 97 96 95 96 96 94 70 66 66 53 46 40 52
98 98 98 97 97 97 97 97 98 98 98 97 98 99 99 100 99 98 97 97 99 96 98 97 99 99 99 98 96 96 94 92 88 79 72 69 66 62 56 49 48 50 56
100 100 99 97 98 97 97 96 95 98 97 97 97 96 99 98 97 97 98 97 96 92 96 97 97 95 92 88 87 83 78 72 71 70 70 69 69 65 58 53 52 51 51
99 99 100 100 99 97 96 97 97 95 96 98 97 98 96 94 93 92 88 80 89 91 93 95 97 96 93 91 87 83 77 73 74 72 72 72 71 71 69 62 53 49 46
100 100 100 100 99 98 97 98 98 98 98 98 97 96 97 96 95 93 88 90 92 95 95 92 88 86 85 84 83 83 83 82 79 76 74 71 69 68 65 65 58 59 56
97 95 95 100 97 95 95 97 98 99 100 100 100 100 98 90 99 100 100 98 99 99 97 91 80 78 80 81 83 84 84 85 83 82 78 75 78 82 80 74 67 64 67
94 96 96 97 98 97 97 97 98 99 100 100 100 97 97 100 100 100 100 100 100 99 96 96 92 90 90 87 84 84 86 89 86 88 85 83 82 81 79 77 75 72 71
96 98 96 98 97 97 95 94 94 98 100 100 100 91 87 94 98 98 98 98 98 96 94 92 93 92 91 88 86 89 90 88 86 88 88 80 84 81 77 82 84 87 82
93 92 93 96 95 95 96 95 96 97 98 99 99 100 97 98 93 94 98 97 93 90 91 92 93 96 95 94 92 91 91 94 96 90 90 92 86 90 90 83 82 79 78
89 90 90 84 83 86 89 94 93 90 88 87 89 94 96 97 99 97 91 88 91 94 93 90 90 88 90 92 91 84 77 86 95 92 92 87 83 87 86 86 92 93 94
97 97 95 92 92 93 94 95 95 96 96 95 95 93 90 90 93 92 91 93 89 77 81 88 89 79 68 69 47 75 80 76 68 75 83 80 76 80 87 87 91 82 84
94 96 98 98 96 94 94 95 95 92 95 97 96 93 90 92 92 92 94 89 80 80 87 83 81 78 63 42 40 38 38 38 44 51 80 83 89 96 98 97 96 92 89

GFSGL_925_rhum_120.txt.gz
RH
78 81 80 76 81 87 89 97 92 97 77 84 84 98 100 100 100 100 100 99 100 100 100 100 100 100 100 100 99 96 96 91 93 96 85 77 72 67 71 77 71 71 70
90 90 92 91 92 94 91 100 91 94 75 74 92 100 100 100 100 100 100 100 100 100 100 100 100 100 100 100 100 100 100 96 88 94 88 82 82 76 73 78 82 84 80
93 92 93 96 98 97 89 100 99 91 72 91 100 100 100 100 100 100 100 99 95 100 99 100 100 100 100 100 100 100 100 98 91 86 91 85 85 90 95 93 95 98 97
96 96 96 96 97 100 94 100 99 80 79 100 100 94 100 100 100 100 100 100 99 100 99 100 100 100 100 100 100 100 100 100 94 89 90 91 90 98 90 94 100 100 100
95 96 96 96 96 99 100 99 96 89 92 100 100 100 100 100 98 99 100 100 100 100 100 100 100 99 95 98 99 100 100 100 100 96 91 97 99 100 100 100 100 100 100
94 94 96 98 98 97 99 100 99 96 98 100 100 97 100 100 83 96 99 100 100 100 100 100 100 100 100 100 99 98 95 99 99 98 95 96 99 99 100 99 99 100 100
96 94 95 99 100 99 98 100 100 100 100 100 100 95 100 93 85 94 100 100 100 100 100 100 100 100 100 100 100 100 100 100 96 97 97 96 96 95 97 100 98 98 99
97 98 98 100 100 100 100 100 100 100 100 100 100 100 96 91 91 96 100 100 100 100 99 100 100 100 100 100 100 100 100 100 100 100 99 99 93 90 93 92 96 99 100
97 99 100 100 100 100 100 99 100 100 100 100 100 95 85 88 92 98 100 100 100 100 100 100 100 100 100 100 100 100 100 100 100 100 100 100 100 100 100 100 100 100 100
100 100 100 100 100 100 100 99 100 100 99 100 100 98 91 89 96 99 96 99 100 100 100 100 100 100 100 100 100 99 99 100 100 100 100 100 100 100 100 100 100 99 97
100 100 100 100 100 100 99 99 100 100 100 100 100 100 100 100 100 99 99 100 99 99 100 100 100 100 100 100 100 100 99 99 100 100 100 100 100 100 99 100 100 100 98
100 100 100 100 100 100 99 96 100 100 99 98 100 99 100 100 100 100 100 100 100 98 100 100 100 100 100 100 100 100 100 100 100 100 100 100 100 99 100 99 100 100 99
100 100 98 100 100 99 100 96 99 99 99 98 98 100 100 100 100 100 100 100 100 100 100 100 100 100 100 100 100 100 100 100 99 98 100 100 99 98 98 97 97 98 97
100 99 98 98 98 98 98 100 98 98 98 98 98 97 100 98 100 100 100 100 100 100 100 100 100 100 100 100 100 100 100 100 97 97 98 98 98 96 91 80 72 73 77
98 100 99 98 98 98 98 99 98 100 99 99 100 98 97 99 99 98 100 100 100 100 100 100 100 98 98 99 100 99 99 98 97 99 97 92 59 39 36 31 29 34 53
98 98 100 99 97 97 97 97 97 98 97 97 98 99 100 100 97 97 98 100 98 97 94 97 99 100 98 99 97 100 97 96 96 95 96 81 58 52 47 42 40 53 64
100 100 99 99 99 98 97 97 96 97 97 96 97 97 99 98 96 96 96 97 97 93 96 97 97 96 97 96 96 96 96 96 90 71 63 57 50 50 50 53 56 59 58
100 100 100 98 98 98 98 98 97 96 95 96 97 98 98 97 98 97 95 94 95 98 99 97 97 97 97 94 91 83 78 71 69 69 67 62 57 54 53 51 49 55 54
100 100 96 96 95 95 95 96 99 99 99 100 97 94 98 99 100 100 95 96 98 100 98 97 94 92 88 82 78 74 73 73 73 72 72 70 64 57 55 53 53 56 54
99 96 93 90 89 92 95 99 100 100 100 100 100 100 95 89 97 100 100 100 100 100 96 94 88 86 85 84 83 80 78 75 73 72 68 64 65 66 63 63 61 60 64
97 96 94 94 96 96 96 98 100 100 100 100 100 100 92 95 100 100 100 100 100 99 95 92 89 88 87 86 85 85 84 83 79 78 79 80 77 76 72 69 67 69 69
95 95 98 99 98 99 100 100 99 100 100 100 100 95 88 91 95 97 97 97 96 94 93 92 90 88 86 85 86 85 85 87 86 84 83 81 80 82 80 80 79 79 76
93 93 93 94 95 94 94 93 94 96 97 96 94 93 92 96 98 98 98 99 98 96 94 92 94 95 94 92 88 85 84 89 92 85 81 86 86 83 77 77 80 76 77
85 86 90 93 92 90 89 90 90 91 93 93 92 92 91 91 93 94 96 95 94 95 92 93 94 94 93 90 89 91 94 97 93 88 86 84 87 87 85 87 88 90 89
94 94 93 92 91 92 94 94 93 91 90 90 92 92 92 92 94 90 81 85 92 93 91 82 76 72 62 76 83 80 84 87 90 88 86 76 74 76 74 85 86 80 86
96 96 96 95 95 93 93 96 98 96 97 96 94 94 94 96 97 90 82 85 82 76 78 76 67 51 42 40 41 44 43 45 60 67 72 73 77 87 92 92 94 92 90

GFSGL_925_rhum_123.txt.gz
RH
86 89 88 86 86 84 82 79 83 89 89 100 100 92 88 100 100 99 100 100 100 100 100 99 100 100 100 100 100 99 98 94 94 100 93 92 92 95 86 85 78 76 73
87 84 84 82 83 87 87 87 91 93 99 100 100 100 95 99 100 100 100 100 100 100 99 100 100 100 100 100 100 100 100 99 92 96 100 99 92 91 94 88 84 85 85
94 94 94 93 95 95 92 90 90 91 100 99 100 100 100 99 100 100 100 100 100 100 97 100 99 100 100 100 100 100 100 100 98 95 100 97 100 99 100 100 99 95 93
95 93 93 95 98 100 96 94 95 93 100 100 100 100 95 95 100 100 100 100 100 100 99 100 100 99 99 100 100 100 100 100 100 98 97 100 99 100 99 99 100 100 100
98 98 96 95 98 100 99 98 94 98 100 99 100 100 98 99 100 100 100 100 100 100 100 99 99 99 97 100 100 100 100 100 100 100 98 97 100 100 99 99 100 100 100
96 96 97 97 97 98 100 99 96 97 100 100 100 100 100 100 100 99 99 100 100 100 100 100 99 97 99 100 100 100 98 99 100 98 96 93 96 99 100 99 100 100 100
95 96 97 98 98 98 100 100 98 96 100 100 100 100 100 100 99 100 100 100 100 100 99 99 100 99 100 100 100 100 100 100 94 92 96 94 97 98 98 99 100 98 98
97 98 99 99 99 99 100 100 100 99 100 99 100 100 100 100 99 95 100 100 100 100 99 99 99 99 100 99 100 100 100 100 100 100 95 92 91 94 89 88 98 98 100
99 100 100 100 100 100 100 100 100 100 98 100 100 100 100 99 94 97 100 100 100 100 100 100 100 99 100 100 100 100 100 100 100 99 100 100 98 98 99 98 100 99 99
100 100 100 100 100 100 100 100 100 100 100 100 100 100 100 99 100 100 100 100 100 100 100 100 100 99 99 100 100 99 100 100 100 100 100 100 100 100 100 100 100 99 99
100 100 100 100 100 100 100 100 100 99 99 100 100 100 100 100 99 100 100 100 98 100 100 100 100 100 100 100 100 100 99 99 100 100 100 100 100 100 100 100 100 100 99
100 99 100 100 100 100 100 100 100 96 98 99 100 100 100 100 100 100 100 91 100 98 100 100 100 100 100 100 100 100 100 100 100 100 100 100 100 100 100 100 100 100 100
97 99 100 100 99 100 100 100 100 100 98 99 100 99 98 99 100 100 100 100 100 99 100 100 100 100 100 100 100 100 100 100 100 100 100 100 100 100 100 100 99 99 98
98 98 99 100 100 100 98 98 97 99 98 98 98 98 100 95 100 98 100 100 100 100 100 99 100 100 100 100 100 100 100 100 100 100 100 100 100 100 97 97 96 97 94
96 98 99 99 100 100 98 98 98 99 99 98 99 100 98 99 100 98 100 100 100 100 100 100 100 100 100 100 100 100 100 99 99 99 98 98 97 96 96 97 95 89 77
99 100 100 100 99 99 98 97 97 98 97 97 96 97 100 98 99 99 99 98 97 98 98 100 100 100 100 100 99 100 98 98 98 96 96 96 96 95 83 61 60 65 66
100 100 98 100 100 98 97 97 96 96 96 96 96 96 96 97 96 97 97 97 97 95 96 97 97 97 97 98 96 95 96 96 96 96 95 95 90 67 60 62 59 57 61
100 96 96 97 96 98 98 97 97 96 96 96 97 97 97 97 96 96 97 96 96 96 96 96 97 97 96 96 96 96 95 95 95 89 71 55 50 53 60 60 54 50 47
100 97 93 92 93 93 94 96 98 97 96 96 96 95 96 98 98 98 96 96 97 97 97 97 97 96 94 90 85 80 75 69 65 60 57 54 51 47 53 54 52 53 53
94 95 94 93 93 95 97 100 99 100 100 100 100 100 95 90 95 97 97 99 100 100 100 97 93 87 83 79 77 76 75 74 72 67 61 56 53 51 55 57 56 59 63
94 95 96 95 97 100 100 100 100 100 100 100 100 100 89 95 100 100 97 94 95 93 92 91 90 88 85 81 78 76 75 76 72 68 67 68 64 64 64 64 66 67 67
95 94 94 97 94 92 92 91 95 99 100 100 100 98 94 96 100 100 100 100 97 92 89 85 87 88 88 86 84 82 82 82 80 77 76 75 74 73 70 68 68 68 64
94 93 93 95 94 89 87 88 87 87 91 93 94 95 94 97 100 100 100 100 96 95 94 90 90 90 87 84 82 83 84 85 85 82 77 75 78 79 78 80 78 76 68
90 88 90 89 84 85 86 89 89 86 86 85 84 89 93 95 96 96 97 96 95 96 95 93 94 93 92 89 87 86 90 91 89 86 82 80 81 82 79 77 77 79 80
94 94 92 90 89 89 87 88 88 87 87 87 87 88 88 83 82 91 92 90 85 78 73 70 71 79 82 76 73 83 91 90 87 85 79 76 80 85 85 85 84 83 86
95 96 96 95 94 92 92 93 93 90 90 90 92 93 90 85 84 86 81 73 72 67 61 50 42 40 40 42 48 47 50 58 66 70 70 68 73 81 86 87 89 88 88

GFSGL_925_rhum_126.txt.gz
RH
90 85 84 82 76 66 63 67 73 75 75 81 77 91 100 99 100 99 99 100 100 100 100 100 100 99 99 92 100 100 100 100 97 97 95 96 98 100 98 93 94 96 88
90 88 86 88 88 88 87 83 81 84 85 91 99 99 95 100 97 100 99 100 100 100 100 100 100 100 99 98 100 100 100 100 99 99 100 100 100 100 96 98 100 99 94
97 97 96 95 96 97 97 93 90 93 93 97 95 100 100 97 100 100 99 99 100 100 100 100 100 100 98 100 100 100 100 100 100 97 99 100 100 100 100 100 100 100 97
96 96 98 98 100 100 99 100 99 99 96 95 94 100 99 93 100 100 100 99 100 100 100 100 100 95 99 100 100 99 100 100 100 100 100 100 100 100 100 99 100 100 100
97 97 97 98 98 98 98 100 100 99 94 94 96 99 97 98 100 100 100 99 100 100 100 100 100 93 96 99 99 100 100 100 100 100 100 100 100 100 99 100 100 100 100
97 98 98 98 98 98 99 99 100 100 98 99 98 100 100 100 99 99 99 100 100 100 100 100 99 94 100 100 95 98 98 99 100 100 99 97 100 100 100 100 100 100 100
98 98 98 99 99 99 99 98 99 100 100 99 97 100 100 100 97 97 98 100 100 100 100 100 100 100 100 100 100 100 100 100 95 98 99 97 100 98 99 100 100 98 97
98 98 99 100 100 100 99 98 100 100 100 100 99 99 100 100 99 99 100 100 100 100 99 99 100 99 100 100 100 100 100 100 100 100 97 95 92 97 88 86 98 98 100
98 100 100 100 100 99 99 100 100 100 100 100 100 100 100 100 98 99 100 100 100 100 99 100 100 99 98 100 100 100 100 100 100 100 100 98 98 99 96 98 100 100 100
100 100 100 100 100 98 100 100 100 100 100 100 100 100 100 100 99 99 100 100 100 100 100 100 100 99 100 100 100 100 100 99 100 100 100 100 100 100 100 100 92 100 99
95 97 100 100 100 100 100 100 100 100 100 100 99 99 100 100 100 100 100 100 99 99 99 100 100 100 100 100 100 100 98 100 100 100 100 100 100 100 100 100 100 100 98
92 94 100 99 100 99 99 99 98 100 100 100 97 98 99 100 100 100 100 97 100 98 100 100 100 100 100 100 100 100 100 100 100 100 100 100 100 100 100 100 100 100 100
93 94 97 100 99 99 100 97 94 96 97 98 99 98 100 99 100 100 100 100 100 100 100 100 100 100 100 100 100 100 100 100 100 100 100 100 100 100 100 100 100 100 100
100 100 98 100 100 98 99 99 96 95 94 96 96 97 99 100 98 98 98 100 100 100 100 100 100 100 100 100 100 100 100 100 100 100 100 100 100 100 100 100 99 99 95
100 100 100 100 100 100 98 100 100 100 100 97 98 98 97 98 100 99 97 98 99 99 100 100 100 100 100 100 100 100 100 100 100 100 100 100 100 99 98 98 97 98 94
100 100 100 100 100 100 100 97 100 99 100 98 97 97 98 97 97 97 99 94 98 96 97 100 100 100 100 100 100 100 100 100 100 100 99 98 98 96 96 96 96 96 96
100 95 94 98 100 100 100 99 96 94 96 99 99 98 98 98 96 97 97 97 96 96 96 98 99 100 100 100 100 99 100 99 97 96 96 96 96 96 96 96 95 87 83
96 93 92 96 99 100 100 100 100 97 96 96 96 98 98 98 98 98 96 96 96 96 96 96 96 96 97 97 96 96 96 96 96 96 96 96 96 94 90 89 83 80 71
96 96 94 92 93 94 96 98 98 99 98 97 96 94 95 98 97 98 98 96 96 96 97 96 97 96 96 96 96 96 96 96 92 82 84 83 74 55 61 55 54 55 55
95 95 95 95 95 95 94 98 100 100 100 100 100 100 96 95 94 97 96 97 97 96 96 96 96 94 93 91 89 85 78 70 60 54 50 48 48 47 52 53 52 54 59
95 94 94 94 95 94 92 98 99 100 100 100 100 100 98 100 100 100 100 97 96 96 96 95 94 91 90 89 86 83 78 71 62 58 56 56 54 56 58 60 64 68 70
93 94 93 95 90 90 93 87 91 94 97 98 97 94 91 96 100 100 100 100 97 95 95 91 90 89 86 83 81 79 77 74 69 67 67 66 65 66 66 65 64 61 60
86 84 84 82 82 81 82 86 86 88 93 94 94 93 93 97 99 100 100 98 96 94 92 87 86 88 87 86 84 82 81 81 78 72 72 73 73 71 69 70 67 61 57
91 87 87 87 84 83 82 82 83 86 90 89 90 95 96 96 97 96 95 94 93 92 90 89 91 92 90 89 88 86 86 85 81 80 73 68 70 70 69 70 68 67 68
94 94 94 95 92 89 87 87 87 86 87 87 88 90 89 90 91 84 71 61 56 54 56 63 72 73 71 81 89 90 88 84 76 73 71 72 74 76 77 78 78 80 81
95 95 95 94 95 95 92 90 89 87 89 90 88 82 80 84 86 82 80 74 66 58 50 47 46 42 40 40 43 51 60 65 63 60 59 59 61 71 76 77 80 78 80